Time,TemperatureF,DewpointF,PressureIn,WindDirection,WindDirectionDegrees,WindSpeedMPH,WindSpeedGustMPH,Humidity,HourlyPrecipIn,Conditions,Clouds,dailyrainin,SoftwareType,DateUTC
2013-02-03 00:00:00,16.5,11.4,29.00,WSW,245,3.1,3.1,80,0.00,,---,0.00,VWS V14.01,2013-02-03 05:00:00,
2013-02-03 00:01:00,16.5,11.4,29.00,WSW,249,0.0,4.9,80,0.00,,---,0.00,VWS V14.01,2013-02-03 05:01:00,
2013-02-03 00:02:00,16.5,11.4,29.00,WSW,249,0.0,4.0,80,0.00,,---,0.00,VWS V14.01,2013-02-03 05:02:00,
2013-02-03 00:03:00,16.5,11.4,29.00,WSW,252,4.0,5.8,80,0.00,,---,0.00,VWS V14.01,2013-02-03 05:03:00,
2013-02-03 00:04:00,16.5,11.4,29.00,WSW,252,0.0,4.0,80,0.00,,---,0.00,VWS V14.01,2013-02-03 05:04:00,
2013-02-03 00:05:00,16.5,11.4,29.00,WSW,251,3.1,4.9,80,0.00,,---,0.00,VWS V14.01,2013-02-03 05:05:00,
2013-02-03 00:06:00,16.5,11.4,29.00,WSW,251,0.0,3.6,80,0.00,,---,0.00,VWS V14.01,2013-02-03 05:06:00,
2013-02-03 00:07:00,16.5,11.4,29.00,SW,229,4.5,5.8,80,0.00,,---,0.00,VWS V14.01,2013-02-03 05:07:00,
2013-02-03 00:08:00,16.5,11.4,29.00,WSW,240,0.0,4.5,80,0.00,,---,0.00,VWS V14.01,2013-02-03 05:08:00,
2013-02-03 00:09:00,16.5,11.2,29.00,WSW,240,3.1,4.0,79,0.00,,---,0.00,VWS V14.01,2013-02-03 05:09:00,
2013-02-03 00:10:00,16.5,11.2,29.00,WSW,240,4.0,4.0,79,0.00,,---,0.00,VWS V14.01,2013-02-03 05:10:00,
2013-02-03 00:11:00,16.5,11.2,29.00,WSW,243,4.0,4.9,79,0.00,,---,0.00,VWS V14.01,2013-02-03 05:11:00,
2013-02-03 00:12:00,16.5,11.2,29.00,WSW,251,6.7,6.7,79,0.00,,---,0.00,VWS V14.01,2013-02-03 05:12:00,
2013-02-03 00:13:00,16.5,11.2,29.00,WSW,242,4.9,6.7,79,0.00,,---,0.00,VWS V14.01,2013-02-03 05:13:00,
2013-02-03 00:14:00,16.5,11.2,29.00,WSW,242,0.0,4.9,79,0.00,,---,0.00,VWS V14.01,2013-02-03 05:14:00,
2013-02-03 00:15:00,16.5,11.2,29.00,WSW,247,2.7,5.4,79,0.00,,---,0.00,VWS V14.01,2013-02-03 05:15:00,
2013-02-03 00:16:00,16.5,11.2,29.00,WSW,255,2.7,4.5,79,0.00,,---,0.00,VWS V14.01,2013-02-03 05:16:00,
2013-02-03 00:17:00,16.5,11.2,29.00,WSW,240,4.0,4.9,79,0.00,,---,0.00,VWS V14.01,2013-02-03 05:17:00,
2013-02-03 00:18:00,16.5,11.2,29.00,WSW,240,0.0,4.5,79,0.00,,---,0.00,VWS V14.01,2013-02-03 05:18:00,
2013-02-03 00:19:00,16.7,11.3,29.00,WSW,240,3.1,3.1,79,0.00,,---,0.00,VWS V14.01,2013-02-03 05:19:00,
2013-02-03 00:20:00,16.7,11.1,29.00,WSW,245,0.0,4.9,78,0.00,,---,0.00,VWS V14.01,2013-02-03 05:20:00,
2013-02-03 00:21:00,16.7,11.1,29.00,WSW,245,3.1,4.0,78,0.00,,---,0.00,VWS V14.01,2013-02-03 05:21:00,
2013-02-03 00:22:00,16.7,11.1,29.00,WSW,245,2.7,4.0,78,0.00,,---,0.00,VWS V14.01,2013-02-03 05:22:00,
2013-02-03 00:23:00,16.7,11.1,29.00,WSW,240,3.6,5.4,78,0.00,,---,0.00,VWS V14.01,2013-02-03 05:23:00,
2013-02-03 00:24:00,16.7,11.1,29.00,WSW,240,3.1,3.6,78,0.00,,---,0.00,VWS V14.01,2013-02-03 05:24:00,
2013-02-03 00:25:00,16.9,11.2,29.00,SW,234,2.7,4.5,78,0.00,,---,0.00,VWS V14.01,2013-02-03 05:25:00,
2013-02-03 00:26:00,16.9,11.2,29.00,WSW,251,4.5,4.5,78,0.00,,---,0.00,VWS V14.01,2013-02-03 05:26:00,
2013-02-03 00:27:00,16.9,11.2,29.00,WSW,251,3.6,4.9,78,0.00,,---,0.00,VWS V14.01,2013-02-03 05:27:00,
2013-02-03 00:28:00,16.9,11.2,29.00,WSW,251,2.7,3.6,78,0.00,,---,0.00,VWS V14.01,2013-02-03 05:28:00,
2013-02-03 00:29:00,17.1,11.1,29.00,WSW,251,3.1,4.5,77,0.00,,---,0.00,VWS V14.01,2013-02-03 05:29:00,
2013-02-03 00:30:00,17.1,11.1,29.00,WSW,251,0.0,4.0,77,0.00,,---,0.00,VWS V14.01,2013-02-03 05:30:00,
2013-02-03 00:31:00,17.2,11.3,29.00,WSW,251,0.0,2.7,77,0.00,,---,0.00,VWS V14.01,2013-02-03 05:31:00,
2013-02-03 00:32:00,17.2,11.3,29.00,WSW,251,4.0,4.5,77,0.00,,---,0.00,VWS V14.01,2013-02-03 05:32:00,
2013-02-03 00:33:00,17.2,11.3,29.00,WSW,251,3.1,4.0,77,0.00,,---,0.00,VWS V14.01,2013-02-03 05:33:00,
2013-02-03 00:34:00,17.2,11.3,29.00,WSW,251,4.0,4.5,77,0.00,,---,0.00,VWS V14.01,2013-02-03 05:34:00,
2013-02-03 00:35:00,17.2,11.3,29.00,WSW,251,3.1,5.4,77,0.00,,---,0.00,VWS V14.01,2013-02-03 05:35:00,
2013-02-03 00:36:00,17.2,11.3,29.00,WSW,251,3.1,4.9,77,0.00,,---,0.00,VWS V14.01,2013-02-03 05:36:00,
2013-02-03 00:37:00,17.2,11.3,29.00,WSW,251,0.0,4.9,77,0.00,,---,0.00,VWS V14.01,2013-02-03 05:37:00,
2013-02-03 00:38:00,17.2,11.3,29.00,WSW,257,4.0,4.5,77,0.00,,---,0.00,VWS V14.01,2013-02-03 05:38:00,
2013-02-03 00:39:00,17.1,11.1,29.00,WSW,257,0.0,4.0,77,0.00,,---,0.00,VWS V14.01,2013-02-03 05:39:00,
2013-02-03 00:41:00,20.1,13.8,28.94,North,10,0.0,0.0,76,0.00,,---,0.00,VWS V14.01,2013-02-03 05:41:00,
2013-02-03 00:42:00,16.9,10.6,29.00,WSW,257,4.0,4.0,76,0.00,,---,0.00,VWS V14.01,2013-02-03 05:42:00,
2013-02-03 00:43:00,16.9,10.6,29.00,WSW,257,0.0,4.0,76,0.00,,---,0.00,VWS V14.01,2013-02-03 05:43:00,
2013-02-03 00:44:00,16.9,10.6,29.00,WSW,257,3.6,3.6,76,0.00,,---,0.00,VWS V14.01,2013-02-03 05:44:00,
2013-02-03 00:45:00,16.7,10.5,29.00,WSW,257,0.0,3.6,76,0.00,,---,0.00,VWS V14.01,2013-02-03 05:45:00,
2013-02-03 00:46:00,16.7,10.5,29.00,WSW,257,0.0,3.1,76,0.00,,---,0.00,VWS V14.01,2013-02-03 05:46:00,
2013-02-03 00:47:00,16.7,10.5,29.00,SW,233,2.7,5.4,76,0.00,,---,0.00,VWS V14.01,2013-02-03 05:47:00,
2013-02-03 00:48:00,16.7,10.5,29.00,SW,233,2.7,3.6,76,0.00,,---,0.00,VWS V14.01,2013-02-03 05:48:00,
2013-02-03 00:49:00,20.1,13.8,28.94,North,10,0.0,0.0,76,0.00,,---,0.00,VWS V14.01,2013-02-03 05:49:00,
2013-02-03 00:50:00,16.5,10.3,29.00,WSW,239,3.1,5.8,76,0.00,,---,0.00,VWS V14.01,2013-02-03 05:50:00,
2013-02-03 00:51:00,16.5,10.0,29.00,WSW,239,4.0,4.5,75,0.00,,---,0.00,VWS V14.01,2013-02-03 05:51:00,
2013-02-03 00:52:00,16.5,10.0,29.00,West,261,4.5,4.9,75,0.00,,---,0.00,VWS V14.01,2013-02-03 05:52:00,
2013-02-03 00:53:00,16.5,10.0,29.00,West,270,4.0,4.5,75,0.00,,---,0.00,VWS V14.01,2013-02-03 05:53:00,
2013-02-03 00:54:00,16.5,10.0,29.00,West,274,0.0,4.9,75,0.00,,---,0.00,VWS V14.01,2013-02-03 05:54:00,
2013-02-03 00:55:00,16.5,10.0,29.00,West,275,2.7,3.6,75,0.00,,---,0.00,VWS V14.01,2013-02-03 05:55:00,
2013-02-03 00:56:00,16.5,10.0,29.00,West,274,4.0,4.5,75,0.00,,---,0.00,VWS V14.01,2013-02-03 05:56:00,
2013-02-03 00:57:00,16.5,10.0,29.00,West,274,2.7,4.5,75,0.00,,---,0.00,VWS V14.01,2013-02-03 05:57:00,
2013-02-03 00:58:00,20.1,14.1,28.94,North,10,0.0,0.0,77,0.00,,---,0.00,VWS V14.01,2013-02-03 05:58:00,
2013-02-03 00:59:00,16.5,10.0,29.00,WSW,257,4.0,4.0,75,0.00,,---,0.00,VWS V14.01,2013-02-03 05:59:00,
2013-02-03 01:00:00,16.5,10.0,29.00,WSW,243,4.9,5.8,75,0.00,,---,0.00,VWS V14.01,2013-02-03 06:00:00,
2013-02-03 01:01:00,16.5,10.0,29.00,WSW,243,3.6,4.9,75,0.00,,---,0.00,VWS V14.01,2013-02-03 06:01:00,
2013-02-03 01:02:00,16.5,10.0,29.00,WSW,243,0.0,3.6,75,0.00,,---,0.00,VWS V14.01,2013-02-03 06:02:00,
2013-02-03 01:03:00,16.3,9.8,29.00,WSW,243,0.0,3.1,75,0.00,,---,0.00,VWS V14.01,2013-02-03 06:03:00,
2013-02-03 01:04:00,16.3,9.8,29.00,WSW,243,4.5,4.5,75,0.00,,---,0.00,VWS V14.01,2013-02-03 06:04:00,
2013-02-03 01:05:00,16.3,9.8,29.00,WSW,243,4.0,4.5,75,0.00,,---,0.00,VWS V14.01,2013-02-03 06:05:00,
2013-02-03 01:06:00,16.3,9.8,29.00,WSW,255,5.4,5.4,75,0.00,,---,0.00,VWS V14.01,2013-02-03 06:06:00,
2013-02-03 01:07:00,16.3,9.8,29.00,WSW,257,3.6,5.4,75,0.00,,---,0.00,VWS V14.01,2013-02-03 06:07:00,
2013-02-03 01:08:00,20.3,14.6,28.94,North,10,3.1,3.6,78,0.00,,---,0.00,VWS V14.01,2013-02-03 06:08:00,
2013-02-03 01:09:00,16.3,9.8,29.00,WSW,239,3.1,4.0,75,0.00,,---,0.00,VWS V14.01,2013-02-03 06:09:00,
2013-02-03 01:11:00,16.3,9.8,29.00,WSW,239,0.0,3.6,75,0.00,,---,0.00,VWS V14.01,2013-02-03 06:11:00,
2013-02-03 01:12:00,16.3,9.8,29.00,WSW,239,0.0,0.0,75,0.00,,---,0.00,VWS V14.01,2013-02-03 06:12:00,
2013-02-03 01:13:00,19.9,14.2,28.91,NW,317,6.3,6.3,78,0.00,,---,0.00,VWS V14.01,2013-02-03 06:13:00,
2013-02-03 01:14:00,16.3,9.8,29.00,WSW,239,3.1,4.0,75,0.00,,---,0.00,VWS V14.01,2013-02-03 06:14:00,
2013-02-03 01:15:00,16.2,9.6,29.00,WSW,239,0.0,3.6,75,0.00,,---,0.00,VWS V14.01,2013-02-03 06:15:00,
2013-02-03 01:16:00,16.2,9.6,29.00,WSW,239,4.5,4.9,75,0.00,,---,0.00,VWS V14.01,2013-02-03 06:16:00,
2013-02-03 01:17:00,16.2,9.6,29.00,SW,235,2.7,6.3,75,0.00,,---,0.00,VWS V14.01,2013-02-03 06:17:00,
2013-02-03 01:18:00,16.2,9.6,29.00,SW,235,2.7,3.1,75,0.00,,---,0.00,VWS V14.01,2013-02-03 06:18:00,
2013-02-03 01:19:00,16.2,9.6,29.00,SW,229,4.9,4.9,75,0.00,,---,0.00,VWS V14.01,2013-02-03 06:19:00,
2013-02-03 01:20:00,16.0,9.5,29.00,SW,230,0.0,5.8,75,0.00,,---,0.00,VWS V14.01,2013-02-03 06:20:00,
2013-02-03 01:21:00,19.8,14.3,28.91,NW,318,5.4,5.4,79,0.00,,---,0.00,VWS V14.01,2013-02-03 06:21:00,
2013-02-03 01:22:00,16.0,9.5,28.97,SW,232,0.0,0.0,75,0.00,,---,0.00,VWS V14.01,2013-02-03 06:22:00,
2013-02-03 01:23:00,16.0,9.5,28.97,SW,232,4.0,4.0,75,0.00,,---,0.00,VWS V14.01,2013-02-03 06:23:00,
2013-02-03 01:24:00,16.0,9.5,28.97,SW,232,2.7,5.4,75,0.00,,---,0.00,VWS V14.01,2013-02-03 06:24:00,
2013-02-03 01:25:00,16.0,9.5,28.97,West,260,3.1,5.4,75,0.00,,---,0.00,VWS V14.01,2013-02-03 06:25:00,
2013-02-03 01:26:00,19.6,14.4,28.91,NW,319,3.6,6.9,80,0.00,,---,0.00,VWS V14.01,2013-02-03 06:26:00,
2013-02-03 01:27:00,16.0,9.8,28.97,West,262,0.0,2.7,76,0.00,,---,0.00,VWS V14.01,2013-02-03 06:27:00,
2013-02-03 01:28:00,16.0,9.8,28.97,West,262,2.7,3.6,76,0.00,,---,0.00,VWS V14.01,2013-02-03 06:28:00,
2013-02-03 01:29:00,16.0,9.8,28.97,West,261,2.7,4.5,76,0.00,,---,0.00,VWS V14.01,2013-02-03 06:29:00,
2013-02-03 01:30:00,16.0,9.8,28.97,West,262,0.0,3.6,76,0.00,,---,0.00,VWS V14.01,2013-02-03 06:30:00,
2013-02-03 01:31:00,19.2,14.1,28.91,NNW,334,4.5,5.4,80,0.00,,---,0.00,VWS V14.01,2013-02-03 06:31:00,
2013-02-03 01:32:00,16.0,9.8,28.97,West,262,0.0,3.1,76,0.00,,---,0.00,VWS V14.01,2013-02-03 06:32:00,
2013-02-03 01:33:00,16.0,9.8,28.97,West,262,2.7,4.0,76,0.00,,---,0.00,VWS V14.01,2013-02-03 06:33:00,
2013-02-03 01:34:00,16.0,9.8,28.97,West,262,4.0,4.0,76,0.00,,---,0.00,VWS V14.01,2013-02-03 06:34:00,
2013-02-03 01:35:00,15.8,9.6,28.97,West,262,0.0,4.5,76,0.00,,---,0.00,VWS V14.01,2013-02-03 06:35:00,
2013-02-03 01:36:00,18.9,13.7,28.91,WNW,287,5.8,6.9,80,0.00,,---,0.00,VWS V14.01,2013-02-03 06:36:00,
2013-02-03 01:37:00,15.8,9.6,29.00,West,261,0.0,4.0,76,0.00,,---,0.00,VWS V14.01,2013-02-03 06:37:00,
2013-02-03 01:38:00,15.8,9.6,29.00,West,261,3.1,3.1,76,0.00,,---,0.00,VWS V14.01,2013-02-03 06:38:00,
2013-02-03 01:39:00,15.8,9.6,29.00,West,261,0.0,3.1,76,0.00,,---,0.00,VWS V14.01,2013-02-03 06:39:00,
2013-02-03 01:40:00,15.8,9.6,29.00,West,261,0.0,0.0,76,0.00,,---,0.00,VWS V14.01,2013-02-03 06:40:00,
2013-02-03 01:41:00,18.7,13.6,28.91,NW,310,5.8,8.3,80,0.00,,---,0.00,VWS V14.01,2013-02-03 06:41:00,
2013-02-03 01:42:00,15.6,9.4,29.00,West,261,0.0,3.1,76,0.00,,---,0.00,VWS V14.01,2013-02-03 06:42:00,
2013-02-03 01:43:00,15.6,9.4,29.00,West,261,0.0,0.0,76,0.00,,---,0.00,VWS V14.01,2013-02-03 06:43:00,
2013-02-03 01:44:00,15.6,9.4,29.00,West,261,0.0,0.0,76,0.00,,---,0.00,VWS V14.01,2013-02-03 06:44:00,
2013-02-03 01:45:00,15.6,9.4,29.00,West,261,0.0,4.0,76,0.00,,---,0.00,VWS V14.01,2013-02-03 06:45:00,
2013-02-03 01:46:00,18.7,13.6,28.91,NW,312,4.0,6.7,80,0.00,,---,0.00,VWS V14.01,2013-02-03 06:46:00,
2013-02-03 01:47:00,15.6,9.4,29.00,West,261,0.0,3.1,76,0.00,,---,0.00,VWS V14.01,2013-02-03 06:47:00,
2013-02-03 01:48:00,15.4,9.2,29.00,West,261,3.6,3.6,76,0.00,,---,0.00,VWS V14.01,2013-02-03 06:48:00,
2013-02-03 01:49:00,15.4,9.2,29.00,West,261,0.0,3.6,76,0.00,,---,0.00,VWS V14.01,2013-02-03 06:49:00,
2013-02-03 01:50:00,15.4,9.2,29.00,West,261,0.0,0.0,76,0.00,,---,0.00,VWS V14.01,2013-02-03 06:50:00,
2013-02-03 01:51:00,18.7,13.6,28.91,West,281,5.8,6.3,80,0.00,,---,0.00,VWS V14.01,2013-02-03 06:51:00,
2013-02-03 01:52:00,15.4,9.2,29.00,West,261,0.0,3.6,76,0.00,,---,0.00,VWS V14.01,2013-02-03 06:52:00,
2013-02-03 01:53:00,15.4,9.2,29.00,West,261,4.0,4.0,76,0.00,,---,0.00,VWS V14.01,2013-02-03 06:53:00,
2013-02-03 01:54:00,15.4,9.2,29.00,West,261,0.0,4.0,76,0.00,,---,0.00,VWS V14.01,2013-02-03 06:54:00,
2013-02-03 01:55:00,15.4,9.2,29.00,West,261,0.0,0.0,76,0.00,,---,0.00,VWS V14.01,2013-02-03 06:55:00,
2013-02-03 01:56:00,18.5,13.4,28.91,NW,307,3.1,4.9,80,0.00,,---,0.00,VWS V14.01,2013-02-03 06:56:00,
2013-02-03 01:57:00,15.3,9.1,29.00,West,261,0.0,0.0,76,0.00,,---,0.00,VWS V14.01,2013-02-03 06:57:00,
2013-02-03 01:58:00,15.3,9.1,29.00,West,261,0.0,3.1,76,0.00,,---,0.00,VWS V14.01,2013-02-03 06:58:00,
2013-02-03 01:59:00,15.3,9.1,29.00,West,261,0.0,0.0,76,0.00,,---,0.00,VWS V14.01,2013-02-03 06:59:00,
2013-02-03 02:00:00,15.3,9.1,29.00,West,261,0.0,0.0,76,0.00,,---,0.00,VWS V14.01,2013-02-03 07:00:00,
2013-02-03 02:01:00,18.3,13.5,28.91,WNW,297,6.9,8.3,81,0.00,,---,0.00,VWS V14.01,2013-02-03 07:01:00,
2013-02-03 02:02:00,15.3,9.1,29.00,West,261,0.0,0.0,76,0.00,,---,0.00,VWS V14.01,2013-02-03 07:02:00,
2013-02-03 02:03:00,15.3,9.1,29.00,West,261,0.0,0.0,76,0.00,,---,0.00,VWS V14.01,2013-02-03 07:03:00,
2013-02-03 02:04:00,15.3,9.1,29.00,West,261,0.0,0.0,76,0.00,,---,0.00,VWS V14.01,2013-02-03 07:04:00,
2013-02-03 02:05:00,15.3,9.1,29.00,West,261,0.0,0.0,76,0.00,,---,0.00,VWS V14.01,2013-02-03 07:05:00,
2013-02-03 02:06:00,18.3,13.2,28.91,WNW,287,3.6,6.3,80,0.00,,---,0.00,VWS V14.01,2013-02-03 07:06:00,
2013-02-03 02:07:00,15.3,9.1,29.00,West,261,0.0,0.0,76,0.00,,---,0.00,VWS V14.01,2013-02-03 07:07:00,
2013-02-03 02:08:00,15.3,9.1,29.00,West,261,0.0,0.0,76,0.00,,---,0.00,VWS V14.01,2013-02-03 07:08:00,
2013-02-03 02:09:00,15.3,9.1,29.00,West,261,0.0,0.0,76,0.00,,---,0.00,VWS V14.01,2013-02-03 07:09:00,
2013-02-03 02:10:00,15.3,9.1,29.00,West,261,0.0,0.0,76,0.00,,---,0.00,VWS V14.01,2013-02-03 07:10:00,
2013-02-03 02:11:00,18.3,13.2,28.91,WNW,299,6.3,8.3,80,0.00,,---,0.00,VWS V14.01,2013-02-03 07:11:00,
2013-02-03 02:12:00,15.4,9.2,29.00,West,261,0.0,0.0,76,0.00,,---,0.00,VWS V14.01,2013-02-03 07:12:00,
2013-02-03 02:13:00,15.4,9.2,29.00,West,261,0.0,0.0,76,0.00,,---,0.00,VWS V14.01,2013-02-03 07:13:00,
2013-02-03 02:14:00,15.4,9.2,29.00,West,261,0.0,0.0,76,0.00,,---,0.00,VWS V14.01,2013-02-03 07:14:00,
2013-02-03 02:15:00,15.6,9.4,29.00,West,261,0.0,0.0,76,0.00,,---,0.00,VWS V14.01,2013-02-03 07:15:00,
2013-02-03 02:16:00,15.6,9.4,29.00,West,261,0.0,0.0,76,0.00,,---,0.00,VWS V14.01,2013-02-03 07:16:00,
2013-02-03 02:17:00,18.1,12.7,28.91,NW,308,6.3,6.3,79,0.00,,---,0.00,VWS V14.01,2013-02-03 07:17:00,
2013-02-03 02:18:00,15.6,9.7,29.00,West,261,0.0,3.1,77,0.00,,---,0.00,VWS V14.01,2013-02-03 07:18:00,
2013-02-03 02:19:00,15.6,9.7,29.00,West,261,0.0,0.0,77,0.00,,---,0.00,VWS V14.01,2013-02-03 07:19:00,
2013-02-03 02:20:00,15.8,9.9,29.00,West,261,3.6,3.6,77,0.00,,---,0.00,VWS V14.01,2013-02-03 07:20:00,
2013-02-03 02:21:00,15.8,9.9,29.00,West,261,0.0,3.6,77,0.00,,---,0.00,VWS V14.01,2013-02-03 07:21:00,
2013-02-03 02:22:00,18.0,12.6,28.91,WNW,292,5.4,5.8,79,0.00,,---,0.00,VWS V14.01,2013-02-03 07:22:00,
2013-02-03 02:23:00,15.8,9.9,29.00,West,261,0.0,0.0,77,0.00,,---,0.00,VWS V14.01,2013-02-03 07:23:00,
2013-02-03 02:24:00,15.8,9.9,29.00,West,261,3.1,3.1,77,0.00,,---,0.00,VWS V14.01,2013-02-03 07:24:00,
2013-02-03 02:25:00,16.0,10.1,29.00,West,261,0.0,3.6,77,0.00,,---,0.00,VWS V14.01,2013-02-03 07:25:00,
2013-02-03 02:26:00,16.0,10.1,29.00,West,261,3.1,3.6,77,0.00,,---,0.00,VWS V14.01,2013-02-03 07:26:00,
2013-02-03 02:27:00,18.0,12.6,28.91,NW,313,4.9,6.3,79,0.00,,---,0.00,VWS V14.01,2013-02-03 07:27:00,
2013-02-03 02:28:00,16.0,10.1,29.00,West,261,3.1,4.5,77,0.00,,---,0.00,VWS V14.01,2013-02-03 07:28:00,
2013-02-03 02:29:00,16.2,10.2,29.00,West,261,3.6,4.0,77,0.00,,---,0.00,VWS V14.01,2013-02-03 07:29:00,
2013-02-03 02:30:00,16.2,10.2,29.00,West,261,0.0,3.6,77,0.00,,---,0.00,VWS V14.01,2013-02-03 07:30:00,
2013-02-03 02:31:00,16.3,10.4,29.00,West,261,0.0,2.7,77,0.00,,---,0.00,VWS V14.01,2013-02-03 07:31:00,
2013-02-03 02:32:00,18.0,12.6,28.91,WNW,287,4.9,6.9,79,0.00,,---,0.00,VWS V14.01,2013-02-03 07:32:00,
2013-02-03 02:33:00,16.3,10.4,29.00,West,261,3.1,3.1,77,0.00,,---,0.00,VWS V14.01,2013-02-03 07:33:00,
2013-02-03 02:34:00,16.3,10.4,29.00,West,261,3.6,4.0,77,0.00,,---,0.00,VWS V14.01,2013-02-03 07:34:00,
2013-02-03 02:35:00,16.3,10.4,29.00,WSW,242,3.1,4.9,77,0.00,,---,0.00,VWS V14.01,2013-02-03 07:35:00,
2013-02-03 02:36:00,16.5,10.6,29.00,WSW,242,2.7,3.1,77,0.00,,---,0.00,VWS V14.01,2013-02-03 07:36:00,
2013-02-03 02:37:00,18.0,12.6,28.91,WNW,292,6.7,8.3,79,0.00,,---,0.00,VWS V14.01,2013-02-03 07:37:00,
2013-02-03 02:38:00,16.5,10.9,29.00,SW,231,3.1,4.5,78,0.00,,---,0.00,VWS V14.01,2013-02-03 07:38:00,
2013-02-03 02:39:00,16.5,10.9,29.00,SW,231,4.0,4.0,78,0.00,,---,0.00,VWS V14.01,2013-02-03 07:39:00,
2013-02-03 02:40:00,16.5,10.9,29.00,SW,216,4.0,5.4,78,0.00,,---,0.00,VWS V14.01,2013-02-03 07:40:00,
2013-02-03 02:41:00,16.5,10.9,29.00,SW,215,3.1,4.0,78,0.00,,---,0.00,VWS V14.01,2013-02-03 07:41:00,
2013-02-03 02:42:00,17.6,12.2,28.91,WNW,288,5.4,6.3,79,0.00,,---,0.00,VWS V14.01,2013-02-03 07:42:00,
2013-02-03 02:43:00,16.7,11.1,29.00,SW,215,3.1,4.0,78,0.00,,---,0.00,VWS V14.01,2013-02-03 07:43:00,
2013-02-03 02:44:00,16.7,11.1,29.00,SW,215,3.6,4.5,78,0.00,,---,0.00,VWS V14.01,2013-02-03 07:44:00,
2013-02-03 02:45:00,16.7,10.8,29.00,SW,215,3.1,3.6,77,0.00,,---,0.00,VWS V14.01,2013-02-03 07:45:00,
2013-02-03 02:46:00,16.7,10.8,29.00,SW,216,3.1,4.0,77,0.00,,---,0.00,VWS V14.01,2013-02-03 07:46:00,
2013-02-03 02:47:00,17.6,12.2,28.91,WNW,303,5.4,7.8,79,0.00,,---,0.00,VWS V14.01,2013-02-03 07:47:00,
2013-02-03 02:48:00,16.7,10.8,29.00,SW,216,3.6,3.6,77,0.00,,---,0.00,VWS V14.01,2013-02-03 07:48:00,
2013-02-03 02:49:00,16.9,10.9,29.00,SW,216,2.7,4.5,77,0.00,,---,0.00,VWS V14.01,2013-02-03 07:49:00,
2013-02-03 02:50:00,16.9,10.9,29.00,SW,216,0.0,4.0,77,0.00,,---,0.00,VWS V14.01,2013-02-03 07:50:00,
2013-02-03 02:51:00,16.9,10.9,28.97,SW,216,3.6,4.0,77,0.00,,---,0.00,VWS V14.01,2013-02-03 07:51:00,
2013-02-03 02:52:00,17.6,12.2,28.91,WNW,290,5.4,5.8,79,0.00,,---,0.00,VWS V14.01,2013-02-03 07:52:00,
2013-02-03 02:53:00,16.9,10.9,28.97,SW,216,0.0,3.1,77,0.00,,---,0.00,VWS V14.01,2013-02-03 07:53:00,
2013-02-03 02:54:00,16.9,10.9,28.97,SW,216,2.7,4.0,77,0.00,,---,0.00,VWS V14.01,2013-02-03 07:54:00,
2013-02-03 02:55:00,17.1,11.1,28.97,SW,216,3.1,4.0,77,0.00,,---,0.00,VWS V14.01,2013-02-03 07:55:00,
2013-02-03 02:56:00,17.1,11.1,28.97,SW,216,3.6,3.6,77,0.00,,---,0.00,VWS V14.01,2013-02-03 07:56:00,
2013-02-03 02:57:00,17.8,12.4,28.91,WNW,300,3.1,4.5,79,0.00,,---,0.00,VWS V14.01,2013-02-03 07:57:00,
2013-02-03 02:58:00,17.2,11.3,28.97,SW,216,0.0,3.6,77,0.00,,---,0.00,VWS V14.01,2013-02-03 07:58:00,
2013-02-03 02:59:00,17.2,11.3,28.97,SW,216,3.6,3.6,77,0.00,,---,0.00,VWS V14.01,2013-02-03 07:59:00,
2013-02-03 03:00:00,17.2,11.3,28.97,SW,216,0.0,4.0,77,0.00,,---,0.00,VWS V14.01,2013-02-03 08:00:00,
2013-02-03 03:01:00,17.2,11.3,28.97,SW,216,3.6,3.6,77,0.00,,---,0.00,VWS V14.01,2013-02-03 08:01:00,
2013-02-03 03:02:00,17.8,12.7,28.91,WNW,283,9.6,9.6,80,0.00,,---,0.00,VWS V14.01,2013-02-03 08:02:00,
2013-02-03 03:03:00,17.4,11.5,28.97,SW,216,0.0,3.1,77,0.00,,---,0.00,VWS V14.01,2013-02-03 08:03:00,
2013-02-03 03:04:00,17.4,11.5,28.97,SW,216,0.0,0.0,77,0.00,,---,0.00,VWS V14.01,2013-02-03 08:04:00,
2013-02-03 03:05:00,17.4,11.5,28.97,SW,216,2.7,4.5,77,0.00,,---,0.00,VWS V14.01,2013-02-03 08:05:00,
2013-02-03 03:06:00,17.4,11.5,28.97,SW,216,2.7,3.1,77,0.00,,---,0.00,VWS V14.01,2013-02-03 08:06:00,
2013-02-03 03:07:00,17.2,12.1,28.91,WNW,294,5.4,7.8,80,0.00,,---,0.00,VWS V14.01,2013-02-03 08:07:00,
2013-02-03 03:08:00,17.6,11.6,28.97,SW,216,0.0,4.0,77,0.00,,---,0.00,VWS V14.01,2013-02-03 08:08:00,
2013-02-03 03:09:00,17.6,11.6,28.97,SW,216,0.0,3.6,77,0.00,,---,0.00,VWS V14.01,2013-02-03 08:09:00,
2013-02-03 03:10:00,17.6,11.6,28.97,SW,216,2.7,4.0,77,0.00,,---,0.00,VWS V14.01,2013-02-03 08:10:00,
2013-02-03 03:11:00,17.6,11.6,28.97,SW,216,2.7,3.6,77,0.00,,---,0.00,VWS V14.01,2013-02-03 08:11:00,
2013-02-03 03:12:00,17.6,11.6,28.97,SW,216,0.0,3.1,77,0.00,,---,0.00,VWS V14.01,2013-02-03 08:12:00,
2013-02-03 03:13:00,17.1,12.0,28.91,NW,309,3.1,5.8,80,0.00,,---,0.00,VWS V14.01,2013-02-03 08:13:00,
2013-02-03 03:15:00,17.8,11.5,28.97,SW,216,0.0,2.7,76,0.00,,---,0.00,VWS V14.01,2013-02-03 08:15:00,
2013-02-03 03:16:00,18.0,11.7,28.97,SW,216,0.0,0.0,76,0.00,,---,0.00,VWS V14.01,2013-02-03 08:16:00,
2013-02-03 03:17:00,18.0,11.7,28.97,SW,216,3.1,3.6,76,0.00,,---,0.00,VWS V14.01,2013-02-03 08:17:00,
2013-02-03 03:18:00,16.7,11.6,28.91,WNW,297,6.3,7.4,80,0.00,,---,0.00,VWS V14.01,2013-02-03 08:18:00,
2013-02-03 03:19:00,18.0,11.7,28.97,SW,216,4.0,4.0,76,0.00,,---,0.00,VWS V14.01,2013-02-03 08:19:00,
2013-02-03 03:20:00,18.0,11.7,28.97,SW,216,4.5,4.5,76,0.00,,---,0.00,VWS V14.01,2013-02-03 08:20:00,
2013-02-03 03:21:00,18.0,11.7,28.97,SW,216,0.0,4.5,76,0.00,,---,0.00,VWS V14.01,2013-02-03 08:21:00,
2013-02-03 03:22:00,18.1,11.9,28.97,SW,216,0.0,0.0,76,0.00,,---,0.00,VWS V14.01,2013-02-03 08:22:00,
2013-02-03 03:23:00,16.7,11.6,28.91,West,271,4.5,8.7,80,0.00,,---,0.00,VWS V14.01,2013-02-03 08:23:00,
2013-02-03 03:24:00,18.1,11.9,28.97,SW,216,0.0,3.6,76,0.00,,---,0.00,VWS V14.01,2013-02-03 08:24:00,
2013-02-03 03:25:00,18.1,11.9,28.97,SW,216,2.7,2.7,76,0.00,,---,0.00,VWS V14.01,2013-02-03 08:25:00,
2013-02-03 03:26:00,18.1,11.9,28.97,SW,216,2.7,3.6,76,0.00,,---,0.00,VWS V14.01,2013-02-03 08:26:00,
2013-02-03 03:27:00,18.1,11.9,28.97,SW,216,3.6,4.9,76,0.00,,---,0.00,VWS V14.01,2013-02-03 08:27:00,
2013-02-03 03:28:00,16.7,11.9,28.91,West,267,6.3,6.3,81,0.00,,---,0.00,VWS V14.01,2013-02-03 08:28:00,
2013-02-03 03:29:00,18.1,11.6,28.97,SW,216,3.1,3.6,75,0.00,,---,0.00,VWS V14.01,2013-02-03 08:29:00,
2013-02-03 03:30:00,18.1,11.6,28.97,SW,216,2.7,4.5,75,0.00,,---,0.00,VWS V14.01,2013-02-03 08:30:00,
2013-02-03 03:31:00,18.1,11.6,28.97,SW,216,0.0,4.5,75,0.00,,---,0.00,VWS V14.01,2013-02-03 08:31:00,
2013-02-03 03:32:00,18.3,11.7,28.97,SW,216,3.1,3.1,75,0.00,,---,0.00,VWS V14.01,2013-02-03 08:32:00,
2013-02-03 03:33:00,18.3,11.7,28.97,SW,216,0.0,3.1,75,0.00,,---,0.00,VWS V14.01,2013-02-03 08:33:00,
2013-02-03 03:34:00,16.5,11.7,28.91,NW,316,4.9,6.7,81,0.00,,---,0.00,VWS V14.01,2013-02-03 08:34:00,
2013-02-03 03:35:00,18.3,11.7,28.97,SW,216,2.7,2.7,75,0.00,,---,0.00,VWS V14.01,2013-02-03 08:35:00,
2013-02-03 03:36:00,18.3,11.7,28.97,SW,216,0.0,2.7,75,0.00,,---,0.00,VWS V14.01,2013-02-03 08:36:00,
2013-02-03 03:37:00,18.3,11.7,28.97,SW,216,0.0,0.0,75,0.00,,---,0.00,VWS V14.01,2013-02-03 08:37:00,
2013-02-03 03:38:00,18.5,11.9,28.97,SW,216,0.0,2.7,75,0.00,,---,0.00,VWS V14.01,2013-02-03 08:38:00,
2013-02-03 03:39:00,18.5,11.9,28.97,SW,216,0.0,3.1,75,0.00,,---,0.00,VWS V14.01,2013-02-03 08:39:00,
2013-02-03 03:40:00,16.3,11.5,28.91,West,273,5.4,6.9,81,0.00,,---,0.00,VWS V14.01,2013-02-03 08:40:00,
2013-02-03 03:41:00,18.5,11.6,28.97,SW,216,0.0,2.7,74,0.00,,---,0.00,VWS V14.01,2013-02-03 08:41:00,
2013-02-03 03:42:00,18.5,11.6,28.97,SW,216,0.0,0.0,74,0.00,,---,0.00,VWS V14.01,2013-02-03 08:42:00,
2013-02-03 03:43:00,18.5,11.6,28.97,SW,216,0.0,0.0,74,0.00,,---,0.00,VWS V14.01,2013-02-03 08:43:00,
2013-02-03 03:44:00,18.5,11.6,28.97,SW,216,0.0,0.0,74,0.00,,---,0.00,VWS V14.01,2013-02-03 08:44:00,
2013-02-03 03:45:00,16.0,10.9,28.88,WNW,296,6.9,8.3,80,0.00,,---,0.00,VWS V14.01,2013-02-03 08:45:00,
2013-02-03 03:46:00,18.5,11.6,28.97,SW,216,0.0,2.7,74,0.00,,---,0.00,VWS V14.01,2013-02-03 08:46:00,
2013-02-03 03:47:00,18.5,11.6,28.97,SW,216,0.0,0.0,74,0.00,,---,0.00,VWS V14.01,2013-02-03 08:47:00,
2013-02-03 03:48:00,18.5,11.6,28.97,SW,216,0.0,2.7,74,0.00,,---,0.00,VWS V14.01,2013-02-03 08:48:00,
2013-02-03 03:49:00,18.5,11.6,28.97,WSW,242,4.0,4.0,74,0.00,,---,0.00,VWS V14.01,2013-02-03 08:49:00,
2013-02-03 03:50:00,18.7,11.8,28.97,WSW,253,2.7,6.7,74,0.00,,---,0.00,VWS V14.01,2013-02-03 08:50:00,
2013-02-03 03:51:00,15.8,10.7,28.88,West,274,3.6,4.5,80,0.00,,---,0.00,VWS V14.01,2013-02-03 08:51:00,
2013-02-03 03:52:00,18.7,11.8,28.97,SW,230,0.0,4.5,74,0.00,,---,0.00,VWS V14.01,2013-02-03 08:52:00,
2013-02-03 03:53:00,18.7,11.8,28.97,SW,230,0.0,0.0,74,0.00,,---,0.00,VWS V14.01,2013-02-03 08:53:00,
2013-02-03 03:54:00,18.7,11.8,28.97,SW,230,0.0,0.0,74,0.00,,---,0.00,VWS V14.01,2013-02-03 08:54:00,
2013-02-03 03:55:00,18.7,11.8,28.97,WSW,252,0.0,4.5,74,0.00,,---,0.00,VWS V14.01,2013-02-03 08:55:00,
2013-02-03 03:56:00,18.9,12.0,28.97,WSW,251,0.0,2.7,74,0.00,,---,0.00,VWS V14.01,2013-02-03 08:56:00,
2013-02-03 03:57:00,15.6,10.6,28.88,West,265,4.9,6.7,80,0.00,,---,0.00,VWS V14.01,2013-02-03 08:57:00,
2013-02-03 03:58:00,18.9,12.0,28.97,WSW,241,3.1,4.5,74,0.00,,---,0.00,VWS V14.01,2013-02-03 08:58:00,
2013-02-03 03:59:00,18.9,12.0,28.97,WSW,241,3.1,4.0,74,0.00,,---,0.00,VWS V14.01,2013-02-03 08:59:00,
2013-02-03 04:00:00,18.9,12.0,28.97,WSW,241,2.7,3.1,74,0.00,,---,0.00,VWS V14.01,2013-02-03 09:00:00,
2013-02-03 04:01:00,18.9,12.0,28.97,WSW,241,3.6,3.6,74,0.00,,---,0.00,VWS V14.01,2013-02-03 09:01:00,
2013-02-03 04:02:00,15.6,10.3,28.88,NW,307,6.3,6.9,79,0.00,,---,0.00,VWS V14.01,2013-02-03 09:02:00,
2013-02-03 04:03:00,19.0,12.1,28.97,WSW,252,0.0,0.0,74,0.00,,---,0.00,VWS V14.01,2013-02-03 09:03:00,
2013-02-03 04:04:00,19.0,12.4,28.97,WSW,252,0.0,3.6,75,0.00,,---,0.00,VWS V14.01,2013-02-03 09:04:00,
2013-02-03 04:05:00,19.0,12.4,28.97,WSW,252,0.0,2.7,75,0.00,,---,0.00,VWS V14.01,2013-02-03 09:05:00,
2013-02-03 04:06:00,19.0,12.4,28.97,WSW,252,0.0,0.0,75,0.00,,---,0.00,VWS V14.01,2013-02-03 09:06:00,
2013-02-03 04:07:00,15.3,9.9,28.88,WNW,300,4.5,5.8,79,0.00,,---,0.00,VWS V14.01,2013-02-03 09:07:00,
2013-02-03 04:08:00,19.0,12.4,28.97,WSW,253,3.1,3.1,75,0.00,,---,0.00,VWS V14.01,2013-02-03 09:08:00,
2013-02-03 04:09:00,19.2,12.6,28.97,WSW,253,0.0,4.0,75,0.00,,---,0.00,VWS V14.01,2013-02-03 09:09:00,
2013-02-03 04:10:00,19.2,12.6,28.97,WSW,253,0.0,3.6,75,0.00,,---,0.00,VWS V14.01,2013-02-03 09:10:00,
2013-02-03 04:11:00,19.2,12.9,28.97,WSW,253,3.6,3.6,76,0.00,,---,0.00,VWS V14.01,2013-02-03 09:11:00,
2013-02-03 04:12:00,19.2,12.9,28.97,WSW,253,0.0,3.6,76,0.00,,---,0.00,VWS V14.01,2013-02-03 09:12:00,
2013-02-03 04:13:00,19.4,13.1,28.97,WSW,253,2.7,2.7,76,0.00,,---,0.00,VWS V14.01,2013-02-03 09:13:00,
2013-02-03 04:14:00,19.4,13.1,28.97,WSW,253,0.0,3.6,76,0.00,,---,0.00,VWS V14.01,2013-02-03 09:14:00,
2013-02-03 04:15:00,15.1,9.8,28.88,WNW,292,5.4,9.2,79,0.00,,---,0.00,VWS V14.01,2013-02-03 09:15:00,
2013-02-03 04:16:00,19.6,13.6,28.97,WSW,247,0.0,4.9,77,0.00,,---,0.00,VWS V14.01,2013-02-03 09:16:00,
2013-02-03 04:17:00,19.6,13.6,28.97,WSW,240,0.0,4.0,77,0.00,,---,0.00,VWS V14.01,2013-02-03 09:17:00,
2013-02-03 04:18:00,19.6,13.6,28.97,WSW,243,0.0,0.0,77,0.00,,---,0.00,VWS V14.01,2013-02-03 09:18:00,
2013-02-03 04:19:00,19.6,13.6,28.97,SW,230,3.6,5.4,77,0.00,,---,0.00,VWS V14.01,2013-02-03 09:19:00,
2013-02-03 04:20:00,14.9,9.6,28.88,West,266,6.9,6.9,79,0.00,,---,0.00,VWS V14.01,2013-02-03 09:20:00,
2013-02-03 04:21:00,19.8,14.0,28.97,WSW,254,4.5,6.7,78,0.00,,---,0.00,VWS V14.01,2013-02-03 09:21:00,
2013-02-03 04:22:00,19.8,14.0,28.97,WSW,252,4.9,6.3,78,0.00,,---,0.00,VWS V14.01,2013-02-03 09:22:00,
2013-02-03 04:23:00,19.8,14.0,28.97,WSW,252,4.5,5.4,78,0.00,,---,0.00,VWS V14.01,2013-02-03 09:23:00,
2013-02-03 04:24:00,19.8,14.0,28.97,WSW,252,4.9,4.9,78,0.00,,---,0.00,VWS V14.01,2013-02-03 09:24:00,
2013-02-03 04:25:00,14.9,9.6,28.88,WNW,283,4.9,8.3,79,0.00,,---,0.00,VWS V14.01,2013-02-03 09:25:00,
2013-02-03 04:26:00,19.8,14.3,28.97,West,262,5.4,6.3,79,0.00,,---,0.00,VWS V14.01,2013-02-03 09:26:00,
2013-02-03 04:27:00,19.8,14.3,28.97,WSW,238,4.0,5.8,79,0.00,,---,0.00,VWS V14.01,2013-02-03 09:27:00,
2013-02-03 04:28:00,19.8,14.3,28.97,WSW,258,4.9,5.4,79,0.00,,---,0.00,VWS V14.01,2013-02-03 09:28:00,
2013-02-03 04:29:00,19.8,14.3,28.97,WSW,257,0.0,4.9,79,0.00,,---,0.00,VWS V14.01,2013-02-03 09:29:00,
2013-02-03 04:30:00,14.9,9.6,28.88,NW,321,5.8,9.6,79,0.00,,---,0.00,VWS V14.01,2013-02-03 09:30:00,
2013-02-03 04:31:00,19.9,14.5,28.97,WSW,256,4.9,6.7,79,0.00,,---,0.00,VWS V14.01,2013-02-03 09:31:00,
2013-02-03 04:32:00,19.9,14.8,28.97,SW,234,4.5,7.4,80,0.00,,---,0.00,VWS V14.01,2013-02-03 09:32:00,
2013-02-03 04:33:00,19.9,14.8,28.97,SW,224,3.6,6.3,80,0.00,,---,0.00,VWS V14.01,2013-02-03 09:33:00,
2013-02-03 04:34:00,19.9,14.8,28.97,SW,228,4.0,5.4,80,0.00,,---,0.00,VWS V14.01,2013-02-03 09:34:00,
2013-02-03 04:35:00,14.7,9.4,28.88,WNW,297,4.9,8.3,79,0.00,,---,0.00,VWS V14.01,2013-02-03 09:35:00,
2013-02-03 04:36:00,19.9,14.8,28.97,WSW,249,5.4,5.4,80,0.00,,---,0.00,VWS V14.01,2013-02-03 09:36:00,
2013-02-03 04:37:00,19.9,14.8,28.97,SW,225,4.9,6.3,80,0.00,,---,0.00,VWS V14.01,2013-02-03 09:37:00,
2013-02-03 04:38:00,19.9,15.1,28.97,WSW,256,4.0,6.3,81,0.00,,---,0.00,VWS V14.01,2013-02-03 09:38:00,
2013-02-03 04:39:00,19.9,15.1,28.97,SW,226,3.6,6.7,81,0.00,,---,0.00,VWS V14.01,2013-02-03 09:39:00,
2013-02-03 04:40:00,14.7,9.4,28.88,NNW,333,2.7,4.9,79,0.00,,---,0.00,VWS V14.01,2013-02-03 09:40:00,
2013-02-03 04:41:00,19.9,15.1,28.97,WSW,243,3.1,4.0,81,0.00,,---,0.00,VWS V14.01,2013-02-03 09:41:00,
2013-02-03 04:42:00,19.9,15.1,28.97,SW,234,4.0,6.3,81,0.00,,---,0.00,VWS V14.01,2013-02-03 09:42:00,
2013-02-03 04:43:00,19.9,15.1,28.97,SW,233,4.0,4.5,81,0.00,,---,0.00,VWS V14.01,2013-02-03 09:43:00,
2013-02-03 04:44:00,19.9,15.1,28.97,West,274,6.3,6.3,81,0.00,,---,0.00,VWS V14.01,2013-02-03 09:44:00,
2013-02-03 04:45:00,14.7,9.4,28.88,NNW,328,4.5,5.4,79,0.00,,---,0.00,VWS V14.01,2013-02-03 09:45:00,
2013-02-03 04:46:00,19.9,15.3,28.97,WSW,240,3.1,4.5,82,0.00,,---,0.00,VWS V14.01,2013-02-03 09:46:00,
2013-02-03 04:47:00,19.9,15.3,28.97,SW,231,5.4,5.4,82,0.00,,---,0.00,VWS V14.01,2013-02-03 09:47:00,
2013-02-03 04:48:00,20.1,15.5,28.97,WSW,242,4.0,5.4,82,0.00,,---,0.00,VWS V14.01,2013-02-03 09:48:00,
2013-02-03 04:49:00,20.1,15.5,28.97,WSW,242,3.1,4.0,82,0.00,,---,0.00,VWS V14.01,2013-02-03 09:49:00,
2013-02-03 04:50:00,20.1,15.5,28.97,West,277,0.0,4.9,82,0.00,,---,0.00,VWS V14.01,2013-02-03 09:50:00,
2013-02-03 04:51:00,14.4,8.8,28.88,NW,307,8.3,8.7,78,0.00,,---,0.00,VWS V14.01,2013-02-03 09:51:00,
2013-02-03 04:52:00,20.1,15.5,28.97,West,277,0.0,0.0,82,0.00,,---,0.00,VWS V14.01,2013-02-03 09:52:00,
2013-02-03 04:53:00,20.1,15.5,28.97,West,261,0.0,3.6,82,0.00,,---,0.00,VWS V14.01,2013-02-03 09:53:00,
2013-02-03 04:54:00,20.1,15.8,28.97,SW,235,0.0,4.9,83,0.00,,---,0.00,VWS V14.01,2013-02-03 09:54:00,
2013-02-03 04:55:00,20.1,15.8,28.97,SW,235,4.5,4.5,83,0.00,,---,0.00,VWS V14.01,2013-02-03 09:55:00,
2013-02-03 04:56:00,14.4,8.8,28.88,WNW,286,4.9,7.4,78,0.00,,---,0.00,VWS V14.01,2013-02-03 09:56:00,
2013-02-03 04:57:00,20.1,15.8,28.97,SW,230,0.0,4.9,83,0.00,,---,0.00,VWS V14.01,2013-02-03 09:57:00,
2013-02-03 04:58:00,20.3,16.0,28.97,SW,230,0.0,0.0,83,0.00,,---,0.00,VWS V14.01,2013-02-03 09:58:00,
2013-02-03 04:59:00,20.3,16.0,28.97,SW,230,4.5,4.5,83,0.00,,---,0.00,VWS V14.01,2013-02-03 09:59:00,
2013-02-03 05:00:00,20.3,16.0,28.97,SW,230,3.6,4.5,83,0.00,,---,0.00,VWS V14.01,2013-02-03 10:00:00,
2013-02-03 05:01:00,14.4,8.8,28.88,WNW,300,3.1,6.7,78,0.00,,---,0.00,VWS V14.01,2013-02-03 10:01:00,
2013-02-03 05:02:00,20.3,16.2,28.97,SW,230,3.1,4.5,84,0.00,,---,0.00,VWS V14.01,2013-02-03 10:02:00,
2013-02-03 05:03:00,20.3,16.2,28.97,SW,230,0.0,3.6,84,0.00,,---,0.00,VWS V14.01,2013-02-03 10:03:00,
2013-02-03 05:04:00,20.3,16.2,28.97,SW,231,6.7,6.7,84,0.00,,---,0.00,VWS V14.01,2013-02-03 10:04:00,
2013-02-03 05:05:00,20.3,16.2,28.97,SSW,207,3.1,6.7,84,0.00,,---,0.00,VWS V14.01,2013-02-03 10:05:00,
2013-02-03 05:06:00,14.4,8.8,28.88,WNW,298,4.0,4.0,78,0.00,,---,0.00,VWS V14.01,2013-02-03 10:06:00,
2013-02-03 05:07:00,20.3,16.2,28.97,SW,220,3.6,4.5,84,0.00,,---,0.00,VWS V14.01,2013-02-03 10:07:00,
2013-02-03 05:08:00,20.3,16.2,28.97,SW,220,2.7,3.6,84,0.00,,---,0.00,VWS V14.01,2013-02-03 10:08:00,
2013-02-03 05:09:00,20.3,16.2,28.97,SW,220,0.0,3.1,84,0.00,,---,0.00,VWS V14.01,2013-02-03 10:09:00,
2013-02-03 05:10:00,20.3,16.2,28.97,SW,220,0.0,3.6,84,0.00,,---,0.00,VWS V14.01,2013-02-03 10:10:00,
2013-02-03 05:11:00,14.2,8.6,28.88,NW,304,6.3,7.8,78,0.00,,---,0.00,VWS V14.01,2013-02-03 10:11:00,
2013-02-03 05:12:00,20.5,16.7,28.97,SSW,200,0.0,4.0,85,0.00,,---,0.00,VWS V14.01,2013-02-03 10:12:00,
2013-02-03 05:13:00,20.5,16.7,28.97,SSW,200,0.0,0.0,85,0.00,,---,0.00,VWS V14.01,2013-02-03 10:13:00,
2013-02-03 05:14:00,20.5,16.7,28.97,SSW,200,0.0,0.0,85,0.00,,---,0.00,VWS V14.01,2013-02-03 10:14:00,
2013-02-03 05:15:00,20.5,16.7,28.97,SSW,200,2.7,3.1,85,0.00,,---,0.00,VWS V14.01,2013-02-03 10:15:00,
2013-02-03 05:16:00,14.2,8.6,28.88,WNW,296,4.9,6.7,78,0.00,,---,0.00,VWS V14.01,2013-02-03 10:16:00,
2013-02-03 05:17:00,20.5,16.7,28.97,SSW,200,0.0,3.6,85,0.00,,---,0.00,VWS V14.01,2013-02-03 10:17:00,
2013-02-03 05:18:00,20.5,16.7,28.97,SSW,200,0.0,0.0,85,0.00,,---,0.00,VWS V14.01,2013-02-03 10:18:00,
2013-02-03 05:19:00,20.5,16.7,28.97,SSW,200,0.0,0.0,85,0.00,,---,0.00,VWS V14.01,2013-02-03 10:19:00,
2013-02-03 05:20:00,20.5,16.7,28.97,SSW,200,0.0,0.0,85,0.00,,---,0.00,VWS V14.01,2013-02-03 10:20:00,
2013-02-03 05:21:00,14.0,8.4,28.88,NW,306,3.1,6.9,78,0.00,,---,0.00,VWS V14.01,2013-02-03 10:21:00,
2013-02-03 05:22:00,20.5,17.0,28.97,SSW,200,0.0,4.5,86,0.00,,---,0.00,VWS V14.01,2013-02-03 10:22:00,
2013-02-03 05:23:00,20.5,17.0,28.97,SSW,200,0.0,0.0,86,0.00,,---,0.00,VWS V14.01,2013-02-03 10:23:00,
2013-02-03 05:24:00,20.5,17.0,28.97,SSW,204,0.0,4.9,86,0.00,,---,0.00,VWS V14.01,2013-02-03 10:24:00,
2013-02-03 05:25:00,20.5,17.0,28.97,SSW,204,4.0,4.0,86,0.00,,---,0.00,VWS V14.01,2013-02-03 10:25:00,
2013-02-03 05:26:00,14.0,8.4,28.88,WNW,289,0.0,4.5,78,0.00,,---,0.00,VWS V14.01,2013-02-03 10:26:00,
2013-02-03 05:27:00,20.5,17.0,28.97,SW,223,4.5,4.9,86,0.00,,---,0.00,VWS V14.01,2013-02-03 10:27:00,
2013-02-03 05:28:00,20.5,17.0,28.97,SW,223,4.9,4.9,86,0.00,,---,0.00,VWS V14.01,2013-02-03 10:28:00,
2013-02-03 05:29:00,20.5,17.0,28.97,SW,223,0.0,4.9,86,0.00,,---,0.00,VWS V14.01,2013-02-03 10:29:00,
2013-02-03 05:30:00,20.5,17.0,28.97,SW,223,0.0,0.0,86,0.00,,---,0.00,VWS V14.01,2013-02-03 10:30:00,
2013-02-03 05:31:00,13.8,8.2,28.88,WNW,293,3.1,4.5,78,0.00,,---,0.00,VWS V14.01,2013-02-03 10:31:00,
2013-02-03 05:32:00,20.5,17.0,28.97,SW,223,4.9,4.9,86,0.00,,---,0.00,VWS V14.01,2013-02-03 10:32:00,
2013-02-03 05:33:00,20.5,17.0,28.97,SW,223,3.1,5.4,86,0.00,,---,0.00,VWS V14.01,2013-02-03 10:33:00,
2013-02-03 05:34:00,20.5,17.0,28.97,SW,223,4.0,4.9,86,0.00,,---,0.00,VWS V14.01,2013-02-03 10:34:00,
2013-02-03 05:35:00,20.5,17.0,28.97,SW,223,3.1,4.5,86,0.00,,---,0.00,VWS V14.01,2013-02-03 10:35:00,
2013-02-03 05:36:00,20.5,17.0,28.94,SW,215,4.5,4.9,86,0.00,,---,0.00,VWS V14.01,2013-02-03 10:36:00,
2013-02-03 05:37:00,14.0,8.4,28.88,WNW,296,3.6,4.9,78,0.00,,---,0.00,VWS V14.01,2013-02-03 10:37:00,
2013-02-03 05:38:00,20.3,16.8,28.94,SW,224,2.7,6.7,86,0.00,,---,0.00,VWS V14.01,2013-02-03 10:38:00,
2013-02-03 05:39:00,20.3,16.8,28.94,WSW,248,4.9,6.3,86,0.00,,---,0.00,VWS V14.01,2013-02-03 10:39:00,
2013-02-03 05:40:00,20.3,17.1,28.94,SSW,212,4.0,6.9,87,0.00,,---,0.00,VWS V14.01,2013-02-03 10:40:00,
2013-02-03 05:41:00,20.3,17.1,28.94,SSW,198,5.4,5.8,87,0.00,,---,0.00,VWS V14.01,2013-02-03 10:41:00,
2013-02-03 05:42:00,20.3,17.1,28.94,WSW,238,4.9,6.3,87,0.00,,---,0.00,VWS V14.01,2013-02-03 10:42:00,
2013-02-03 05:43:00,13.6,8.1,28.85,WNW,296,0.0,2.7,78,0.00,,---,0.00,VWS V14.01,2013-02-03 10:43:00,
2013-02-03 05:44:00,20.3,17.1,28.94,SW,227,3.6,4.5,87,0.00,,---,0.00,VWS V14.01,2013-02-03 10:44:00,
2013-02-03 05:45:00,20.3,17.1,28.94,SW,227,4.5,4.5,87,0.00,,---,0.00,VWS V14.01,2013-02-03 10:45:00,
2013-02-03 05:46:00,20.3,17.1,28.94,SW,226,0.0,4.5,87,0.00,,---,0.00,VWS V14.01,2013-02-03 10:46:00,
2013-02-03 05:47:00,20.3,17.1,28.94,SW,226,0.0,0.0,87,0.00,,---,0.00,VWS V14.01,2013-02-03 10:47:00,
2013-02-03 05:48:00,13.6,8.1,28.85,WNW,298,5.8,6.9,78,0.00,,---,0.00,VWS V14.01,2013-02-03 10:48:00,
2013-02-03 05:49:00,20.3,17.1,28.94,SW,219,2.7,4.5,87,0.00,,---,0.00,VWS V14.01,2013-02-03 10:49:00,
2013-02-03 05:50:00,20.3,17.1,28.94,SW,219,0.0,4.5,87,0.00,,---,0.00,VWS V14.01,2013-02-03 10:50:00,
2013-02-03 05:51:00,20.3,17.1,28.94,SW,219,0.0,0.0,87,0.00,,---,0.00,VWS V14.01,2013-02-03 10:51:00,
2013-02-03 05:52:00,20.3,17.1,28.94,SW,219,0.0,4.5,87,0.00,,---,0.00,VWS V14.01,2013-02-03 10:52:00,
2013-02-03 05:53:00,13.5,7.9,28.85,West,281,3.6,6.9,78,0.00,,---,0.00,VWS V14.01,2013-02-03 10:53:00,
2013-02-03 05:54:00,20.3,17.1,28.94,SW,219,0.0,4.0,87,0.00,,---,0.00,VWS V14.01,2013-02-03 10:54:00,
2013-02-03 05:55:00,20.3,17.1,28.94,SW,219,0.0,0.0,87,0.00,,---,0.00,VWS V14.01,2013-02-03 10:55:00,
2013-02-03 05:56:00,20.3,17.1,28.94,SW,219,0.0,0.0,87,0.00,,---,0.00,VWS V14.01,2013-02-03 10:56:00,
2013-02-03 05:57:00,20.3,17.1,28.94,SW,219,2.7,2.7,87,0.00,,---,0.00,VWS V14.01,2013-02-03 10:57:00,
2013-02-03 05:58:00,20.5,17.2,28.94,SW,219,0.0,3.1,87,0.00,,---,0.00,VWS V14.01,2013-02-03 10:58:00,
2013-02-03 05:59:00,13.5,7.9,28.85,West,271,6.7,6.7,78,0.00,,---,0.00,VWS V14.01,2013-02-03 10:59:00,
2013-02-03 06:00:00,20.5,17.2,28.94,SW,219,0.0,0.0,87,0.00,,---,0.00,VWS V14.01,2013-02-03 11:00:00,
2013-02-03 06:01:00,20.5,17.2,28.94,SW,219,0.0,0.0,87,0.00,,---,0.00,VWS V14.01,2013-02-03 11:01:00,
2013-02-03 06:02:00,20.5,17.2,28.94,SW,219,0.0,0.0,87,0.00,,---,0.00,VWS V14.01,2013-02-03 11:02:00,
2013-02-03 06:03:00,20.5,17.2,28.94,SW,219,0.0,3.1,87,0.00,,---,0.00,VWS V14.01,2013-02-03 11:03:00,
2013-02-03 06:04:00,20.5,17.2,28.94,SW,219,0.0,0.0,87,0.00,,---,0.00,VWS V14.01,2013-02-03 11:04:00,
2013-02-03 06:05:00,13.3,7.7,28.85,NW,309,5.4,6.9,78,0.00,,---,0.00,VWS V14.01,2013-02-03 11:05:00,
2013-02-03 06:06:00,20.5,17.2,28.94,SSW,211,3.1,4.0,87,0.00,,---,0.00,VWS V14.01,2013-02-03 11:06:00,
2013-02-03 06:07:00,20.5,17.2,28.94,SSW,211,0.0,3.1,87,0.00,,---,0.00,VWS V14.01,2013-02-03 11:07:00,
2013-02-03 06:08:00,20.5,17.2,28.94,South,190,3.1,5.4,87,0.00,,---,0.00,VWS V14.01,2013-02-03 11:08:00,
2013-02-03 06:09:00,20.5,17.2,28.94,South,191,0.0,3.1,87,0.00,,---,0.00,VWS V14.01,2013-02-03 11:09:00,
2013-02-03 06:10:00,20.5,17.2,28.94,South,175,2.7,4.0,87,0.00,,---,0.00,VWS V14.01,2013-02-03 11:10:00,
2013-02-03 06:11:00,20.5,17.2,28.94,South,175,0.0,2.7,87,0.00,,---,0.00,VWS V14.01,2013-02-03 11:11:00,
2013-02-03 06:12:00,13.1,7.5,28.88,WNW,295,0.0,5.4,78,0.00,,---,0.00,VWS V14.01,2013-02-03 11:12:00,
2013-02-03 06:13:00,20.5,17.2,28.94,South,175,0.0,2.7,87,0.00,,---,0.00,VWS V14.01,2013-02-03 11:13:00,
2013-02-03 06:14:00,20.5,17.2,28.94,South,169,0.0,4.0,87,0.00,,---,0.00,VWS V14.01,2013-02-03 11:14:00,
2013-02-03 06:15:00,20.5,17.2,28.94,South,169,0.0,0.0,87,0.00,,---,0.00,VWS V14.01,2013-02-03 11:15:00,
2013-02-03 06:16:00,20.5,17.2,28.94,South,169,3.1,3.6,87,0.00,,---,0.00,VWS V14.01,2013-02-03 11:16:00,
2013-02-03 06:17:00,13.1,7.5,28.88,WNW,289,4.9,6.7,78,0.00,,---,0.00,VWS V14.01,2013-02-03 11:17:00,
2013-02-03 06:18:00,20.5,17.2,28.94,South,173,4.5,4.5,87,0.00,,---,0.00,VWS V14.01,2013-02-03 11:18:00,
2013-02-03 06:19:00,20.5,17.2,28.94,SSE,160,4.5,5.4,87,0.00,,---,0.00,VWS V14.01,2013-02-03 11:19:00,
2013-02-03 06:20:00,20.5,17.2,28.94,South,184,3.6,4.9,87,0.00,,---,0.00,VWS V14.01,2013-02-03 11:20:00,
2013-02-03 06:21:00,20.5,17.2,28.91,South,175,0.0,4.0,87,0.00,,---,0.00,VWS V14.01,2013-02-03 11:21:00,
2013-02-03 06:22:00,20.5,17.2,28.91,South,175,0.0,3.6,87,0.00,,---,0.00,VWS V14.01,2013-02-03 11:22:00,
2013-02-03 06:23:00,13.1,7.5,28.88,West,272,4.9,6.9,78,0.00,,---,0.00,VWS V14.01,2013-02-03 11:23:00,
2013-02-03 06:24:00,20.5,17.2,28.91,South,172,3.6,4.9,87,0.00,,---,0.00,VWS V14.01,2013-02-03 11:24:00,
2013-02-03 06:25:00,20.5,17.2,28.91,SSE,164,2.7,5.8,87,0.00,,---,0.00,VWS V14.01,2013-02-03 11:25:00,
2013-02-03 06:26:00,20.5,17.2,28.91,SSE,164,0.0,2.7,87,0.00,,---,0.00,VWS V14.01,2013-02-03 11:26:00,
2013-02-03 06:27:00,20.5,17.2,28.91,South,171,4.0,4.9,87,0.00,,---,0.00,VWS V14.01,2013-02-03 11:27:00,
2013-02-03 06:28:00,20.5,17.2,28.91,South,170,4.5,5.4,87,0.00,,---,0.00,VWS V14.01,2013-02-03 11:28:00,
2013-02-03 06:29:00,12.9,7.4,28.88,NW,306,3.6,4.9,78,0.00,,---,0.00,VWS V14.01,2013-02-03 11:29:00,
2013-02-03 06:30:00,20.5,17.2,28.91,South,171,3.6,4.9,87,0.00,,---,0.00,VWS V14.01,2013-02-03 11:30:00,
2013-02-03 06:31:00,20.5,17.2,28.91,SSE,166,4.0,4.5,87,0.00,,---,0.00,VWS V14.01,2013-02-03 11:31:00,
2013-02-03 06:32:00,20.5,17.2,28.91,SSE,166,2.7,4.5,87,0.00,,---,0.00,VWS V14.01,2013-02-03 11:32:00,
2013-02-03 06:33:00,20.5,17.2,28.91,SSE,166,0.0,4.0,87,0.00,,---,0.00,VWS V14.01,2013-02-03 11:33:00,
2013-02-03 06:34:00,13.1,7.5,28.88,West,271,3.6,4.5,78,0.00,,---,0.00,VWS V14.01,2013-02-03 11:34:00,
2013-02-03 06:35:00,20.5,17.2,28.91,South,169,3.6,4.9,87,0.00,,---,0.00,VWS V14.01,2013-02-03 11:35:00,
2013-02-03 06:36:00,20.7,17.4,28.91,South,169,4.0,4.0,87,0.00,,---,0.00,VWS V14.01,2013-02-03 11:36:00,
2013-02-03 06:37:00,20.7,17.4,28.91,South,169,0.0,4.0,87,0.00,,---,0.00,VWS V14.01,2013-02-03 11:37:00,
2013-02-03 06:38:00,20.7,17.4,28.91,South,169,0.0,0.0,87,0.00,,---,0.00,VWS V14.01,2013-02-03 11:38:00,
2013-02-03 06:39:00,12.9,7.4,28.88,WNW,289,2.7,4.9,78,0.00,,---,0.00,VWS V14.01,2013-02-03 11:39:00,
2013-02-03 06:40:00,20.7,17.4,28.91,South,169,0.0,0.0,87,0.00,,---,0.00,VWS V14.01,2013-02-03 11:40:00,
2013-02-03 06:41:00,20.7,17.4,28.91,South,169,0.0,0.0,87,0.00,,---,0.00,VWS V14.01,2013-02-03 11:41:00,
2013-02-03 06:42:00,20.7,17.4,28.91,South,169,0.0,3.6,87,0.00,,---,0.00,VWS V14.01,2013-02-03 11:42:00,
2013-02-03 06:43:00,20.8,17.3,28.91,South,169,0.0,2.7,86,0.00,,---,0.00,VWS V14.01,2013-02-03 11:43:00,
2013-02-03 06:44:00,12.9,7.4,28.88,WNW,284,4.9,4.9,78,0.00,,---,0.00,VWS V14.01,2013-02-03 11:44:00,
2013-02-03 06:45:00,20.8,17.3,28.91,South,169,4.0,4.5,86,0.00,,---,0.00,VWS V14.01,2013-02-03 11:45:00,
2013-02-03 06:46:00,20.8,17.3,28.91,South,169,3.1,5.4,86,0.00,,---,0.00,VWS V14.01,2013-02-03 11:46:00,
2013-02-03 06:47:00,20.8,17.3,28.91,South,169,0.0,4.0,86,0.00,,---,0.00,VWS V14.01,2013-02-03 11:47:00,
2013-02-03 06:48:00,20.8,17.3,28.91,South,169,0.0,4.0,86,0.00,,---,0.00,VWS V14.01,2013-02-03 11:48:00,
2013-02-03 06:49:00,13.1,7.5,28.88,WSW,254,4.0,5.4,78,0.00,,---,0.00,VWS V14.01,2013-02-03 11:49:00,
2013-02-03 06:50:00,20.8,17.3,28.91,South,169,3.1,3.6,86,0.00,,---,0.00,VWS V14.01,2013-02-03 11:50:00,
2013-02-03 06:51:00,20.8,17.3,28.91,South,169,4.0,6.3,86,0.00,,---,0.00,VWS V14.01,2013-02-03 11:51:00,
2013-02-03 06:52:00,20.8,17.3,28.91,South,169,0.0,4.0,86,0.00,,---,0.00,VWS V14.01,2013-02-03 11:52:00,
2013-02-03 06:53:00,21.0,17.5,28.91,SE,145,4.0,4.9,86,0.00,,---,0.00,VWS V14.01,2013-02-03 11:53:00,
2013-02-03 06:54:00,13.1,7.5,28.88,West,269,4.0,6.7,78,0.00,,---,0.00,VWS V14.01,2013-02-03 11:54:00,
2013-02-03 06:55:00,21.0,17.2,28.91,SSE,165,2.7,4.5,85,0.00,,---,0.00,VWS V14.01,2013-02-03 11:55:00,
2013-02-03 06:56:00,21.0,17.2,28.91,SSE,165,0.0,4.0,85,0.00,,---,0.00,VWS V14.01,2013-02-03 11:56:00,
2013-02-03 06:57:00,21.0,17.2,28.91,SSE,165,0.0,3.1,85,0.00,,---,0.00,VWS V14.01,2013-02-03 11:57:00,
2013-02-03 06:58:00,21.0,17.2,28.91,SE,142,4.9,4.9,85,0.00,,---,0.00,VWS V14.01,2013-02-03 11:58:00,
2013-02-03 06:59:00,12.9,7.4,28.88,WSW,257,6.7,6.7,78,0.00,,---,0.00,VWS V14.01,2013-02-03 11:59:00,
2013-02-03 07:00:00,21.0,17.0,28.91,South,181,3.6,4.9,84,0.00,,---,0.00,VWS V14.01,2013-02-03 12:00:00,
2013-02-03 07:01:00,21.2,17.1,28.91,South,181,0.0,3.6,84,0.00,,---,0.00,VWS V14.01,2013-02-03 12:01:00,
2013-02-03 07:02:00,21.2,17.1,28.91,South,181,0.0,3.6,84,0.00,,---,0.00,VWS V14.01,2013-02-03 12:02:00,
2013-02-03 07:03:00,21.2,16.9,28.91,SSE,168,3.1,4.5,83,0.00,,---,0.00,VWS V14.01,2013-02-03 12:03:00,
2013-02-03 07:04:00,12.7,7.2,28.88,WNW,300,3.6,6.3,78,0.00,,---,0.00,VWS V14.01,2013-02-03 12:04:00,
2013-02-03 07:05:00,21.2,16.9,28.91,SSE,168,2.7,4.5,83,0.00,,---,0.00,VWS V14.01,2013-02-03 12:05:00,
2013-02-03 07:06:00,21.2,16.6,28.91,SSE,168,4.5,4.5,82,0.00,,---,0.00,VWS V14.01,2013-02-03 12:06:00,
2013-02-03 07:07:00,21.2,16.6,28.91,SE,130,4.0,6.3,82,0.00,,---,0.00,VWS V14.01,2013-02-03 12:07:00,
2013-02-03 07:08:00,21.2,16.6,28.91,SE,145,2.7,5.4,82,0.00,,---,0.00,VWS V14.01,2013-02-03 12:08:00,
2013-02-03 07:09:00,12.7,7.2,28.88,West,259,0.0,5.4,78,0.00,,---,0.00,VWS V14.01,2013-02-03 12:09:00,
2013-02-03 07:10:00,21.2,16.3,28.91,SSE,150,4.5,6.3,81,0.00,,---,0.00,VWS V14.01,2013-02-03 12:10:00,
2013-02-03 07:11:00,21.2,16.3,28.91,South,172,3.1,4.5,81,0.00,,---,0.00,VWS V14.01,2013-02-03 12:11:00,
2013-02-03 07:12:00,21.2,16.3,28.91,SE,130,4.5,5.8,81,0.00,,---,0.00,VWS V14.01,2013-02-03 12:12:00,
2013-02-03 07:13:00,21.2,16.3,28.91,SSE,166,4.9,5.8,81,0.00,,---,0.00,VWS V14.01,2013-02-03 12:13:00,
2013-02-03 07:14:00,12.7,7.2,28.88,WSW,256,4.0,4.0,78,0.00,,---,0.00,VWS V14.01,2013-02-03 12:14:00,
2013-02-03 07:15:00,21.2,16.0,28.91,SSE,157,4.0,6.3,80,0.00,,---,0.00,VWS V14.01,2013-02-03 12:15:00,
2013-02-03 07:16:00,21.4,16.2,28.91,SSE,160,5.4,6.3,80,0.00,,---,0.00,VWS V14.01,2013-02-03 12:16:00,
2013-02-03 07:17:00,21.2,15.7,28.91,SE,143,4.0,6.7,79,0.00,,---,0.00,VWS V14.01,2013-02-03 12:17:00,
2013-02-03 07:18:00,21.4,15.9,28.91,SSW,199,0.0,4.5,79,0.00,,---,0.00,VWS V14.01,2013-02-03 12:18:00,
2013-02-03 07:19:00,12.7,7.2,28.88,West,259,5.8,7.4,78,0.00,,---,0.00,VWS V14.01,2013-02-03 12:19:00,
2013-02-03 07:20:00,21.4,15.6,28.91,South,178,0.0,4.9,78,0.00,,---,0.00,VWS V14.01,2013-02-03 12:20:00,
2013-02-03 07:21:00,21.4,15.6,28.91,South,178,3.1,3.1,78,0.00,,---,0.00,VWS V14.01,2013-02-03 12:21:00,
2013-02-03 07:22:00,21.4,15.6,28.91,South,179,0.0,4.5,78,0.00,,---,0.00,VWS V14.01,2013-02-03 12:22:00,
2013-02-03 07:23:00,21.4,15.3,28.91,South,173,4.0,4.0,77,0.00,,---,0.00,VWS V14.01,2013-02-03 12:23:00,
2013-02-03 07:24:00,12.6,7.0,28.88,WNW,282,3.6,5.4,78,0.00,,---,0.00,VWS V14.01,2013-02-03 12:24:00,
2013-02-03 07:25:00,21.4,15.3,28.91,SSE,155,4.0,4.9,77,0.00,,---,0.00,VWS V14.01,2013-02-03 12:25:00,
2013-02-03 07:26:00,21.4,15.0,28.91,SSE,149,4.0,4.0,76,0.00,,---,0.00,VWS V14.01,2013-02-03 12:26:00,
2013-02-03 07:27:00,21.4,15.0,28.91,SSE,147,0.0,4.5,76,0.00,,---,0.00,VWS V14.01,2013-02-03 12:27:00,
2013-02-03 07:28:00,21.4,15.0,28.91,SSE,155,4.0,5.4,76,0.00,,---,0.00,VWS V14.01,2013-02-03 12:28:00,
2013-02-03 07:29:00,12.6,7.0,28.88,West,281,0.0,4.0,78,0.00,,---,0.00,VWS V14.01,2013-02-03 12:29:00,
2013-02-03 07:30:00,21.4,14.7,28.91,SSE,155,0.0,3.1,75,0.00,,---,0.00,VWS V14.01,2013-02-03 12:30:00,
2013-02-03 07:31:00,21.4,14.7,28.91,SSE,155,0.0,4.0,75,0.00,,---,0.00,VWS V14.01,2013-02-03 12:31:00,
2013-02-03 07:32:00,21.4,14.4,28.91,South,176,5.8,5.8,74,0.00,,---,0.00,VWS V14.01,2013-02-03 12:32:00,
2013-02-03 07:33:00,21.4,14.4,28.91,South,174,3.6,5.8,74,0.00,,---,0.00,VWS V14.01,2013-02-03 12:33:00,
2013-02-03 07:34:00,12.6,7.0,28.88,WNW,282,2.7,5.4,78,0.00,,---,0.00,VWS V14.01,2013-02-03 12:34:00,
2013-02-03 07:35:00,21.4,14.4,28.91,SSW,193,3.1,4.5,74,0.00,,---,0.00,VWS V14.01,2013-02-03 12:35:00,
2013-02-03 07:36:00,21.4,14.1,28.91,SSW,193,0.0,3.6,73,0.00,,---,0.00,VWS V14.01,2013-02-03 12:36:00,
2013-02-03 07:37:00,21.4,14.1,28.91,SSW,193,0.0,3.1,73,0.00,,---,0.00,VWS V14.01,2013-02-03 12:37:00,
2013-02-03 07:38:00,21.4,14.1,28.91,SSW,193,2.7,4.5,73,0.00,,---,0.00,VWS V14.01,2013-02-03 12:38:00,
2013-02-03 07:39:00,12.6,7.0,28.88,West,266,3.1,4.0,78,0.00,,---,0.00,VWS V14.01,2013-02-03 12:39:00,
2013-02-03 07:40:00,21.4,13.8,28.91,SE,144,0.0,5.4,72,0.00,,---,0.00,VWS V14.01,2013-02-03 12:40:00,
2013-02-03 07:41:00,21.4,13.8,28.91,SE,145,3.1,4.0,72,0.00,,---,0.00,VWS V14.01,2013-02-03 12:41:00,
2013-02-03 07:42:00,21.4,13.8,28.91,SE,145,0.0,3.1,72,0.00,,---,0.00,VWS V14.01,2013-02-03 12:42:00,
2013-02-03 07:43:00,21.4,13.8,28.91,SE,145,0.0,0.0,72,0.00,,---,0.00,VWS V14.01,2013-02-03 12:43:00,
2013-02-03 07:44:00,12.6,7.0,28.88,West,264,5.4,6.7,78,0.00,,---,0.00,VWS V14.01,2013-02-03 12:44:00,
2013-02-03 07:45:00,21.4,13.4,28.91,SE,139,4.9,5.4,71,0.00,,---,0.00,VWS V14.01,2013-02-03 12:45:00,
2013-02-03 07:46:00,21.4,13.4,28.91,SE,139,4.0,4.9,71,0.00,,---,0.00,VWS V14.01,2013-02-03 12:46:00,
2013-02-03 07:47:00,21.4,13.4,28.91,SSE,162,5.8,5.8,71,0.00,,---,0.00,VWS V14.01,2013-02-03 12:47:00,
2013-02-03 07:48:00,21.4,13.1,28.91,SSE,152,2.7,5.8,70,0.00,,---,0.00,VWS V14.01,2013-02-03 12:48:00,
2013-02-03 07:49:00,12.4,6.8,28.88,WSW,254,5.4,5.8,78,0.00,,---,0.00,VWS V14.01,2013-02-03 12:49:00,
2013-02-03 07:50:00,21.6,13.3,28.91,SE,137,5.4,6.3,70,0.00,,---,0.00,VWS V14.01,2013-02-03 12:50:00,
2013-02-03 07:51:00,21.6,13.0,28.88,SE,143,4.5,6.9,69,0.00,,---,0.00,VWS V14.01,2013-02-03 12:51:00,
2013-02-03 07:52:00,21.6,13.0,28.88,SE,143,3.1,4.9,69,0.00,,---,0.00,VWS V14.01,2013-02-03 12:52:00,
2013-02-03 07:53:00,21.6,12.6,28.88,SE,143,3.6,4.5,68,0.00,,---,0.00,VWS V14.01,2013-02-03 12:53:00,
2013-02-03 07:54:00,12.4,6.8,28.88,WSW,257,5.8,7.4,78,0.00,,---,0.00,VWS V14.01,2013-02-03 12:54:00,
2013-02-03 07:55:00,21.6,12.6,28.88,South,174,4.9,5.8,68,0.00,,---,0.00,VWS V14.01,2013-02-03 12:55:00,
2013-02-03 07:56:00,21.6,12.3,28.88,South,178,3.1,4.9,67,0.00,,---,0.00,VWS V14.01,2013-02-03 12:56:00,
2013-02-03 07:57:00,21.6,12.3,28.88,SSE,162,4.9,4.9,67,0.00,,---,0.00,VWS V14.01,2013-02-03 12:57:00,
2013-02-03 07:58:00,21.6,12.3,28.88,SSE,162,0.0,5.4,67,0.00,,---,0.00,VWS V14.01,2013-02-03 12:58:00,
2013-02-03 07:59:00,12.6,7.0,28.88,WSW,257,6.3,6.3,78,0.00,,---,0.00,VWS V14.01,2013-02-03 12:59:00,
2013-02-03 08:00:00,21.6,12.0,28.88,SSE,162,3.6,3.6,66,0.00,,---,0.00,VWS V14.01,2013-02-03 13:00:00,
2013-02-03 08:01:00,21.6,12.0,28.88,SSE,163,4.0,4.9,66,0.00,,---,0.00,VWS V14.01,2013-02-03 13:01:00,
2013-02-03 08:02:00,21.7,12.1,28.88,SSE,159,5.8,6.9,66,0.00,,---,0.00,VWS V14.01,2013-02-03 13:02:00,
2013-02-03 08:03:00,21.7,11.8,28.88,SE,145,6.3,6.3,65,0.00,,---,0.00,VWS V14.01,2013-02-03 13:03:00,
2013-02-03 08:04:00,12.6,7.0,28.88,WSW,253,5.4,6.3,78,0.00,,---,0.00,VWS V14.01,2013-02-03 13:04:00,
2013-02-03 08:05:00,21.7,11.8,28.88,SSE,155,4.5,4.5,65,0.00,,---,0.00,VWS V14.01,2013-02-03 13:05:00,
2013-02-03 08:06:00,21.7,11.4,28.88,SE,145,0.0,5.4,64,0.00,,---,0.00,VWS V14.01,2013-02-03 13:06:00,
2013-02-03 08:07:00,21.7,11.4,28.88,South,191,4.0,4.0,64,0.00,,---,0.00,VWS V14.01,2013-02-03 13:07:00,
2013-02-03 08:08:00,21.7,11.4,28.88,SSW,193,4.9,4.9,64,0.00,,---,0.00,VWS V14.01,2013-02-03 13:08:00,
2013-02-03 08:09:00,12.6,7.0,28.88,West,278,8.3,8.3,78,0.00,,---,0.00,VWS V14.01,2013-02-03 13:09:00,
2013-02-03 08:10:00,21.7,11.4,28.88,SSW,208,0.0,6.7,64,0.00,,---,0.00,VWS V14.01,2013-02-03 13:10:00,
2013-02-03 08:11:00,21.7,11.4,28.88,SSE,153,3.1,6.3,64,0.00,,---,0.00,VWS V14.01,2013-02-03 13:11:00,
2013-02-03 08:12:00,21.7,11.1,28.88,SSE,154,0.0,3.6,63,0.00,,---,0.00,VWS V14.01,2013-02-03 13:12:00,
2013-02-03 08:13:00,21.7,11.1,28.88,SW,214,0.0,4.9,63,0.00,,---,0.00,VWS V14.01,2013-02-03 13:13:00,
2013-02-03 08:14:00,12.7,7.2,28.88,NW,324,4.5,6.9,78,0.00,,---,0.00,VWS V14.01,2013-02-03 13:14:00,
2013-02-03 08:15:00,21.7,11.1,28.88,SSE,162,3.6,5.8,63,0.00,,---,0.00,VWS V14.01,2013-02-03 13:15:00,
2013-02-03 08:16:00,21.7,11.1,28.88,SSW,204,0.0,6.3,63,0.00,,---,0.00,VWS V14.01,2013-02-03 13:16:00,
2013-02-03 08:17:00,21.7,11.1,28.88,SSE,157,4.0,4.5,63,0.00,,---,0.00,VWS V14.01,2013-02-03 13:17:00,
2013-02-03 08:18:00,21.9,11.3,28.88,SSW,194,2.7,5.8,63,0.00,,---,0.00,VWS V14.01,2013-02-03 13:18:00,
2013-02-03 08:19:00,21.9,11.3,28.88,SSE,164,5.4,5.4,63,0.00,,---,0.00,VWS V14.01,2013-02-03 13:19:00,
2013-02-03 08:20:00,21.9,11.3,28.88,SSW,197,4.5,5.4,63,0.00,,---,0.00,VWS V14.01,2013-02-03 13:20:00,
2013-02-03 08:21:00,12.4,6.8,28.88,NW,308,6.9,10.1,78,0.00,,---,0.00,VWS V14.01,2013-02-03 13:21:00,
2013-02-03 08:22:00,21.9,10.9,28.88,SSW,197,3.6,4.0,62,0.00,,---,0.00,VWS V14.01,2013-02-03 13:22:00,
2013-02-03 08:23:00,21.9,10.9,28.88,SSW,196,3.1,5.8,62,0.00,,---,0.00,VWS V14.01,2013-02-03 13:23:00,
2013-02-03 08:24:00,21.9,10.9,28.88,SSW,196,2.7,3.1,62,0.00,,---,0.00,VWS V14.01,2013-02-03 13:24:00,
2013-02-03 08:25:00,21.9,10.9,28.88,SSW,212,3.1,4.9,62,0.00,,---,0.00,VWS V14.01,2013-02-03 13:25:00,
2013-02-03 08:26:00,12.0,6.5,28.88,West,280,8.3,10.5,78,0.00,,---,0.00,VWS V14.01,2013-02-03 13:26:00,
2013-02-03 08:27:00,21.9,10.9,28.88,South,187,4.0,4.5,62,0.00,,---,0.00,VWS V14.01,2013-02-03 13:27:00,
2013-02-03 08:28:00,21.9,10.9,28.88,SSE,166,4.5,5.4,62,0.00,,---,0.00,VWS V14.01,2013-02-03 13:28:00,
2013-02-03 08:29:00,21.9,10.9,28.88,SSE,156,4.5,4.5,62,0.00,,---,0.00,VWS V14.01,2013-02-03 13:29:00,
2013-02-03 08:30:00,21.9,10.9,28.88,South,173,0.0,4.5,62,0.00,,---,0.00,VWS V14.01,2013-02-03 13:30:00,
2013-02-03 08:31:00,12.0,6.5,28.91,WSW,257,9.6,9.6,78,0.00,,---,0.00,VWS V14.01,2013-02-03 13:31:00,
2013-02-03 08:32:00,21.9,10.9,28.88,SSW,198,2.7,3.6,62,0.00,,---,0.00,VWS V14.01,2013-02-03 13:32:00,
2013-02-03 08:33:00,21.9,10.9,28.88,South,191,6.7,6.7,62,0.00,,---,0.00,VWS V14.01,2013-02-03 13:33:00,
2013-02-03 08:34:00,21.9,10.9,28.88,SSE,168,5.8,6.7,62,0.00,,---,0.00,VWS V14.01,2013-02-03 13:34:00,
2013-02-03 08:35:00,22.1,11.1,28.88,SSW,192,0.0,5.8,62,0.00,,---,0.00,VWS V14.01,2013-02-03 13:35:00,
2013-02-03 08:36:00,22.1,11.1,28.88,South,185,3.6,4.0,62,0.00,,---,0.00,VWS V14.01,2013-02-03 13:36:00,
2013-02-03 08:37:00,12.0,6.5,28.91,WNW,286,6.7,10.1,78,0.00,,---,0.00,VWS V14.01,2013-02-03 13:37:00,
2013-02-03 08:38:00,22.1,11.1,28.88,SSE,152,3.1,4.9,62,0.00,,---,0.00,VWS V14.01,2013-02-03 13:38:00,
2013-02-03 08:39:00,22.1,11.1,28.88,SSW,193,3.1,4.0,62,0.00,,---,0.00,VWS V14.01,2013-02-03 13:39:00,
2013-02-03 08:40:00,22.1,11.1,28.88,SSE,153,4.9,5.8,62,0.00,,---,0.00,VWS V14.01,2013-02-03 13:40:00,
2013-02-03 08:41:00,22.1,11.1,28.88,South,183,0.0,6.3,62,0.00,,---,0.00,VWS V14.01,2013-02-03 13:41:00,
2013-02-03 08:42:00,12.2,6.7,28.91,West,263,6.3,9.2,78,0.00,,---,0.00,VWS V14.01,2013-02-03 13:42:00,
2013-02-03 08:43:00,22.1,11.1,28.88,South,183,0.0,3.6,62,0.00,,---,0.00,VWS V14.01,2013-02-03 13:43:00,
2013-02-03 08:44:00,22.1,11.1,28.88,South,183,4.0,4.5,62,0.00,,---,0.00,VWS V14.01,2013-02-03 13:44:00,
2013-02-03 08:45:00,22.1,11.1,28.88,SSW,194,4.0,4.9,62,0.00,,---,0.00,VWS V14.01,2013-02-03 13:45:00,
2013-02-03 08:46:00,22.1,11.1,28.88,South,190,3.6,5.4,62,0.00,,---,0.00,VWS V14.01,2013-02-03 13:46:00,
2013-02-03 08:47:00,12.2,6.7,28.91,West,265,4.9,9.6,78,0.00,,---,0.00,VWS V14.01,2013-02-03 13:47:00,
2013-02-03 08:48:00,22.1,11.1,28.88,SSE,165,3.1,6.3,62,0.00,,---,0.00,VWS V14.01,2013-02-03 13:48:00,
2013-02-03 08:49:00,22.1,11.1,28.88,SSE,167,5.4,6.3,62,0.00,,---,0.00,VWS V14.01,2013-02-03 13:49:00,
2013-02-03 08:50:00,22.1,11.1,28.88,SW,219,0.0,5.4,62,0.00,,---,0.00,VWS V14.01,2013-02-03 13:50:00,
2013-02-03 08:51:00,22.1,11.1,28.88,WSW,241,4.0,7.4,62,0.00,,---,0.00,VWS V14.01,2013-02-03 13:51:00,
2013-02-03 08:52:00,22.1,11.1,28.88,South,191,2.7,4.5,62,0.00,,---,0.00,VWS V14.01,2013-02-03 13:52:00,
2013-02-03 08:53:00,12.4,6.8,28.91,West,268,5.4,8.7,78,0.00,,---,0.00,VWS V14.01,2013-02-03 13:53:00,
2013-02-03 08:54:00,22.1,11.1,28.88,SSW,208,3.1,5.4,62,0.00,,---,0.00,VWS V14.01,2013-02-03 13:54:00,
2013-02-03 08:55:00,22.1,11.1,28.88,South,191,3.1,4.9,62,0.00,,---,0.00,VWS V14.01,2013-02-03 13:55:00,
2013-02-03 08:56:00,22.1,11.1,28.88,SSW,192,0.0,3.1,62,0.00,,---,0.00,VWS V14.01,2013-02-03 13:56:00,
2013-02-03 08:57:00,22.1,11.1,28.88,SSW,202,4.0,5.8,62,0.00,,---,0.00,VWS V14.01,2013-02-03 13:57:00,
2013-02-03 08:58:00,12.7,7.2,28.91,WSW,248,5.4,5.8,78,0.00,,---,0.00,VWS V14.01,2013-02-03 13:58:00,
2013-02-03 08:59:00,22.3,11.2,28.88,SW,218,2.7,3.1,62,0.00,,---,0.00,VWS V14.01,2013-02-03 13:59:00,
2013-02-03 09:00:00,22.3,11.2,28.88,South,187,5.8,6.9,62,0.00,,---,0.00,VWS V14.01,2013-02-03 14:00:00,
2013-02-03 09:01:00,22.3,11.2,28.88,SSW,203,0.0,5.8,62,0.00,,---,0.00,VWS V14.01,2013-02-03 14:01:00,
2013-02-03 09:02:00,22.3,11.2,28.88,SSW,203,3.6,4.0,62,0.00,,---,0.00,VWS V14.01,2013-02-03 14:02:00,
2013-02-03 09:03:00,12.7,7.2,28.91,WSW,253,7.8,8.7,78,0.00,,---,0.00,VWS V14.01,2013-02-03 14:03:00,
2013-02-03 09:04:00,22.3,11.2,28.88,SSE,162,7.8,7.8,62,0.00,,---,0.00,VWS V14.01,2013-02-03 14:04:00,
2013-02-03 09:05:00,22.3,11.2,28.88,SSW,201,5.4,7.8,62,0.00,,---,0.00,VWS V14.01,2013-02-03 14:05:00,
2013-02-03 09:06:00,22.3,11.2,28.88,SW,216,3.6,5.4,62,0.00,,---,0.00,VWS V14.01,2013-02-03 14:06:00,
2013-02-03 09:07:00,22.5,11.4,28.88,SW,216,0.0,3.6,62,0.00,,---,0.00,VWS V14.01,2013-02-03 14:07:00,
2013-02-03 09:08:00,12.7,7.2,28.91,WNW,287,5.8,7.8,78,0.00,,---,0.00,VWS V14.01,2013-02-03 14:08:00,
2013-02-03 09:09:00,22.5,11.4,28.88,South,188,0.0,5.4,62,0.00,,---,0.00,VWS V14.01,2013-02-03 14:09:00,
2013-02-03 09:10:00,22.5,11.4,28.88,SSW,209,3.6,4.5,62,0.00,,---,0.00,VWS V14.01,2013-02-03 14:10:00,
2013-02-03 09:11:00,22.5,11.4,28.88,South,170,3.6,4.9,62,0.00,,---,0.00,VWS V14.01,2013-02-03 14:11:00,
2013-02-03 09:12:00,22.6,11.6,28.88,SSW,207,0.0,5.4,62,0.00,,---,0.00,VWS V14.01,2013-02-03 14:12:00,
2013-02-03 09:13:00,13.1,7.5,28.91,West,271,4.9,9.6,78,0.00,,---,0.00,VWS V14.01,2013-02-03 14:13:00,
2013-02-03 09:14:00,22.6,11.9,28.88,SSW,198,3.6,5.4,63,0.00,,---,0.00,VWS V14.01,2013-02-03 14:14:00,
2013-02-03 09:15:00,22.6,11.9,28.88,SSE,163,5.4,6.9,63,0.00,,---,0.00,VWS V14.01,2013-02-03 14:15:00,
2013-02-03 09:16:00,22.6,11.9,28.88,South,191,0.0,5.4,63,0.00,,---,0.00,VWS V14.01,2013-02-03 14:16:00,
2013-02-03 09:17:00,22.6,11.6,28.88,South,170,4.0,5.8,62,0.00,,---,0.00,VWS V14.01,2013-02-03 14:17:00,
2013-02-03 09:18:00,13.3,7.7,28.91,WNW,287,6.9,9.6,78,0.00,,---,0.00,VWS V14.01,2013-02-03 14:18:00,
2013-02-03 09:19:00,22.8,11.8,28.88,South,187,2.7,5.4,62,0.00,,---,0.00,VWS V14.01,2013-02-03 14:19:00,
2013-02-03 09:20:00,22.8,11.8,28.88,South,185,2.7,3.6,62,0.00,,---,0.00,VWS V14.01,2013-02-03 14:20:00,
2013-02-03 09:21:00,22.8,11.8,28.85,South,184,4.0,4.0,62,0.00,,---,0.00,VWS V14.01,2013-02-03 14:21:00,
2013-02-03 09:22:00,22.8,11.8,28.85,SSW,196,4.0,5.8,62,0.00,,---,0.00,VWS V14.01,2013-02-03 14:22:00,
2013-02-03 09:23:00,13.3,7.7,28.91,NW,311,6.3,6.3,78,0.00,,---,0.00,VWS V14.01,2013-02-03 14:23:00,
2013-02-03 09:24:00,23.0,11.9,28.85,SSE,161,4.0,5.8,62,0.00,,---,0.00,VWS V14.01,2013-02-03 14:24:00,
2013-02-03 09:25:00,23.0,11.9,28.85,SE,142,4.5,5.8,62,0.00,,---,0.00,VWS V14.01,2013-02-03 14:25:00,
2013-02-03 09:26:00,23.0,11.9,28.85,SSW,209,0.0,4.9,62,0.00,,---,0.00,VWS V14.01,2013-02-03 14:26:00,
2013-02-03 09:27:00,23.0,11.9,28.85,SSW,194,3.1,4.9,62,0.00,,---,0.00,VWS V14.01,2013-02-03 14:27:00,
2013-02-03 09:28:00,13.3,7.7,28.91,West,280,6.7,8.3,78,0.00,,---,0.00,VWS V14.01,2013-02-03 14:28:00,
2013-02-03 09:29:00,23.2,12.1,28.85,SSE,164,4.0,4.9,62,0.00,,---,0.00,VWS V14.01,2013-02-03 14:29:00,
2013-02-03 09:30:00,23.2,12.1,28.85,SSE,160,3.1,5.4,62,0.00,,---,0.00,VWS V14.01,2013-02-03 14:30:00,
2013-02-03 09:31:00,23.2,12.1,28.85,SSW,199,3.1,6.3,62,0.00,,---,0.00,VWS V14.01,2013-02-03 14:31:00,
2013-02-03 09:32:00,23.4,12.3,28.85,SSW,192,3.1,4.0,62,0.00,,---,0.00,VWS V14.01,2013-02-03 14:32:00,
2013-02-03 09:33:00,13.5,7.9,28.91,NNW,327,6.9,8.7,78,0.00,,---,0.00,VWS V14.01,2013-02-03 14:33:00,
2013-02-03 09:34:00,23.4,12.3,28.85,SSW,195,4.0,5.8,62,0.00,,---,0.00,VWS V14.01,2013-02-03 14:34:00,
2013-02-03 09:35:00,23.5,12.4,28.85,SSW,200,3.1,4.9,62,0.00,,---,0.00,VWS V14.01,2013-02-03 14:35:00,
2013-02-03 09:36:00,23.5,12.4,28.85,SSW,205,6.3,6.3,62,0.00,,---,0.00,VWS V14.01,2013-02-03 14:36:00,
2013-02-03 09:37:00,23.5,12.4,28.85,SE,142,3.6,6.3,62,0.00,,---,0.00,VWS V14.01,2013-02-03 14:37:00,
2013-02-03 09:38:00,23.7,12.6,28.85,SE,140,3.1,5.4,62,0.00,,---,0.00,VWS V14.01,2013-02-03 14:38:00,
2013-02-03 09:39:00,13.6,8.1,28.91,NW,313,6.7,10.1,78,0.00,,---,0.00,VWS V14.01,2013-02-03 14:39:00,
2013-02-03 09:40:00,23.7,12.6,28.85,SSW,197,3.6,5.4,62,0.00,,---,0.00,VWS V14.01,2013-02-03 14:40:00,
2013-02-03 09:41:00,23.9,12.4,28.85,SSE,150,5.4,5.4,61,0.00,,---,0.00,VWS V14.01,2013-02-03 14:41:00,
2013-02-03 09:42:00,23.9,12.4,28.85,SSE,149,4.9,5.4,61,0.00,,---,0.00,VWS V14.01,2013-02-03 14:42:00,
2013-02-03 09:43:00,23.9,12.4,28.85,SSE,149,3.1,5.8,61,0.00,,---,0.00,VWS V14.01,2013-02-03 14:43:00,
2013-02-03 09:44:00,14.0,0.0,28.91,WNW,287,8.7,8.7,53,0.00,,---,0.00,VWS V14.01,2013-02-03 14:44:00,
2013-02-03 09:45:00,23.9,12.4,28.85,South,182,6.3,7.4,61,0.00,,---,0.00,VWS V14.01,2013-02-03 14:45:00,
2013-02-03 09:46:00,23.9,12.1,28.85,South,171,7.4,7.4,60,0.00,,---,0.00,VWS V14.01,2013-02-03 14:46:00,
2013-02-03 09:47:00,23.9,12.1,28.85,SSE,160,5.8,7.4,60,0.00,,---,0.00,VWS V14.01,2013-02-03 14:47:00,
2013-02-03 09:48:00,23.9,12.1,28.85,SSE,161,2.7,6.3,60,0.00,,---,0.00,VWS V14.01,2013-02-03 14:48:00,
2013-02-03 09:49:00,14.0,0.0,28.91,NNW,335,4.0,5.4,53,0.00,,---,0.00,VWS V14.01,2013-02-03 14:49:00,
2013-02-03 09:50:00,23.9,11.7,28.85,South,173,4.5,5.8,59,0.00,,---,0.00,VWS V14.01,2013-02-03 14:50:00,
2013-02-03 09:51:00,23.9,11.7,28.85,South,187,3.1,4.9,59,0.00,,---,0.00,VWS V14.01,2013-02-03 14:51:00,
2013-02-03 09:52:00,24.1,11.8,28.85,SW,219,4.9,4.9,59,0.00,,---,0.00,VWS V14.01,2013-02-03 14:52:00,
2013-02-03 09:53:00,24.1,11.8,28.85,South,171,6.9,6.9,59,0.00,,---,0.00,VWS V14.01,2013-02-03 14:53:00,
2013-02-03 09:54:00,14.2,0.2,28.91,WSW,243,5.4,6.7,53,0.00,,---,0.00,VWS V14.01,2013-02-03 14:54:00,
2013-02-03 09:55:00,24.3,12.0,28.85,SW,216,4.9,5.8,59,0.00,,---,0.00,VWS V14.01,2013-02-03 14:55:00,
2013-02-03 09:56:00,24.3,12.0,28.85,SSW,194,4.5,6.3,59,0.00,,---,0.00,VWS V14.01,2013-02-03 14:56:00,
2013-02-03 09:57:00,24.3,12.0,28.85,SSW,205,0.0,5.4,59,0.00,,---,0.00,VWS V14.01,2013-02-03 14:57:00,
2013-02-03 09:58:00,24.4,12.2,28.85,SSW,202,5.4,6.3,59,0.00,,---,0.00,VWS V14.01,2013-02-03 14:58:00,
2013-02-03 09:59:00,14.0,-0.4,28.88,NW,321,5.8,7.4,52,0.00,,---,0.00,VWS V14.01,2013-02-03 14:59:00,
2013-02-03 10:00:00,24.4,11.8,28.85,SE,146,4.0,4.5,58,0.00,,---,0.00,VWS V14.01,2013-02-03 15:00:00,
2013-02-03 10:01:00,24.4,11.8,28.85,SSE,156,4.9,5.4,58,0.00,,---,0.00,VWS V14.01,2013-02-03 15:01:00,
2013-02-03 10:02:00,24.4,11.8,28.85,SE,145,4.0,6.3,58,0.00,,---,0.00,VWS V14.01,2013-02-03 15:02:00,
2013-02-03 10:03:00,24.4,11.8,28.85,South,169,4.9,5.8,58,0.00,,---,0.00,VWS V14.01,2013-02-03 15:03:00,
2013-02-03 10:04:00,14.4,0.8,28.88,NW,321,5.8,8.3,54,0.00,,---,0.00,VWS V14.01,2013-02-03 15:04:00,
2013-02-03 10:05:00,23.9,11.3,28.85,SSW,205,6.7,7.8,58,0.00,,---,0.00,VWS V14.01,2013-02-03 15:05:00,
2013-02-03 10:06:00,24.4,11.8,28.85,SSE,153,4.0,8.7,58,0.00,,---,0.00,VWS V14.01,2013-02-03 15:06:00,
2013-02-03 10:07:00,24.6,11.6,28.85,SSE,166,4.5,4.9,57,0.00,,---,0.00,VWS V14.01,2013-02-03 15:07:00,
2013-02-03 10:08:00,24.6,11.6,28.85,SSW,192,5.4,5.4,57,0.00,,---,0.00,VWS V14.01,2013-02-03 15:08:00,
2013-02-03 10:09:00,24.6,11.6,28.85,SSE,151,6.7,6.7,57,0.00,,---,0.00,VWS V14.01,2013-02-03 15:09:00,
2013-02-03 10:10:00,14.4,0.4,28.88,WNW,296,4.0,8.3,53,0.00,,---,0.00,VWS V14.01,2013-02-03 15:10:00,
2013-02-03 10:11:00,24.6,11.6,28.85,SSE,151,4.5,5.4,57,0.00,,---,0.00,VWS V14.01,2013-02-03 15:11:00,
2013-02-03 10:12:00,24.6,11.6,28.85,SSE,158,5.4,5.8,57,0.00,,---,0.00,VWS V14.01,2013-02-03 15:12:00,
2013-02-03 10:13:00,24.8,11.7,28.85,South,173,3.1,6.7,57,0.00,,---,0.00,VWS V14.01,2013-02-03 15:13:00,
2013-02-03 10:14:00,24.8,11.7,28.85,South,184,4.5,5.8,57,0.00,,---,0.00,VWS V14.01,2013-02-03 15:14:00,
2013-02-03 10:15:00,14.9,1.3,28.91,WNW,300,8.3,9.6,54,0.00,,---,0.00,VWS V14.01,2013-02-03 15:15:00,
2013-02-03 10:16:00,25.0,11.9,28.85,South,191,3.6,7.4,57,0.00,,---,0.00,VWS V14.01,2013-02-03 15:16:00,
2013-02-03 10:17:00,25.0,11.9,28.85,SSW,200,3.6,5.8,57,0.00,,---,0.00,VWS V14.01,2013-02-03 15:17:00,
2013-02-03 10:20:00,14.9,1.3,28.91,NW,307,2.7,10.1,54,0.00,,---,0.00,VWS V14.01,2013-02-03 15:20:00,
2013-02-03 10:22:00,25.3,11.9,28.85,South,173,4.0,10.1,56,0.00,,---,0.00,VWS V14.01,2013-02-03 15:22:00,
2013-02-03 10:24:00,25.3,11.9,28.85,SW,222,4.5,6.9,56,0.00,,---,0.00,VWS V14.01,2013-02-03 15:24:00,
2013-02-03 10:25:00,14.7,1.5,28.91,West,272,10.5,13.0,55,0.00,,---,0.00,VWS V14.01,2013-02-03 15:25:00,
2013-02-03 10:26:00,25.5,11.6,28.85,SSW,203,5.4,6.3,55,0.00,,---,0.00,VWS V14.01,2013-02-03 15:26:00,
2013-02-03 10:27:00,25.7,11.8,28.85,SSE,162,3.6,6.7,55,0.00,,---,0.00,VWS V14.01,2013-02-03 15:27:00,
2013-02-03 10:28:00,25.7,11.8,28.85,SSE,165,4.5,4.5,55,0.00,,---,0.00,VWS V14.01,2013-02-03 15:28:00,
2013-02-03 10:29:00,25.9,11.9,28.85,South,171,3.6,6.7,55,0.00,,---,0.00,VWS V14.01,2013-02-03 15:29:00,
2013-02-03 10:30:00,14.9,1.7,28.91,NNW,334,5.8,7.4,55,0.00,,---,0.00,VWS V14.01,2013-02-03 15:30:00,
2013-02-03 10:31:00,25.9,11.5,28.85,SSW,192,6.7,8.7,54,0.00,,---,0.00,VWS V14.01,2013-02-03 15:31:00,
2013-02-03 10:32:00,26.1,11.7,28.85,South,181,4.0,6.9,54,0.00,,---,0.00,VWS V14.01,2013-02-03 15:32:00,
2013-02-03 10:33:00,26.1,11.7,28.85,South,177,4.9,5.8,54,0.00,,---,0.00,VWS V14.01,2013-02-03 15:33:00,
2013-02-03 10:34:00,26.1,11.7,28.85,SSE,152,5.8,6.9,54,0.00,,---,0.00,VWS V14.01,2013-02-03 15:34:00,
2013-02-03 10:35:00,15.3,2.4,28.91,WNW,294,6.7,9.2,56,0.00,,---,0.00,VWS V14.01,2013-02-03 15:35:00,
2013-02-03 10:36:00,26.2,11.4,28.82,ESE,114,3.6,4.5,53,0.00,,---,0.00,VWS V14.01,2013-02-03 15:36:00,
2013-02-03 10:37:00,26.2,11.4,28.82,South,177,4.0,7.4,53,0.00,,---,0.00,VWS V14.01,2013-02-03 15:37:00,
2013-02-03 10:38:00,26.2,11.4,28.82,SSE,155,4.0,5.8,53,0.00,,---,0.00,VWS V14.01,2013-02-03 15:38:00,
2013-02-03 10:39:00,26.2,11.4,28.82,SW,223,4.9,6.7,53,0.00,,---,0.00,VWS V14.01,2013-02-03 15:39:00,
2013-02-03 10:40:00,15.4,2.6,28.91,WNW,300,4.9,6.3,56,0.00,,---,0.00,VWS V14.01,2013-02-03 15:40:00,
2013-02-03 10:41:00,26.4,11.6,28.82,SSE,157,4.5,8.3,53,0.00,,---,0.00,VWS V14.01,2013-02-03 15:41:00,
2013-02-03 10:42:00,26.4,11.2,28.82,SSW,209,6.7,8.7,52,0.00,,---,0.00,VWS V14.01,2013-02-03 15:42:00,
2013-02-03 10:43:00,26.6,11.4,28.82,SSE,165,5.4,7.8,52,0.00,,---,0.00,VWS V14.01,2013-02-03 15:43:00,
2013-02-03 10:44:00,26.6,11.4,28.82,SSW,196,2.7,6.9,52,0.00,,---,0.00,VWS V14.01,2013-02-03 15:44:00,
2013-02-03 10:45:00,15.8,2.9,28.91,West,276,5.8,7.4,56,0.00,,---,0.00,VWS V14.01,2013-02-03 15:45:00,
2013-02-03 10:46:00,26.6,11.4,28.82,SW,223,0.0,6.9,52,0.00,,---,0.00,VWS V14.01,2013-02-03 15:46:00,
2013-02-03 10:47:00,26.8,11.1,28.82,SSE,162,9.2,9.2,51,0.00,,---,0.00,VWS V14.01,2013-02-03 15:47:00,
2013-02-03 10:48:00,26.8,11.1,28.82,South,177,6.7,9.2,51,0.00,,---,0.00,VWS V14.01,2013-02-03 15:48:00,
2013-02-03 10:49:00,26.8,11.1,28.82,SE,129,6.3,7.4,51,0.00,,---,0.00,VWS V14.01,2013-02-03 15:49:00,
2013-02-03 10:50:00,16.0,2.7,28.91,NNW,345,5.8,7.8,55,0.00,,---,0.00,VWS V14.01,2013-02-03 15:50:00,
2013-02-03 10:51:00,26.8,10.6,28.82,SE,141,2.7,6.3,50,0.00,,---,0.00,VWS V14.01,2013-02-03 15:51:00,
2013-02-03 10:52:00,26.8,10.6,28.82,SSE,166,0.0,4.0,50,0.00,,---,0.00,VWS V14.01,2013-02-03 15:52:00,
2013-02-03 10:53:00,27.0,10.8,28.82,SSW,202,4.5,5.4,50,0.00,,---,0.00,VWS V14.01,2013-02-03 15:53:00,
2013-02-03 10:54:00,27.1,11.0,28.82,WSW,245,6.7,6.7,50,0.00,,---,0.00,VWS V14.01,2013-02-03 15:54:00,
2013-02-03 10:55:00,16.5,3.2,28.91,NNW,337,0.0,6.7,55,0.00,,---,0.00,VWS V14.01,2013-02-03 15:55:00,
2013-02-03 10:56:00,27.1,11.0,28.82,SW,221,5.4,5.4,50,0.00,,---,0.00,VWS V14.01,2013-02-03 15:56:00,
2013-02-03 10:57:00,27.1,11.0,28.82,SE,145,7.8,7.8,50,0.00,,---,0.00,VWS V14.01,2013-02-03 15:57:00,
2013-02-03 10:58:00,27.1,11.0,28.82,SW,222,6.3,8.7,50,0.00,,---,0.00,VWS V14.01,2013-02-03 15:58:00,
2013-02-03 10:59:00,27.1,11.0,28.82,South,169,5.4,6.7,50,0.00,,---,0.00,VWS V14.01,2013-02-03 15:59:00,
2013-02-03 11:00:00,17.4,4.0,28.88,West,268,4.5,7.4,55,0.00,,---,0.00,VWS V14.01,2013-02-03 16:00:00,
2013-02-03 11:01:00,27.0,10.4,28.82,SW,216,2.7,4.9,49,0.00,,---,0.00,VWS V14.01,2013-02-03 16:01:00,
2013-02-03 11:02:00,27.1,11.0,28.82,South,169,5.4,6.7,50,0.00,,---,0.00,VWS V14.01,2013-02-03 16:02:00,
2013-02-03 11:03:00,27.1,11.0,28.82,South,175,4.0,5.8,50,0.00,,---,0.00,VWS V14.01,2013-02-03 16:03:00,
2013-02-03 11:04:00,27.1,11.0,28.82,South,178,0.0,6.3,50,0.00,,---,0.00,VWS V14.01,2013-02-03 16:04:00,
2013-02-03 11:05:00,17.1,3.3,28.88,NW,325,4.5,7.4,54,0.00,,---,0.00,VWS V14.01,2013-02-03 16:05:00,
2013-02-03 11:06:00,27.1,11.0,28.82,SSE,159,6.7,6.7,50,0.00,,---,0.00,VWS V14.01,2013-02-03 16:06:00,
2013-02-03 11:07:00,27.0,10.8,28.82,SE,146,6.7,7.4,50,0.00,,---,0.00,VWS V14.01,2013-02-03 16:07:00,
2013-02-03 11:08:00,27.0,10.8,28.82,South,178,4.0,7.4,50,0.00,,---,0.00,VWS V14.01,2013-02-03 16:08:00,
2013-02-03 11:09:00,27.0,10.4,28.82,SSE,157,9.2,9.2,49,0.00,,---,0.00,VWS V14.01,2013-02-03 16:09:00,
2013-02-03 11:10:00,17.4,3.6,28.88,NW,321,4.5,6.3,54,0.00,,---,0.00,VWS V14.01,2013-02-03 16:10:00,
2013-02-03 11:11:00,27.0,10.4,28.82,SSE,148,4.9,6.9,49,0.00,,---,0.00,VWS V14.01,2013-02-03 16:11:00,
2013-02-03 11:12:00,27.0,10.4,28.82,SSW,208,5.4,5.4,49,0.00,,---,0.00,VWS V14.01,2013-02-03 16:12:00,
2013-02-03 11:13:00,27.0,10.4,28.82,South,171,4.5,6.7,49,0.00,,---,0.00,VWS V14.01,2013-02-03 16:13:00,
2013-02-03 11:14:00,27.0,10.4,28.82,SE,145,6.3,6.7,49,0.00,,---,0.00,VWS V14.01,2013-02-03 16:14:00,
2013-02-03 11:15:00,17.2,3.5,28.91,WNW,289,5.4,7.8,54,0.00,,---,0.00,VWS V14.01,2013-02-03 16:15:00,
2013-02-03 11:16:00,27.1,11.0,28.82,SE,133,7.4,7.4,50,0.00,,---,0.00,VWS V14.01,2013-02-03 16:16:00,
2013-02-03 11:17:00,27.1,11.0,28.82,SSW,211,4.0,7.4,50,0.00,,---,0.00,VWS V14.01,2013-02-03 16:17:00,
2013-02-03 11:18:00,27.1,11.0,28.82,SSE,165,4.0,5.8,50,0.00,,---,0.00,VWS V14.01,2013-02-03 16:18:00,
2013-02-03 11:19:00,27.3,11.1,28.82,SSE,166,3.1,7.4,50,0.00,,---,0.00,VWS V14.01,2013-02-03 16:19:00,
2013-02-03 11:20:00,17.6,3.4,28.91,WSW,254,8.7,10.5,53,0.00,,---,0.00,VWS V14.01,2013-02-03 16:20:00,
2013-02-03 11:21:00,27.3,11.1,28.82,SE,141,4.0,4.9,50,0.00,,---,0.00,VWS V14.01,2013-02-03 16:21:00,
2013-02-03 11:22:00,27.5,11.3,28.82,SSE,149,3.1,7.8,50,0.00,,---,0.00,VWS V14.01,2013-02-03 16:22:00,
2013-02-03 11:23:00,27.5,10.9,28.82,SW,231,4.5,5.8,49,0.00,,---,0.00,VWS V14.01,2013-02-03 16:23:00,
2013-02-03 11:24:00,27.7,11.0,28.82,SW,221,4.0,6.7,49,0.00,,---,0.00,VWS V14.01,2013-02-03 16:24:00,
2013-02-03 11:25:00,17.6,3.8,28.91,West,276,7.4,8.7,54,0.00,,---,0.00,VWS V14.01,2013-02-03 16:25:00,
2013-02-03 11:26:00,27.9,11.2,28.82,South,178,2.7,3.6,49,0.00,,---,0.00,VWS V14.01,2013-02-03 16:26:00,
2013-02-03 11:27:00,27.9,11.2,28.82,SW,216,3.6,7.8,49,0.00,,---,0.00,VWS V14.01,2013-02-03 16:27:00,
2013-02-03 11:28:00,28.0,11.4,28.82,SE,139,4.5,6.7,49,0.00,,---,0.00,VWS V14.01,2013-02-03 16:28:00,
2013-02-03 11:29:00,28.0,10.9,28.82,SSE,154,0.0,5.4,48,0.00,,---,0.00,VWS V14.01,2013-02-03 16:29:00,
2013-02-03 11:30:00,18.0,3.7,28.91,NW,308,4.9,7.8,53,0.00,,---,0.00,VWS V14.01,2013-02-03 16:30:00,
2013-02-03 11:31:00,28.0,10.9,28.82,SSW,193,4.0,6.9,48,0.00,,---,0.00,VWS V14.01,2013-02-03 16:31:00,
2013-02-03 11:32:00,28.0,10.4,28.82,SSW,203,4.0,5.4,47,0.00,,---,0.00,VWS V14.01,2013-02-03 16:32:00,
2013-02-03 11:33:00,28.2,10.6,28.82,SSE,159,2.7,4.9,47,0.00,,---,0.00,VWS V14.01,2013-02-03 16:33:00,
2013-02-03 11:34:00,28.4,10.8,28.82,SSE,153,4.9,4.9,47,0.00,,---,0.00,VWS V14.01,2013-02-03 16:34:00,
2013-02-03 11:35:00,18.3,4.5,28.91,NNW,336,6.9,7.4,54,0.00,,---,0.00,VWS V14.01,2013-02-03 16:35:00,
2013-02-03 11:36:00,28.6,10.9,28.82,South,186,0.0,7.8,47,0.00,,---,0.00,VWS V14.01,2013-02-03 16:36:00,
2013-02-03 11:37:00,28.6,10.9,28.82,SSE,168,4.9,8.7,47,0.00,,---,0.00,VWS V14.01,2013-02-03 16:37:00,
2013-02-03 11:38:00,28.6,10.9,28.82,South,176,0.0,4.9,47,0.00,,---,0.00,VWS V14.01,2013-02-03 16:38:00,
2013-02-03 11:39:00,28.6,10.9,28.82,South,176,0.0,4.5,47,0.00,,---,0.00,VWS V14.01,2013-02-03 16:39:00,
2013-02-03 11:40:00,18.0,3.7,28.91,North,351,6.3,8.7,53,0.00,,---,0.00,VWS V14.01,2013-02-03 16:40:00,
2013-02-03 11:41:00,28.8,11.1,28.82,SW,227,6.3,6.3,47,0.00,,---,0.00,VWS V14.01,2013-02-03 16:41:00,
2013-02-03 11:42:00,28.9,11.2,28.82,SSE,149,4.5,6.7,47,0.00,,---,0.00,VWS V14.01,2013-02-03 16:42:00,
2013-02-03 11:43:00,28.9,10.8,28.82,South,184,3.6,4.9,46,0.00,,---,0.00,VWS V14.01,2013-02-03 16:43:00,
2013-02-03 11:44:00,28.9,10.8,28.82,SW,222,4.0,6.7,46,0.00,,---,0.00,VWS V14.01,2013-02-03 16:44:00,
2013-02-03 11:45:00,18.0,4.1,28.91,WNW,284,12.1,12.1,54,0.00,,---,0.00,VWS V14.01,2013-02-03 16:45:00,
2013-02-03 11:46:00,29.3,11.1,28.82,SW,216,6.7,7.8,46,0.00,,---,0.00,VWS V14.01,2013-02-03 16:46:00,
2013-02-03 11:47:00,29.3,10.6,28.82,South,182,5.4,8.3,45,0.00,,---,0.00,VWS V14.01,2013-02-03 16:47:00,
2013-02-03 11:48:00,29.5,10.8,28.82,SSE,167,5.4,6.7,45,0.00,,---,0.00,VWS V14.01,2013-02-03 16:48:00,
2013-02-03 11:49:00,29.5,10.3,28.82,SE,141,4.0,5.8,44,0.00,,---,0.00,VWS V14.01,2013-02-03 16:49:00,
2013-02-03 11:50:00,17.6,3.8,28.91,NW,316,6.3,10.1,54,0.00,,---,0.00,VWS V14.01,2013-02-03 16:50:00,
2013-02-03 11:51:00,29.7,10.4,28.82,SSE,158,5.4,7.4,44,0.00,,---,0.00,VWS V14.01,2013-02-03 16:51:00,
2013-02-03 11:52:00,29.7,10.4,28.82,SSW,192,6.7,6.9,44,0.00,,---,0.00,VWS V14.01,2013-02-03 16:52:00,
2013-02-03 11:53:00,29.7,10.4,28.82,SW,218,4.0,7.4,44,0.00,,---,0.00,VWS V14.01,2013-02-03 16:53:00,
2013-02-03 11:54:00,29.7,9.9,28.82,SW,225,6.3,6.9,43,0.00,,---,0.00,VWS V14.01,2013-02-03 16:54:00,
2013-02-03 11:55:00,17.8,4.4,28.91,NW,312,9.6,9.6,55,0.00,,---,0.00,VWS V14.01,2013-02-03 16:55:00,
2013-02-03 11:56:00,29.8,10.1,28.82,SE,143,7.8,7.8,43,0.00,,---,0.00,VWS V14.01,2013-02-03 16:56:00,
2013-02-03 11:57:00,30.0,10.2,28.82,SSW,204,3.1,7.8,43,0.00,,---,0.00,VWS V14.01,2013-02-03 16:57:00,
2013-02-03 11:58:00,30.2,10.4,28.82,SSW,205,5.8,5.8,43,0.00,,---,0.00,VWS V14.01,2013-02-03 16:58:00,
2013-02-03 11:59:00,30.2,9.9,28.82,SSW,200,3.6,7.8,42,0.00,,---,0.00,VWS V14.01,2013-02-03 16:59:00,
2013-02-03 12:00:00,30.2,9.9,28.82,SSW,203,4.5,7.4,42,0.00,,---,0.00,VWS V14.01,2013-02-03 17:00:00,
2013-02-03 12:01:00,18.3,4.9,28.91,WSW,242,6.7,11.0,55,0.00,,---,0.00,VWS V14.01,2013-02-03 17:01:00,
2013-02-03 12:02:00,30.2,9.4,28.82,SW,215,3.6,7.8,41,0.00,,---,0.00,VWS V14.01,2013-02-03 17:02:00,
2013-02-03 12:03:00,30.4,9.5,28.82,SW,214,4.0,6.7,41,0.00,,---,0.00,VWS V14.01,2013-02-03 17:03:00,
2013-02-03 12:04:00,30.4,9.5,28.82,South,188,5.4,6.9,41,0.00,,---,0.00,VWS V14.01,2013-02-03 17:04:00,
2013-02-03 12:05:00,30.4,9.5,28.82,South,177,4.5,6.7,41,0.00,,---,0.00,VWS V14.01,2013-02-03 17:05:00,
2013-02-03 12:06:00,18.5,4.6,28.91,NW,311,6.9,11.2,54,0.00,,---,0.00,VWS V14.01,2013-02-03 17:06:00,
2013-02-03 12:07:00,30.4,9.5,28.82,SW,217,7.8,9.2,41,0.00,,---,0.00,VWS V14.01,2013-02-03 17:07:00,
2013-02-03 12:08:00,30.4,9.5,28.82,WSW,245,5.8,7.8,41,0.00,,---,0.00,VWS V14.01,2013-02-03 17:08:00,
2013-02-03 12:09:00,30.4,9.0,28.82,SW,217,4.9,7.8,40,0.00,,---,0.00,VWS V14.01,2013-02-03 17:09:00,
2013-02-03 12:10:00,30.4,9.0,28.82,SSW,193,0.0,5.8,40,0.00,,---,0.00,VWS V14.01,2013-02-03 17:10:00,
2013-02-03 12:11:00,19.6,5.7,28.91,West,280,7.8,11.2,54,0.00,,---,0.00,VWS V14.01,2013-02-03 17:11:00,
2013-02-03 12:12:00,30.4,9.0,28.82,SW,228,5.4,6.9,40,0.00,,---,0.00,VWS V14.01,2013-02-03 17:12:00,
2013-02-03 12:13:00,30.4,9.0,28.82,South,169,4.0,7.8,40,0.00,,---,0.00,VWS V14.01,2013-02-03 17:13:00,
2013-02-03 12:14:00,30.4,8.4,28.82,SSE,159,4.9,6.3,39,0.00,,---,0.00,VWS V14.01,2013-02-03 17:14:00,
2013-02-03 12:15:00,30.6,8.6,28.82,SSW,212,6.9,6.9,39,0.00,,---,0.00,VWS V14.01,2013-02-03 17:15:00,
2013-02-03 12:16:00,19.0,4.3,28.88,WNW,287,8.7,10.1,52,0.00,,---,0.00,VWS V14.01,2013-02-03 17:16:00,
2013-02-03 12:17:00,30.7,9.3,28.82,WSW,252,3.6,6.7,40,0.00,,---,0.00,VWS V14.01,2013-02-03 17:17:00,
2013-02-03 12:18:00,30.7,9.3,28.82,SW,223,0.0,3.6,40,0.00,,---,0.00,VWS V14.01,2013-02-03 17:18:00,
2013-02-03 12:19:00,30.9,9.4,28.82,SW,218,3.1,3.6,40,0.00,,---,0.00,VWS V14.01,2013-02-03 17:19:00,
2013-02-03 12:20:00,31.1,9.6,28.82,SW,224,3.1,4.5,40,0.00,,---,0.00,VWS V14.01,2013-02-03 17:20:00,
2013-02-03 12:21:00,18.5,4.2,28.88,WNW,289,7.8,12.5,53,0.00,,---,0.00,VWS V14.01,2013-02-03 17:21:00,
2013-02-03 12:22:00,31.3,9.8,28.82,SSW,203,0.0,4.9,40,0.00,,---,0.00,VWS V14.01,2013-02-03 17:22:00,
2013-02-03 12:23:00,31.3,9.8,28.82,SSW,203,0.0,3.1,40,0.00,,---,0.00,VWS V14.01,2013-02-03 17:23:00,
2013-02-03 12:24:00,31.5,9.9,28.82,SSW,203,3.6,4.9,40,0.00,,---,0.00,VWS V14.01,2013-02-03 17:24:00,
2013-02-03 12:25:00,31.8,10.3,28.82,South,169,0.0,4.9,40,0.00,,---,0.00,VWS V14.01,2013-02-03 17:25:00,
2013-02-03 12:26:00,18.5,4.6,28.88,WNW,295,6.9,9.6,54,0.00,,---,0.00,VWS V14.01,2013-02-03 17:26:00,
2013-02-03 12:27:00,32.0,9.9,28.82,South,185,2.7,5.8,39,0.00,,---,0.00,VWS V14.01,2013-02-03 17:27:00,
2013-02-03 12:28:00,32.0,9.9,28.82,SSE,166,0.0,6.9,39,0.00,,---,0.00,VWS V14.01,2013-02-03 17:28:00,
2013-02-03 12:29:00,32.0,9.3,28.82,SW,223,4.0,4.9,38,0.00,,---,0.00,VWS V14.01,2013-02-03 17:29:00,
2013-02-03 12:30:00,32.2,8.9,28.82,SW,216,3.6,4.9,37,0.00,,---,0.00,VWS V14.01,2013-02-03 17:30:00,
2013-02-03 12:31:00,19.0,4.7,28.88,WNW,290,4.5,10.5,53,0.00,,---,0.00,VWS V14.01,2013-02-03 17:31:00,
2013-02-03 12:32:00,32.4,9.0,28.82,SSE,151,3.6,4.9,37,0.00,,---,0.00,VWS V14.01,2013-02-03 17:32:00,
2013-02-03 12:33:00,32.4,8.4,28.82,SSE,162,0.0,3.6,36,0.00,,---,0.00,VWS V14.01,2013-02-03 17:33:00,
2013-02-03 12:34:00,32.4,8.4,28.82,SSE,160,3.6,3.6,36,0.00,,---,0.00,VWS V14.01,2013-02-03 17:34:00,
2013-02-03 12:35:00,32.5,8.6,28.82,SW,231,4.9,4.9,36,0.00,,---,0.00,VWS V14.01,2013-02-03 17:35:00,
2013-02-03 12:36:00,19.8,5.4,28.88,West,266,4.9,7.8,53,0.00,,---,0.00,VWS V14.01,2013-02-03 17:36:00,
2013-02-03 12:37:00,32.5,8.6,28.82,SSW,211,4.5,5.4,36,0.00,,---,0.00,VWS V14.01,2013-02-03 17:37:00,
2013-02-03 12:38:00,32.7,8.7,28.82,SSW,212,0.0,4.5,36,0.00,,---,0.00,VWS V14.01,2013-02-03 17:38:00,
2013-02-03 12:39:00,32.7,8.7,28.82,SW,216,0.0,4.0,36,0.00,,---,0.00,VWS V14.01,2013-02-03 17:39:00,
2013-02-03 12:40:00,32.9,8.9,28.82,SSE,150,2.7,5.8,36,0.00,,---,0.00,VWS V14.01,2013-02-03 17:40:00,
2013-02-03 12:41:00,19.0,4.3,28.88,West,262,7.4,8.7,52,0.00,,---,0.00,VWS V14.01,2013-02-03 17:41:00,
2013-02-03 12:42:00,32.9,8.9,28.82,SSW,194,0.0,5.4,36,0.00,,---,0.00,VWS V14.01,2013-02-03 17:42:00,
2013-02-03 12:43:00,32.9,8.9,28.82,SSW,193,0.0,4.5,36,0.00,,---,0.00,VWS V14.01,2013-02-03 17:43:00,
2013-02-03 12:44:00,32.9,8.3,28.82,SSW,206,0.0,4.5,35,0.00,,---,0.00,VWS V14.01,2013-02-03 17:44:00,
2013-02-03 12:45:00,32.9,8.3,28.82,SE,129,4.5,5.8,35,0.00,,---,0.00,VWS V14.01,2013-02-03 17:45:00,
2013-02-03 12:46:00,18.9,4.6,28.91,NNW,341,6.7,9.2,53,0.00,,---,0.00,VWS V14.01,2013-02-03 17:46:00,
2013-02-03 12:47:00,32.9,8.3,28.82,SSE,165,3.6,4.5,35,0.00,,---,0.00,VWS V14.01,2013-02-03 17:47:00,
2013-02-03 12:48:00,32.9,7.6,28.82,SSE,165,3.1,3.6,34,0.00,,---,0.00,VWS V14.01,2013-02-03 17:48:00,
2013-02-03 12:49:00,32.9,7.6,28.82,SSE,165,0.0,3.6,34,0.00,,---,0.00,VWS V14.01,2013-02-03 17:49:00,
2013-02-03 12:50:00,32.9,7.6,28.82,SSE,165,0.0,0.0,34,0.00,,---,0.00,VWS V14.01,2013-02-03 17:50:00,
2013-02-03 12:51:00,19.4,5.5,28.91,NNW,347,6.9,7.8,54,0.00,,---,0.00,VWS V14.01,2013-02-03 17:51:00,
2013-02-03 12:52:00,33.1,7.8,28.82,SSE,165,0.0,0.0,34,0.00,,---,0.00,VWS V14.01,2013-02-03 17:52:00,
2013-02-03 12:53:00,33.3,8.6,28.82,SSE,165,0.0,0.0,35,0.00,,---,0.00,VWS V14.01,2013-02-03 17:53:00,
2013-02-03 12:54:00,33.3,8.6,28.82,SW,217,4.5,4.9,35,0.00,,---,0.00,VWS V14.01,2013-02-03 17:54:00,
2013-02-03 12:55:00,33.3,8.6,28.82,SW,235,0.0,5.4,35,0.00,,---,0.00,VWS V14.01,2013-02-03 17:55:00,
2013-02-03 12:56:00,19.8,5.8,28.91,SW,231,8.3,10.5,54,0.00,,---,0.00,VWS V14.01,2013-02-03 17:56:00,
2013-02-03 12:57:00,33.3,8.6,28.82,West,278,2.7,5.4,35,0.00,,---,0.00,VWS V14.01,2013-02-03 17:57:00,
2013-02-03 12:58:00,33.1,7.8,28.82,SSW,194,0.0,5.4,34,0.00,,---,0.00,VWS V14.01,2013-02-03 17:58:00,
2013-02-03 12:59:00,32.9,8.3,28.82,WSW,250,4.9,8.3,35,0.00,,---,0.00,VWS V14.01,2013-02-03 17:59:00,
2013-02-03 13:00:00,32.7,8.1,28.82,SSW,206,4.5,5.8,35,0.00,,---,0.00,VWS V14.01,2013-02-03 18:00:00,
2013-02-03 13:01:00,19.4,5.1,28.88,WNW,301,6.9,13.4,53,0.00,,---,0.00,VWS V14.01,2013-02-03 18:01:00,
2013-02-03 13:02:00,32.5,7.9,28.82,SSW,213,6.3,7.4,35,0.00,,---,0.00,VWS V14.01,2013-02-03 18:02:00,
2013-02-03 13:03:00,32.5,7.9,28.82,SSW,212,2.7,6.3,35,0.00,,---,0.00,VWS V14.01,2013-02-03 18:03:00,
2013-02-03 13:04:00,32.5,7.9,28.82,South,177,4.0,4.5,35,0.00,,---,0.00,VWS V14.01,2013-02-03 18:04:00,
2013-02-03 13:05:00,32.5,8.6,28.82,SSW,213,3.1,4.9,36,0.00,,---,0.00,VWS V14.01,2013-02-03 18:05:00,
2013-02-03 13:06:00,18.9,4.6,28.88,WNW,284,8.7,11.2,53,0.00,,---,0.00,VWS V14.01,2013-02-03 18:06:00,
2013-02-03 13:07:00,32.5,9.2,28.79,SSW,198,4.5,4.5,37,0.00,,---,0.00,VWS V14.01,2013-02-03 18:07:00,
2013-02-03 13:08:00,32.5,9.8,28.79,SW,223,5.4,6.3,38,0.00,,---,0.00,VWS V14.01,2013-02-03 18:08:00,
2013-02-03 13:09:00,32.5,9.8,28.79,WSW,248,5.4,5.8,38,0.00,,---,0.00,VWS V14.01,2013-02-03 18:09:00,
2013-02-03 13:10:00,32.5,9.2,28.79,SSW,206,2.7,5.8,37,0.00,,---,0.00,VWS V14.01,2013-02-03 18:10:00,
2013-02-03 13:11:00,19.4,5.5,28.88,WNW,293,6.3,11.2,54,0.00,,---,0.00,VWS V14.01,2013-02-03 18:11:00,
2013-02-03 13:12:00,32.5,9.8,28.79,SSW,199,4.9,5.8,38,0.00,,---,0.00,VWS V14.01,2013-02-03 18:12:00,
2013-02-03 13:13:00,32.5,9.8,28.79,South,179,4.0,4.9,38,0.00,,---,0.00,VWS V14.01,2013-02-03 18:13:00,
2013-02-03 13:14:00,32.5,9.8,28.79,SSW,209,0.0,5.8,38,0.00,,---,0.00,VWS V14.01,2013-02-03 18:14:00,
2013-02-03 13:15:00,32.5,9.8,28.79,SSW,211,5.8,6.7,38,0.00,,---,0.00,VWS V14.01,2013-02-03 18:15:00,
2013-02-03 13:16:00,19.6,5.2,28.88,NNW,329,7.8,9.2,53,0.00,,---,0.00,VWS V14.01,2013-02-03 18:16:00,
2013-02-03 13:17:00,32.5,9.8,28.79,SW,229,6.7,6.7,38,0.00,,---,0.00,VWS V14.01,2013-02-03 18:17:00,
2013-02-03 13:18:00,32.5,9.2,28.79,SSW,210,3.6,8.3,37,0.00,,---,0.00,VWS V14.01,2013-02-03 18:18:00,
2013-02-03 13:19:00,32.5,9.8,28.79,SW,216,3.6,3.6,38,0.00,,---,0.00,VWS V14.01,2013-02-03 18:19:00,
2013-02-03 13:20:00,32.5,9.8,28.79,SSW,205,0.0,5.4,38,0.00,,---,0.00,VWS V14.01,2013-02-03 18:20:00,
2013-02-03 13:21:00,19.4,5.1,28.88,NW,315,6.9,7.4,53,0.00,,---,0.00,VWS V14.01,2013-02-03 18:21:00,
2013-02-03 13:22:00,32.5,9.8,28.79,SSW,211,2.7,4.0,38,0.00,,---,0.00,VWS V14.01,2013-02-03 18:22:00,
2013-02-03 13:23:00,32.7,10.5,28.79,SSW,211,0.0,4.9,39,0.00,,---,0.00,VWS V14.01,2013-02-03 18:23:00,
2013-02-03 13:24:00,32.7,10.5,28.79,SW,231,4.0,6.3,39,0.00,,---,0.00,VWS V14.01,2013-02-03 18:24:00,
2013-02-03 13:25:00,32.7,10.5,28.79,SSW,210,6.7,6.7,39,0.00,,---,0.00,VWS V14.01,2013-02-03 18:25:00,
2013-02-03 13:26:00,19.6,5.7,28.88,WNW,295,8.3,8.3,54,0.00,,---,0.00,VWS V14.01,2013-02-03 18:26:00,
2013-02-03 13:27:00,32.7,9.9,28.79,West,263,4.9,6.3,38,0.00,,---,0.00,VWS V14.01,2013-02-03 18:27:00,
2013-02-03 13:28:00,32.7,10.5,28.79,SSW,204,6.3,6.3,39,0.00,,---,0.00,VWS V14.01,2013-02-03 18:28:00,
2013-02-03 13:29:00,32.7,10.5,28.79,SW,229,4.5,7.4,39,0.00,,---,0.00,VWS V14.01,2013-02-03 18:29:00,
2013-02-03 13:30:00,32.5,10.4,28.79,SW,228,4.5,4.9,39,0.00,,---,0.00,VWS V14.01,2013-02-03 18:30:00,
2013-02-03 13:31:00,19.8,5.4,28.91,NW,312,6.3,11.2,53,0.00,,---,0.00,VWS V14.01,2013-02-03 18:31:00,
2013-02-03 13:32:00,32.5,10.4,28.79,WSW,242,6.9,6.9,39,0.00,,---,0.00,VWS V14.01,2013-02-03 18:32:00,
2013-02-03 13:33:00,32.5,10.4,28.79,SSW,207,6.9,6.9,39,0.00,,---,0.00,VWS V14.01,2013-02-03 18:33:00,
2013-02-03 13:34:00,32.4,10.2,28.79,SW,225,0.0,6.9,39,0.00,,---,0.00,VWS V14.01,2013-02-03 18:34:00,
2013-02-03 13:35:00,32.4,10.2,28.79,SSW,212,4.5,5.4,39,0.00,,---,0.00,VWS V14.01,2013-02-03 18:35:00,
2013-02-03 13:36:00,19.9,6.0,28.91,West,276,8.7,10.1,54,0.00,,---,0.00,VWS V14.01,2013-02-03 18:36:00,
2013-02-03 13:37:00,32.2,10.0,28.79,SW,217,5.4,6.9,39,0.00,,---,0.00,VWS V14.01,2013-02-03 18:37:00,
2013-02-03 13:38:00,32.4,10.2,28.79,SSE,166,4.0,5.4,39,0.00,,---,0.00,VWS V14.01,2013-02-03 18:38:00,
2013-02-03 13:39:00,32.4,10.8,28.79,SW,228,0.0,4.0,40,0.00,,---,0.00,VWS V14.01,2013-02-03 18:39:00,
2013-02-03 13:40:00,32.4,10.8,28.79,SW,236,3.6,4.9,40,0.00,,---,0.00,VWS V14.01,2013-02-03 18:40:00,
2013-02-03 13:41:00,19.9,5.6,28.91,WNW,284,4.0,10.5,53,0.00,,---,0.00,VWS V14.01,2013-02-03 18:41:00,
2013-02-03 13:42:00,32.4,10.8,28.79,WSW,254,3.6,5.4,40,0.00,,---,0.00,VWS V14.01,2013-02-03 18:42:00,
2013-02-03 13:43:00,32.5,10.9,28.79,WSW,251,4.0,5.4,40,0.00,,---,0.00,VWS V14.01,2013-02-03 18:43:00,
2013-02-03 13:44:00,32.5,10.9,28.79,SW,227,5.4,6.3,40,0.00,,---,0.00,VWS V14.01,2013-02-03 18:44:00,
2013-02-03 13:45:00,32.5,10.9,28.79,SW,231,3.6,7.4,40,0.00,,---,0.00,VWS V14.01,2013-02-03 18:45:00,
2013-02-03 13:46:00,20.1,5.7,28.91,WNW,303,11.2,11.2,53,0.00,,---,0.00,VWS V14.01,2013-02-03 18:46:00,
2013-02-03 13:47:00,32.7,11.1,28.79,SW,225,4.9,4.9,40,0.00,,---,0.00,VWS V14.01,2013-02-03 18:47:00,
2013-02-03 13:48:00,32.9,11.8,28.79,SW,225,3.1,4.9,41,0.00,,---,0.00,VWS V14.01,2013-02-03 18:48:00,
2013-02-03 13:49:00,32.9,11.2,28.79,SW,227,0.0,3.6,40,0.00,,---,0.00,VWS V14.01,2013-02-03 18:49:00,
2013-02-03 13:50:00,33.1,11.4,28.79,SW,227,0.0,3.1,40,0.00,,---,0.00,VWS V14.01,2013-02-03 18:50:00,
2013-02-03 13:51:00,19.6,5.7,28.91,WNW,294,6.9,11.2,54,0.00,,---,0.00,VWS V14.01,2013-02-03 18:51:00,
2013-02-03 13:52:00,33.4,12.3,28.79,SW,225,3.1,4.5,41,0.00,,---,0.00,VWS V14.01,2013-02-03 18:52:00,
2013-02-03 13:53:00,33.4,11.7,28.79,SSW,204,3.1,6.3,40,0.00,,---,0.00,VWS V14.01,2013-02-03 18:53:00,
2013-02-03 13:54:00,33.6,11.9,28.79,SSW,213,3.1,4.0,40,0.00,,---,0.00,VWS V14.01,2013-02-03 18:54:00,
2013-02-03 13:55:00,33.6,11.9,28.79,SW,219,4.9,4.9,40,0.00,,---,0.00,VWS V14.01,2013-02-03 18:55:00,
2013-02-03 13:56:00,33.8,12.1,28.79,SW,233,5.4,6.7,40,0.00,,---,0.00,VWS V14.01,2013-02-03 18:56:00,
2013-02-03 13:57:00,19.8,5.4,28.91,West,276,5.4,11.0,53,0.00,,---,0.00,VWS V14.01,2013-02-03 18:57:00,
2013-02-03 13:58:00,33.8,12.1,28.79,SW,215,3.6,4.0,40,0.00,,---,0.00,VWS V14.01,2013-02-03 18:58:00,
2013-02-03 13:59:00,33.8,12.1,28.79,SW,221,3.1,4.5,40,0.00,,---,0.00,VWS V14.01,2013-02-03 18:59:00,
2013-02-03 14:00:00,34.0,12.2,28.79,South,186,0.0,3.6,40,0.00,,---,0.00,VWS V14.01,2013-02-03 19:00:00,
2013-02-03 14:01:00,34.0,12.2,28.79,SSE,167,6.9,6.9,40,0.00,,---,0.00,VWS V14.01,2013-02-03 19:01:00,
2013-02-03 14:02:00,20.5,6.1,28.91,WNW,291,6.7,8.7,53,0.00,,---,0.00,VWS V14.01,2013-02-03 19:02:00,
2013-02-03 14:03:00,34.0,11.6,28.79,SSW,212,3.6,4.9,39,0.00,,---,0.00,VWS V14.01,2013-02-03 19:03:00,
2013-02-03 14:04:00,34.0,11.1,28.79,SW,214,3.6,4.9,38,0.00,,---,0.00,VWS V14.01,2013-02-03 19:04:00,
2013-02-03 14:05:00,34.2,11.2,28.79,SW,214,0.0,3.6,38,0.00,,---,0.00,VWS V14.01,2013-02-03 19:05:00,
2013-02-03 14:06:00,34.3,12.0,28.76,SW,214,0.0,0.0,39,0.00,,---,0.00,VWS V14.01,2013-02-03 19:06:00,
2013-02-03 14:07:00,20.5,6.1,28.91,NW,305,9.6,12.5,53,0.00,,---,0.00,VWS V14.01,2013-02-03 19:07:00,
2013-02-03 14:08:00,34.3,12.0,28.76,West,270,3.6,5.8,39,0.00,,---,0.00,VWS V14.01,2013-02-03 19:08:00,
2013-02-03 14:09:00,34.3,12.0,28.76,WSW,241,4.0,4.5,39,0.00,,---,0.00,VWS V14.01,2013-02-03 19:09:00,
2013-02-03 14:10:00,34.3,11.4,28.76,SSW,207,5.8,6.3,38,0.00,,---,0.00,VWS V14.01,2013-02-03 19:10:00,
2013-02-03 14:11:00,34.3,11.4,28.76,SW,214,2.7,5.8,38,0.00,,---,0.00,VWS V14.01,2013-02-03 19:11:00,
2013-02-03 14:12:00,20.8,6.4,28.91,NW,314,10.1,10.5,53,0.00,,---,0.00,VWS V14.01,2013-02-03 19:12:00,
2013-02-03 14:13:00,34.3,11.4,28.76,WSW,249,3.1,4.9,38,0.00,,---,0.00,VWS V14.01,2013-02-03 19:13:00,
2013-02-03 14:14:00,34.3,11.4,28.76,WSW,249,0.0,3.6,38,0.00,,---,0.00,VWS V14.01,2013-02-03 19:14:00,
2013-02-03 14:15:00,34.3,12.0,28.76,SW,226,5.4,5.4,39,0.00,,---,0.00,VWS V14.01,2013-02-03 19:15:00,
2013-02-03 14:16:00,34.3,12.0,28.76,WSW,249,5.8,7.4,39,0.00,,---,0.00,VWS V14.01,2013-02-03 19:16:00,
2013-02-03 14:17:00,20.5,6.1,28.91,WNW,302,10.5,12.1,53,0.00,,---,0.00,VWS V14.01,2013-02-03 19:17:00,
2013-02-03 14:18:00,34.3,12.0,28.76,SW,228,6.3,6.9,39,0.00,,---,0.00,VWS V14.01,2013-02-03 19:18:00,
2013-02-03 14:19:00,34.3,12.0,28.76,SSW,194,3.6,6.3,39,0.00,,---,0.00,VWS V14.01,2013-02-03 19:19:00,
2013-02-03 14:20:00,34.2,11.8,28.76,West,264,6.3,6.3,39,0.00,,---,0.00,VWS V14.01,2013-02-03 19:20:00,
2013-02-03 14:21:00,34.0,11.6,28.76,SSW,209,3.6,6.3,39,0.00,,---,0.00,VWS V14.01,2013-02-03 19:21:00,
2013-02-03 14:22:00,20.7,6.7,28.91,West,274,4.9,10.5,54,0.00,,---,0.00,VWS V14.01,2013-02-03 19:22:00,
2013-02-03 14:23:00,34.0,11.6,28.76,SSW,201,0.0,6.9,39,0.00,,---,0.00,VWS V14.01,2013-02-03 19:23:00,
2013-02-03 14:24:00,34.0,11.6,28.76,SW,229,0.0,4.5,39,0.00,,---,0.00,VWS V14.01,2013-02-03 19:24:00,
2013-02-03 14:25:00,34.0,11.6,28.76,SW,222,4.5,6.7,39,0.00,,---,0.00,VWS V14.01,2013-02-03 19:25:00,
2013-02-03 14:26:00,33.8,11.5,28.76,SW,225,6.7,6.9,39,0.00,,---,0.00,VWS V14.01,2013-02-03 19:26:00,
2013-02-03 14:27:00,20.8,6.8,28.91,West,262,10.1,10.5,54,0.00,,---,0.00,VWS V14.01,2013-02-03 19:27:00,
2013-02-03 14:28:00,33.8,11.5,28.76,SSW,206,2.7,3.6,39,0.00,,---,0.00,VWS V14.01,2013-02-03 19:28:00,
2013-02-03 14:29:00,34.0,12.2,28.76,South,171,3.1,4.5,40,0.00,,---,0.00,VWS V14.01,2013-02-03 19:29:00,
2013-02-03 14:30:00,34.0,12.2,28.76,WSW,252,3.1,4.9,40,0.00,,---,0.00,VWS V14.01,2013-02-03 19:30:00,
2013-02-03 14:31:00,33.8,12.1,28.76,SW,225,3.6,6.9,40,0.00,,---,0.00,VWS V14.01,2013-02-03 19:31:00,
2013-02-03 14:32:00,20.8,6.8,28.91,WNW,286,7.4,11.2,54,0.00,,---,0.00,VWS V14.01,2013-02-03 19:32:00,
2013-02-03 14:33:00,34.0,12.2,28.76,SW,225,6.7,6.7,40,0.00,,---,0.00,VWS V14.01,2013-02-03 19:33:00,
2013-02-03 14:34:00,34.0,12.2,28.76,SSW,211,4.5,6.7,40,0.00,,---,0.00,VWS V14.01,2013-02-03 19:34:00,
2013-02-03 14:35:00,34.0,12.2,28.76,SSW,199,2.7,4.5,40,0.00,,---,0.00,VWS V14.01,2013-02-03 19:35:00,
2013-02-03 14:36:00,34.0,12.2,28.76,SW,233,4.9,4.9,40,0.00,,---,0.00,VWS V14.01,2013-02-03 19:36:00,
2013-02-03 14:37:00,20.7,7.1,28.91,WNW,301,10.1,11.0,55,0.00,,---,0.00,VWS V14.01,2013-02-03 19:37:00,
2013-02-03 14:38:00,34.2,12.4,28.76,SW,216,3.1,4.5,40,0.00,,---,0.00,VWS V14.01,2013-02-03 19:38:00,
2013-02-03 14:39:00,34.3,12.5,28.76,SW,216,0.0,4.0,40,0.00,,---,0.00,VWS V14.01,2013-02-03 19:39:00,
2013-02-03 14:40:00,34.3,12.5,28.76,SSW,210,3.1,5.8,40,0.00,,---,0.00,VWS V14.01,2013-02-03 19:40:00,
2013-02-03 14:41:00,34.3,12.5,28.76,SW,217,4.9,4.9,40,0.00,,---,0.00,VWS V14.01,2013-02-03 19:41:00,
2013-02-03 14:42:00,20.5,6.9,28.91,NW,316,6.3,9.2,55,0.00,,---,0.00,VWS V14.01,2013-02-03 19:42:00,
2013-02-03 14:43:00,34.3,12.5,28.76,SSW,197,3.1,4.5,40,0.00,,---,0.00,VWS V14.01,2013-02-03 19:43:00,
2013-02-03 14:44:00,34.3,12.5,28.76,SSW,202,2.7,4.5,40,0.00,,---,0.00,VWS V14.01,2013-02-03 19:44:00,
2013-02-03 14:45:00,34.5,12.7,28.76,SW,215,3.6,5.4,40,0.00,,---,0.00,VWS V14.01,2013-02-03 19:45:00,
2013-02-03 14:46:00,34.5,12.7,28.76,SSW,211,2.7,5.4,40,0.00,,---,0.00,VWS V14.01,2013-02-03 19:46:00,
2013-02-03 14:47:00,20.8,7.2,28.91,WSW,254,6.7,11.2,55,0.00,,---,0.00,VWS V14.01,2013-02-03 19:47:00,
2013-02-03 14:48:00,34.5,12.7,28.76,WSW,238,4.0,4.0,40,0.00,,---,0.00,VWS V14.01,2013-02-03 19:48:00,
2013-02-03 14:49:00,34.5,12.7,28.76,SW,223,5.4,6.3,40,0.00,,---,0.00,VWS V14.01,2013-02-03 19:49:00,
2013-02-03 14:50:00,34.5,12.7,28.76,SSW,213,0.0,5.8,40,0.00,,---,0.00,VWS V14.01,2013-02-03 19:50:00,
2013-02-03 14:51:00,34.5,12.7,28.76,South,185,3.1,6.9,40,0.00,,---,0.00,VWS V14.01,2013-02-03 19:51:00,
2013-02-03 14:52:00,20.5,6.9,28.91,WNW,299,7.4,11.6,55,0.00,,---,0.00,VWS V14.01,2013-02-03 19:52:00,
2013-02-03 14:53:00,34.3,12.0,28.76,SSW,199,7.4,7.4,39,0.00,,---,0.00,VWS V14.01,2013-02-03 19:53:00,
2013-02-03 14:54:00,34.3,11.4,28.76,SW,232,4.9,7.4,38,0.00,,---,0.00,VWS V14.01,2013-02-03 19:54:00,
2013-02-03 14:55:00,34.3,11.4,28.76,SW,232,3.1,4.9,38,0.00,,---,0.00,VWS V14.01,2013-02-03 19:55:00,
2013-02-03 14:56:00,34.3,11.4,28.76,SW,231,4.0,5.4,38,0.00,,---,0.00,VWS V14.01,2013-02-03 19:56:00,
2013-02-03 14:57:00,20.8,7.2,28.91,WNW,299,8.3,10.1,55,0.00,,---,0.00,VWS V14.01,2013-02-03 19:57:00,
2013-02-03 14:58:00,34.3,11.4,28.76,SW,225,3.1,5.4,38,0.00,,---,0.00,VWS V14.01,2013-02-03 19:58:00,
2013-02-03 14:59:00,34.3,12.0,28.76,South,184,3.6,5.4,39,0.00,,---,0.00,VWS V14.01,2013-02-03 19:59:00,
2013-02-03 15:00:00,34.5,12.1,28.76,SW,225,4.0,4.9,39,0.00,,---,0.00,VWS V14.01,2013-02-03 20:00:00,
2013-02-03 15:01:00,34.5,12.7,28.76,SSW,212,3.1,4.5,40,0.00,,---,0.00,VWS V14.01,2013-02-03 20:01:00,
2013-02-03 15:02:00,21.0,7.4,28.91,WNW,282,9.6,15.2,55,0.00,,---,0.00,VWS V14.01,2013-02-03 20:02:00,
2013-02-03 15:03:00,34.5,12.1,28.76,SSW,208,0.0,6.7,39,0.00,,---,0.00,VWS V14.01,2013-02-03 20:03:00,
2013-02-03 15:04:00,34.5,12.1,28.76,South,175,3.6,5.8,39,0.00,,---,0.00,VWS V14.01,2013-02-03 20:04:00,
2013-02-03 15:05:00,34.5,12.7,28.76,SW,224,6.9,6.9,40,0.00,,---,0.00,VWS V14.01,2013-02-03 20:05:00,
2013-02-03 15:06:00,34.5,12.7,28.76,South,189,4.5,6.9,40,0.00,,---,0.00,VWS V14.01,2013-02-03 20:06:00,
2013-02-03 15:07:00,34.7,12.9,28.76,SSW,194,4.0,5.4,40,0.00,,---,0.00,VWS V14.01,2013-02-03 20:07:00,
2013-02-03 15:08:00,21.0,7.4,28.91,West,279,9.6,10.1,55,0.00,,---,0.00,VWS V14.01,2013-02-03 20:08:00,
2013-02-03 15:09:00,34.9,12.4,28.76,SW,235,0.0,4.0,39,0.00,,---,0.00,VWS V14.01,2013-02-03 20:09:00,
2013-02-03 15:10:00,35.1,13.2,28.76,SW,231,6.9,6.9,40,0.00,,---,0.00,VWS V14.01,2013-02-03 20:10:00,
2013-02-03 15:11:00,35.1,12.6,28.76,SSW,212,5.4,6.9,39,0.00,,---,0.00,VWS V14.01,2013-02-03 20:11:00,
2013-02-03 15:12:00,35.1,12.6,28.76,SW,222,3.1,5.4,39,0.00,,---,0.00,VWS V14.01,2013-02-03 20:12:00,
2013-02-03 15:13:00,20.7,7.5,28.91,WSW,253,11.0,11.0,56,0.00,,---,0.00,VWS V14.01,2013-02-03 20:13:00,
2013-02-03 15:14:00,35.2,12.8,28.76,SSW,205,5.8,5.8,39,0.00,,---,0.00,VWS V14.01,2013-02-03 20:14:00,
2013-02-03 15:15:00,35.2,12.8,28.76,SSW,209,3.1,5.8,39,0.00,,---,0.00,VWS V14.01,2013-02-03 20:15:00,
2013-02-03 15:16:00,35.4,12.9,28.76,WSW,240,4.5,4.5,39,0.00,,---,0.00,VWS V14.01,2013-02-03 20:16:00,
2013-02-03 15:17:00,35.4,12.9,28.76,WSW,245,0.0,4.9,39,0.00,,---,0.00,VWS V14.01,2013-02-03 20:17:00,
2013-02-03 15:18:00,21.2,8.4,28.91,West,267,4.0,5.8,57,0.00,,---,0.00,VWS V14.01,2013-02-03 20:18:00,
2013-02-03 15:19:00,35.6,13.1,28.76,SW,225,0.0,4.5,39,0.00,,---,0.00,VWS V14.01,2013-02-03 20:19:00,
2013-02-03 15:20:00,35.8,13.3,28.76,SSE,152,4.0,4.0,39,0.00,,---,0.00,VWS V14.01,2013-02-03 20:20:00,
2013-02-03 15:21:00,35.8,12.7,28.76,SSE,158,5.4,6.7,38,0.00,,---,0.00,VWS V14.01,2013-02-03 20:21:00,
2013-02-03 15:22:00,35.6,11.9,28.76,SSE,159,3.1,5.4,37,0.00,,---,0.00,VWS V14.01,2013-02-03 20:22:00,
2013-02-03 15:23:00,35.6,11.3,28.76,SW,232,4.0,5.4,36,0.00,,---,0.00,VWS V14.01,2013-02-03 20:23:00,
2013-02-03 15:24:00,21.2,8.4,28.91,WSW,247,7.8,9.6,57,0.00,,---,0.00,VWS V14.01,2013-02-03 20:24:00,
2013-02-03 15:25:00,35.6,11.9,28.76,SW,229,4.5,5.8,37,0.00,,---,0.00,VWS V14.01,2013-02-03 20:25:00,
2013-02-03 15:26:00,35.6,11.9,28.76,SSW,201,4.0,5.4,37,0.00,,---,0.00,VWS V14.01,2013-02-03 20:26:00,
2013-02-03 15:27:00,35.6,11.9,28.76,SSW,213,3.6,4.5,37,0.00,,---,0.00,VWS V14.01,2013-02-03 20:27:00,
2013-02-03 15:28:00,35.6,12.5,28.76,West,270,4.0,5.4,38,0.00,,---,0.00,VWS V14.01,2013-02-03 20:28:00,
2013-02-03 15:29:00,21.6,8.7,28.94,NNW,345,7.4,9.6,57,0.00,,---,0.00,VWS V14.01,2013-02-03 20:29:00,
2013-02-03 15:30:00,35.6,13.1,28.76,SW,235,3.6,4.5,39,0.00,,---,0.00,VWS V14.01,2013-02-03 20:30:00,
2013-02-03 15:31:00,35.8,13.3,28.76,SW,216,4.9,4.9,39,0.00,,---,0.00,VWS V14.01,2013-02-03 20:31:00,
2013-02-03 15:32:00,35.6,13.1,28.76,SW,235,5.4,7.4,39,0.04,,---,0.04,VWS V14.01,2013-02-03 20:32:00,
2013-02-03 15:33:00,35.6,13.1,28.76,South,176,3.1,6.3,39,0.04,,---,0.04,VWS V14.01,2013-02-03 20:33:00,
2013-02-03 15:34:00,21.6,8.7,28.94,NW,317,6.3,8.7,57,0.00,,---,0.00,VWS V14.01,2013-02-03 20:34:00,
2013-02-03 15:35:00,35.6,13.1,28.76,South,189,5.4,5.8,39,0.04,,---,0.04,VWS V14.01,2013-02-03 20:35:00,
2013-02-03 15:36:00,35.6,13.1,28.73,SSW,209,5.8,6.7,39,0.04,,---,0.04,VWS V14.01,2013-02-03 20:36:00,
2013-02-03 15:37:00,35.4,12.9,28.73,SW,229,3.6,5.8,39,0.04,,---,0.04,VWS V14.01,2013-02-03 20:37:00,
2013-02-03 15:38:00,35.4,12.9,28.73,WSW,252,2.7,4.5,39,0.04,,---,0.04,VWS V14.01,2013-02-03 20:38:00,
2013-02-03 15:39:00,21.4,8.1,28.94,NW,312,7.4,12.5,56,0.00,,---,0.00,VWS V14.01,2013-02-03 20:39:00,
2013-02-03 15:40:00,35.4,13.5,28.73,SW,226,4.9,5.4,40,0.04,,---,0.04,VWS V14.01,2013-02-03 20:40:00,
2013-02-03 15:41:00,35.2,13.4,28.73,SSW,211,3.1,5.8,40,0.04,,---,0.04,VWS V14.01,2013-02-03 20:41:00,
2013-02-03 15:42:00,35.2,13.4,28.73,West,264,5.8,6.3,40,0.04,,---,0.04,VWS V14.01,2013-02-03 20:42:00,
2013-02-03 15:43:00,35.2,13.4,28.73,SW,219,4.9,5.8,40,0.04,,---,0.04,VWS V14.01,2013-02-03 20:43:00,
2013-02-03 15:44:00,21.2,8.0,28.94,SW,230,11.0,15.2,56,0.00,,---,0.00,VWS V14.01,2013-02-03 20:44:00,
2013-02-03 15:45:00,35.2,13.4,28.73,SSW,209,3.6,4.9,40,0.04,,---,0.04,VWS V14.01,2013-02-03 20:45:00,
2013-02-03 15:46:00,35.2,13.4,28.73,SSW,208,3.6,4.0,40,0.04,,---,0.04,VWS V14.01,2013-02-03 20:46:00,
2013-02-03 15:47:00,35.2,13.4,28.73,SSW,209,6.7,6.7,40,0.04,,---,0.04,VWS V14.01,2013-02-03 20:47:00,
2013-02-03 15:48:00,35.2,13.4,28.73,South,179,4.5,6.7,40,0.04,,---,0.04,VWS V14.01,2013-02-03 20:48:00,
2013-02-03 15:49:00,21.7,8.9,28.94,NW,324,6.7,10.1,57,0.00,,---,0.00,VWS V14.01,2013-02-03 20:49:00,
2013-02-03 15:50:00,35.1,13.2,28.73,SSW,196,5.4,5.4,40,0.04,,---,0.04,VWS V14.01,2013-02-03 20:50:00,
2013-02-03 15:51:00,35.1,13.2,28.73,SSW,206,4.0,5.4,40,0.04,,---,0.04,VWS V14.01,2013-02-03 20:51:00,
2013-02-03 15:52:00,35.1,13.2,28.73,South,177,4.0,5.4,40,0.04,,---,0.04,VWS V14.01,2013-02-03 20:52:00,
2013-02-03 15:53:00,35.1,13.2,28.73,South,179,5.4,6.3,40,0.04,,---,0.04,VWS V14.01,2013-02-03 20:53:00,
2013-02-03 15:54:00,21.6,8.7,28.94,WSW,247,9.2,11.2,57,0.00,,---,0.00,VWS V14.01,2013-02-03 20:54:00,
2013-02-03 15:55:00,34.9,13.0,28.73,SSE,152,3.1,6.7,40,0.04,,---,0.04,VWS V14.01,2013-02-03 20:55:00,
2013-02-03 15:56:00,34.9,13.0,28.73,SW,216,3.6,5.8,40,0.04,,---,0.04,VWS V14.01,2013-02-03 20:56:00,
2013-02-03 15:57:00,34.7,12.9,28.73,WSW,254,6.9,6.9,40,0.04,,---,0.04,VWS V14.01,2013-02-03 20:57:00,
2013-02-03 15:58:00,34.7,12.9,28.73,SE,139,3.6,6.9,40,0.04,,---,0.04,VWS V14.01,2013-02-03 20:58:00,
2013-02-03 15:59:00,21.4,8.5,28.94,West,259,6.3,13.9,57,0.00,,---,0.00,VWS V14.01,2013-02-03 20:59:00,
2013-02-03 16:00:00,34.7,12.9,28.73,SW,221,3.1,8.7,40,0.04,,---,0.04,VWS V14.01,2013-02-03 21:00:00,
2013-02-03 16:01:00,34.7,12.9,28.73,SW,236,4.5,5.8,40,0.04,,---,0.04,VWS V14.01,2013-02-03 21:01:00,
2013-02-03 16:02:00,34.7,12.9,28.73,SW,228,5.4,6.3,40,0.04,,---,0.04,VWS V14.01,2013-02-03 21:02:00,
2013-02-03 16:03:00,34.7,12.9,28.73,SSW,211,3.6,5.4,40,0.04,,---,0.04,VWS V14.01,2013-02-03 21:03:00,
2013-02-03 16:04:00,21.7,9.6,28.94,WNW,288,7.8,9.6,59,0.00,,---,0.00,VWS V14.01,2013-02-03 21:04:00,
2013-02-03 16:05:00,34.9,13.0,28.73,SSW,211,0.0,4.0,40,0.04,,---,0.04,VWS V14.01,2013-02-03 21:05:00,
2013-02-03 16:06:00,35.1,13.8,28.73,SSW,211,3.6,4.0,41,0.04,,---,0.04,VWS V14.01,2013-02-03 21:06:00,
2013-02-03 16:07:00,35.1,13.8,28.73,SW,215,3.6,5.8,41,0.04,,---,0.04,VWS V14.01,2013-02-03 21:07:00,
2013-02-03 16:08:00,35.2,13.9,28.73,SSW,201,2.7,5.8,41,0.04,,---,0.04,VWS V14.01,2013-02-03 21:08:00,
2013-02-03 16:09:00,21.9,10.2,28.94,WNW,290,6.9,9.6,60,0.00,,---,0.00,VWS V14.01,2013-02-03 21:09:00,
2013-02-03 16:10:00,35.4,13.5,28.73,SE,144,6.3,6.7,40,0.04,,---,0.04,VWS V14.01,2013-02-03 21:10:00,
2013-02-03 16:11:00,35.4,13.5,28.73,SSE,159,0.0,6.7,40,0.04,,---,0.04,VWS V14.01,2013-02-03 21:11:00,
2013-02-03 16:12:00,35.2,13.4,28.73,SSW,195,2.7,5.4,40,0.04,,---,0.04,VWS V14.01,2013-02-03 21:12:00,
2013-02-03 16:13:00,35.2,13.4,28.73,SSW,195,0.0,4.5,40,0.04,,---,0.04,VWS V14.01,2013-02-03 21:13:00,
2013-02-03 16:14:00,35.4,13.5,28.73,SSW,212,2.7,4.9,40,0.04,,---,0.04,VWS V14.01,2013-02-03 21:14:00,
2013-02-03 16:15:00,22.6,10.5,28.94,NNW,330,9.6,11.2,59,0.00,,---,0.00,VWS V14.01,2013-02-03 21:15:00,
2013-02-03 16:16:00,35.4,13.5,28.73,SSW,203,0.0,4.5,40,0.04,,---,0.04,VWS V14.01,2013-02-03 21:16:00,
2013-02-03 16:17:00,35.6,13.7,28.73,SSW,203,0.0,3.6,40,0.04,,---,0.04,VWS V14.01,2013-02-03 21:17:00,
2013-02-03 16:18:00,35.6,13.7,28.73,South,184,5.8,6.7,40,0.04,,---,0.04,VWS V14.01,2013-02-03 21:18:00,
2013-02-03 16:19:00,35.6,13.7,28.73,SSW,204,3.1,5.8,40,0.04,,---,0.04,VWS V14.01,2013-02-03 21:19:00,
2013-02-03 16:20:00,22.1,9.2,28.94,SW,227,8.7,12.1,57,0.00,,---,0.00,VWS V14.01,2013-02-03 21:20:00,
2013-02-03 16:21:00,35.6,13.7,28.73,SSW,210,3.1,4.0,40,0.04,,---,0.04,VWS V14.01,2013-02-03 21:21:00,
2013-02-03 16:22:00,35.6,13.7,28.73,SSW,210,0.0,3.6,40,0.04,,---,0.04,VWS V14.01,2013-02-03 21:22:00,
2013-02-03 16:23:00,35.6,13.7,28.73,SW,233,4.9,5.8,40,0.04,,---,0.04,VWS V14.01,2013-02-03 21:23:00,
2013-02-03 16:24:00,35.6,13.7,28.73,SW,231,0.0,5.4,40,0.04,,---,0.04,VWS V14.01,2013-02-03 21:24:00,
2013-02-03 16:25:00,21.9,9.4,28.94,West,275,9.6,9.6,58,0.00,,---,0.00,VWS V14.01,2013-02-03 21:25:00,
2013-02-03 16:26:00,35.6,13.7,28.73,SSW,207,4.0,4.5,40,0.04,,---,0.04,VWS V14.01,2013-02-03 21:26:00,
2013-02-03 16:27:00,35.6,13.7,28.73,SSW,205,0.0,4.0,40,0.04,,---,0.04,VWS V14.01,2013-02-03 21:27:00,
2013-02-03 16:28:00,35.6,14.2,28.73,SSW,205,2.7,3.1,41,0.04,,---,0.04,VWS V14.01,2013-02-03 21:28:00,
2013-02-03 16:29:00,35.4,14.1,28.73,WSW,243,0.0,4.0,41,0.04,,---,0.04,VWS V14.01,2013-02-03 21:29:00,
2013-02-03 16:30:00,21.9,9.8,28.94,West,265,8.7,13.0,59,0.00,,---,0.00,VWS V14.01,2013-02-03 21:30:00,
2013-02-03 16:31:00,35.4,14.1,28.73,WSW,245,4.0,5.4,41,0.04,,---,0.04,VWS V14.01,2013-02-03 21:31:00,
2013-02-03 16:32:00,35.6,14.2,28.73,WSW,241,2.7,4.5,41,0.04,,---,0.04,VWS V14.01,2013-02-03 21:32:00,
2013-02-03 16:33:00,35.4,14.1,28.73,SSW,213,3.6,4.9,41,0.00,,---,0.04,VWS V14.01,2013-02-03 21:33:00,
2013-02-03 16:34:00,35.4,14.1,28.73,SW,219,3.1,4.9,41,0.00,,---,0.04,VWS V14.01,2013-02-03 21:34:00,
2013-02-03 16:35:00,21.7,9.6,28.94,WNW,297,15.9,15.9,59,0.00,,---,0.00,VWS V14.01,2013-02-03 21:35:00,
2013-02-03 16:36:00,35.4,14.6,28.73,West,259,3.1,5.8,42,0.00,,---,0.04,VWS V14.01,2013-02-03 21:36:00,
2013-02-03 16:37:00,35.4,14.6,28.73,West,259,3.6,4.0,42,0.00,,---,0.04,VWS V14.01,2013-02-03 21:37:00,
2013-02-03 16:38:00,35.4,14.6,28.73,SSW,213,4.0,4.9,42,0.00,,---,0.04,VWS V14.01,2013-02-03 21:38:00,
2013-02-03 16:39:00,35.4,14.6,28.73,SSW,213,0.0,4.9,42,0.00,,---,0.04,VWS V14.01,2013-02-03 21:39:00,
2013-02-03 16:40:00,21.7,10.4,28.94,West,277,6.9,11.2,61,0.00,,---,0.00,VWS V14.01,2013-02-03 21:40:00,
2013-02-03 16:41:00,35.6,14.8,28.73,SSW,213,4.0,4.5,42,0.00,,---,0.04,VWS V14.01,2013-02-03 21:41:00,
2013-02-03 16:42:00,35.6,14.8,28.73,SW,228,0.0,4.9,42,0.00,,---,0.04,VWS V14.01,2013-02-03 21:42:00,
2013-02-03 16:43:00,35.6,14.8,28.73,West,259,5.4,5.4,42,0.00,,---,0.04,VWS V14.01,2013-02-03 21:43:00,
2013-02-03 16:44:00,35.6,14.8,28.73,West,259,3.6,5.4,42,0.00,,---,0.04,VWS V14.01,2013-02-03 21:44:00,
2013-02-03 16:45:00,21.9,10.6,28.94,WNW,300,4.9,6.3,61,0.00,,---,0.00,VWS V14.01,2013-02-03 21:45:00,
2013-02-03 16:46:00,35.6,14.8,28.73,West,263,3.1,3.6,42,0.00,,---,0.04,VWS V14.01,2013-02-03 21:46:00,
2013-02-03 16:47:00,35.6,14.8,28.73,West,263,0.0,4.5,42,0.00,,---,0.04,VWS V14.01,2013-02-03 21:47:00,
2013-02-03 16:48:00,35.4,14.6,28.73,West,263,3.1,4.0,42,0.00,,---,0.04,VWS V14.01,2013-02-03 21:48:00,
2013-02-03 16:49:00,35.4,15.2,28.73,WNW,282,3.1,4.9,43,0.00,,---,0.04,VWS V14.01,2013-02-03 21:49:00,
2013-02-03 16:50:00,22.1,11.1,28.94,WNW,302,12.1,12.5,62,0.00,,---,0.00,VWS V14.01,2013-02-03 21:50:00,
2013-02-03 16:51:00,35.1,14.8,28.73,SW,230,4.5,6.7,43,0.00,,---,0.04,VWS V14.01,2013-02-03 21:51:00,
2013-02-03 16:52:00,35.1,14.8,28.73,SW,229,3.1,4.9,43,0.00,,---,0.04,VWS V14.01,2013-02-03 21:52:00,
2013-02-03 16:53:00,35.1,14.8,28.73,SW,229,4.9,4.9,43,0.00,,---,0.04,VWS V14.01,2013-02-03 21:53:00,
2013-02-03 16:54:00,35.1,14.8,28.73,West,264,4.0,5.8,43,0.00,,---,0.04,VWS V14.01,2013-02-03 21:54:00,
2013-02-03 16:55:00,21.7,11.4,28.94,West,278,5.4,8.7,64,0.00,,---,0.00,VWS V14.01,2013-02-03 21:55:00,
2013-02-03 16:56:00,35.1,14.8,28.73,West,263,4.9,5.4,43,0.00,,---,0.04,VWS V14.01,2013-02-03 21:56:00,
2013-02-03 16:57:00,34.9,14.7,28.73,West,263,4.9,4.9,43,0.00,,---,0.04,VWS V14.01,2013-02-03 21:57:00,
2013-02-03 16:58:00,34.9,14.7,28.73,West,263,2.7,4.9,43,0.00,,---,0.04,VWS V14.01,2013-02-03 21:58:00,
2013-02-03 16:59:00,35.1,14.8,28.73,West,263,3.6,4.0,43,0.00,,---,0.04,VWS V14.01,2013-02-03 21:59:00,
2013-02-03 17:00:00,21.6,12.6,28.94,West,269,9.6,11.0,68,0.00,,---,0.00,VWS V14.01,2013-02-03 22:00:00,
2013-02-03 17:01:00,35.1,14.8,28.73,West,263,3.1,4.0,43,0.00,,---,0.04,VWS V14.01,2013-02-03 22:01:00,
2013-02-03 17:02:00,35.1,14.8,28.73,West,263,0.0,3.6,43,0.00,,---,0.04,VWS V14.01,2013-02-03 22:02:00,
2013-02-03 17:03:00,35.1,15.4,28.73,West,263,3.1,4.5,44,0.00,,---,0.04,VWS V14.01,2013-02-03 22:03:00,
2013-02-03 17:04:00,35.1,15.4,28.73,West,263,3.1,3.6,44,0.00,,---,0.04,VWS V14.01,2013-02-03 22:04:00,
2013-02-03 17:05:00,21.6,13.6,28.94,WSW,243,8.7,10.5,71,0.00,,---,0.00,VWS V14.01,2013-02-03 22:05:00,
2013-02-03 17:06:00,35.1,15.4,28.73,West,263,4.0,5.4,44,0.00,,---,0.04,VWS V14.01,2013-02-03 22:06:00,
2013-02-03 17:07:00,34.9,15.2,28.73,West,263,3.6,4.0,44,0.00,,---,0.04,VWS V14.01,2013-02-03 22:07:00,
2013-02-03 17:08:00,34.9,15.7,28.73,West,263,3.6,4.5,45,0.00,,---,0.04,VWS V14.01,2013-02-03 22:08:00,
2013-02-03 17:09:00,34.7,15.6,28.73,West,274,2.7,4.5,45,0.00,,---,0.04,VWS V14.01,2013-02-03 22:09:00,
2013-02-03 17:10:00,21.7,14.1,28.94,West,281,6.7,9.6,72,0.00,,---,0.00,VWS V14.01,2013-02-03 22:10:00,
2013-02-03 17:11:00,34.5,15.4,28.73,NNW,334,4.0,4.9,45,0.00,,---,0.04,VWS V14.01,2013-02-03 22:11:00,
2013-02-03 17:12:00,34.3,15.7,28.73,NNW,334,3.1,4.0,46,0.00,,---,0.04,VWS V14.01,2013-02-03 22:12:00,
2013-02-03 17:13:00,34.3,16.2,28.73,NNW,334,4.5,4.5,47,0.00,,---,0.04,VWS V14.01,2013-02-03 22:13:00,
2013-02-03 17:14:00,34.3,16.2,28.73,WNW,303,3.1,5.4,47,0.00,,---,0.04,VWS V14.01,2013-02-03 22:14:00,
2013-02-03 17:15:00,21.2,13.0,28.94,WSW,255,10.5,12.5,70,0.00,,---,0.00,VWS V14.01,2013-02-03 22:15:00,
2013-02-03 17:16:00,34.2,16.5,28.73,NW,322,4.9,5.8,48,0.00,,---,0.04,VWS V14.01,2013-02-03 22:16:00,
2013-02-03 17:17:00,34.2,16.5,28.73,NW,309,4.9,6.7,48,0.00,,---,0.04,VWS V14.01,2013-02-03 22:17:00,
2013-02-03 17:18:00,34.0,16.8,28.73,WNW,293,4.5,5.8,49,0.00,,---,0.04,VWS V14.01,2013-02-03 22:18:00,
2013-02-03 17:19:00,34.0,16.8,28.73,WNW,293,3.1,4.5,49,0.00,,---,0.04,VWS V14.01,2013-02-03 22:19:00,
2013-02-03 17:20:00,21.0,13.1,28.94,NW,310,8.3,11.6,71,0.00,,---,0.00,VWS V14.01,2013-02-03 22:20:00,
2013-02-03 17:21:00,34.0,16.8,28.73,NW,325,4.0,4.5,49,0.00,,---,0.04,VWS V14.01,2013-02-03 22:21:00,
2013-02-03 17:22:00,34.0,16.8,28.73,NW,325,3.6,4.0,49,0.00,,---,0.04,VWS V14.01,2013-02-03 22:22:00,
2013-02-03 17:23:00,34.0,16.8,28.73,NW,325,0.0,3.6,49,0.00,,---,0.04,VWS V14.01,2013-02-03 22:23:00,
2013-02-03 17:24:00,34.2,17.0,28.73,NW,325,0.0,0.0,49,0.00,,---,0.04,VWS V14.01,2013-02-03 22:24:00,
2013-02-03 17:25:00,21.2,13.3,28.94,WNW,301,10.5,10.5,71,0.00,,---,0.00,VWS V14.01,2013-02-03 22:25:00,
2013-02-03 17:26:00,34.2,17.5,28.73,NW,325,3.6,4.0,50,0.00,,---,0.04,VWS V14.01,2013-02-03 22:26:00,
2013-02-03 17:27:00,34.2,17.5,28.73,NW,325,3.1,4.5,50,0.00,,---,0.04,VWS V14.01,2013-02-03 22:27:00,
2013-02-03 17:28:00,34.2,17.5,28.73,NW,325,3.1,4.5,50,0.00,,---,0.04,VWS V14.01,2013-02-03 22:28:00,
2013-02-03 17:29:00,34.2,17.5,28.73,NW,325,3.1,3.6,50,0.00,,---,0.04,VWS V14.01,2013-02-03 22:29:00,
2013-02-03 17:30:00,20.8,12.9,28.94,NW,307,11.2,15.2,71,0.00,,---,0.00,VWS V14.01,2013-02-03 22:30:00,
2013-02-03 17:31:00,34.2,17.9,28.73,NW,325,0.0,3.6,51,0.00,,---,0.04,VWS V14.01,2013-02-03 22:31:00,
2013-02-03 17:32:00,34.2,17.5,28.73,NW,325,4.0,4.9,50,0.00,,---,0.04,VWS V14.01,2013-02-03 22:32:00,
2013-02-03 17:33:00,34.0,17.3,28.73,NW,325,3.1,4.5,50,0.00,,---,0.04,VWS V14.01,2013-02-03 22:33:00,
2013-02-03 17:34:00,34.0,17.3,28.73,NW,325,3.6,4.5,50,0.00,,---,0.04,VWS V14.01,2013-02-03 22:34:00,
2013-02-03 17:35:00,20.8,12.3,28.94,NNW,343,9.2,11.6,69,0.00,,---,0.00,VWS V14.01,2013-02-03 22:35:00,
2013-02-03 17:36:00,33.3,16.6,28.73,North,11,0.0,0.0,50,0.00,,---,0.04,VWS V14.01,2013-02-03 22:36:00,
2013-02-03 17:37:00,33.3,16.6,28.73,North,11,0.0,0.0,50,0.00,,---,0.04,VWS V14.01,2013-02-03 22:37:00,
2013-02-03 17:38:00,33.3,16.6,28.73,North,11,0.0,0.0,50,0.00,,---,0.04,VWS V14.01,2013-02-03 22:38:00,
2013-02-03 17:39:00,33.3,16.6,28.73,North,11,0.0,0.0,50,0.00,,---,0.04,VWS V14.01,2013-02-03 22:39:00,
2013-02-03 17:40:00,21.0,11.1,28.94,WNW,282,11.2,12.1,65,0.00,,---,0.00,VWS V14.01,2013-02-03 22:40:00,
2013-02-03 17:41:00,33.3,16.6,28.73,North,11,0.0,0.0,50,0.00,,---,0.04,VWS V14.01,2013-02-03 22:41:00,
2013-02-03 17:42:00,33.1,16.5,28.73,North,11,0.0,0.0,50,0.00,,---,0.04,VWS V14.01,2013-02-03 22:42:00,
2013-02-03 17:43:00,33.1,16.5,28.73,North,11,0.0,0.0,50,0.00,,---,0.04,VWS V14.01,2013-02-03 22:43:00,
2013-02-03 17:44:00,33.1,16.5,28.73,North,11,0.0,0.0,50,0.00,,---,0.04,VWS V14.01,2013-02-03 22:44:00,
2013-02-03 17:45:00,21.0,10.8,28.94,NW,313,6.7,11.6,64,0.00,,---,0.00,VWS V14.01,2013-02-03 22:45:00,
2013-02-03 17:46:00,33.1,16.5,28.73,North,11,0.0,0.0,50,0.00,,---,0.04,VWS V14.01,2013-02-03 22:46:00,
2013-02-03 17:47:00,32.9,16.8,28.73,North,11,0.0,0.0,51,0.00,,---,0.04,VWS V14.01,2013-02-03 22:47:00,
2013-02-03 17:48:00,32.9,16.8,28.73,North,11,2.7,4.0,51,0.00,,---,0.04,VWS V14.01,2013-02-03 22:48:00,
2013-02-03 17:49:00,32.7,16.6,28.73,North,11,0.0,2.7,51,0.00,,---,0.04,VWS V14.01,2013-02-03 22:49:00,
2013-02-03 17:50:00,21.0,10.8,28.94,NNW,345,5.4,8.3,64,0.00,,---,0.00,VWS V14.01,2013-02-03 22:50:00,
2013-02-03 17:51:00,32.5,16.4,28.73,North,11,0.0,0.0,51,0.00,,---,0.04,VWS V14.01,2013-02-03 22:51:00,
2013-02-03 17:52:00,32.5,16.4,28.73,NNE,29,4.0,4.0,51,0.00,,---,0.04,VWS V14.01,2013-02-03 22:52:00,
2013-02-03 17:53:00,32.2,16.1,28.73,ENE,75,5.4,5.4,51,0.00,,---,0.04,VWS V14.01,2013-02-03 22:53:00,
2013-02-03 17:54:00,32.0,15.9,28.73,ENE,75,4.9,5.8,51,0.00,,---,0.04,VWS V14.01,2013-02-03 22:54:00,
2013-02-03 17:55:00,20.8,10.6,28.94,West,280,7.8,8.3,64,0.00,,---,0.00,VWS V14.01,2013-02-03 22:55:00,
2013-02-03 17:56:00,33.8,16.7,28.76,NNW,331,0.0,0.0,49,0.00,,---,0.04,VWS V14.01,2013-02-03 22:56:00,
2013-02-03 17:57:00,31.3,15.7,28.73,ENE,76,4.0,4.9,52,0.00,,---,0.04,VWS V14.01,2013-02-03 22:57:00,
2013-02-03 17:58:00,31.3,15.7,28.73,ENE,76,4.5,4.9,52,0.00,,---,0.04,VWS V14.01,2013-02-03 22:58:00,
2013-02-03 17:59:00,30.9,15.8,28.73,ENE,76,3.6,4.5,53,0.00,,---,0.04,VWS V14.01,2013-02-03 22:59:00,
2013-02-03 18:00:00,20.8,10.9,28.97,NNW,330,5.4,12.1,65,0.00,,---,0.00,VWS V14.01,2013-02-03 23:00:00,
2013-02-03 18:01:00,30.4,15.7,28.73,ENE,63,4.5,5.4,54,0.00,,---,0.04,VWS V14.01,2013-02-03 23:01:00,
2013-02-03 18:02:00,30.4,15.7,28.73,ENE,63,3.6,4.5,54,0.00,,---,0.04,VWS V14.01,2013-02-03 23:02:00,
2013-02-03 18:03:00,30.0,15.4,28.73,ENE,63,4.5,4.5,54,0.00,,---,0.04,VWS V14.01,2013-02-03 23:03:00,
2013-02-03 18:04:00,29.8,15.7,28.73,ENE,63,3.1,4.9,55,0.00,,---,0.04,VWS V14.01,2013-02-03 23:04:00,
2013-02-03 18:05:00,20.8,11.3,28.97,NNW,329,5.8,8.7,66,0.00,,---,0.00,VWS V14.01,2013-02-03 23:05:00,
2013-02-03 18:06:00,29.7,15.9,28.73,ENE,63,3.1,5.4,56,0.00,,---,0.04,VWS V14.01,2013-02-03 23:06:00,
2013-02-03 18:07:00,29.5,15.7,28.73,ENE,63,4.0,5.4,56,0.00,,---,0.04,VWS V14.01,2013-02-03 23:07:00,
2013-02-03 18:08:00,29.3,16.0,28.73,ENE,64,4.0,4.5,57,0.00,,---,0.04,VWS V14.01,2013-02-03 23:08:00,
2013-02-03 18:09:00,29.1,16.2,28.73,ENE,63,3.1,4.0,58,0.00,,---,0.04,VWS V14.01,2013-02-03 23:09:00,
2013-02-03 18:10:00,20.5,11.3,28.97,WNW,301,7.4,11.2,67,0.00,,---,0.00,VWS V14.01,2013-02-03 23:10:00,
2013-02-03 18:11:00,28.8,16.2,28.73,ENE,63,0.0,0.0,59,0.00,,---,0.04,VWS V14.01,2013-02-03 23:11:00,
2013-02-03 18:12:00,28.8,16.2,28.73,ENE,64,2.7,3.1,59,0.00,,---,0.04,VWS V14.01,2013-02-03 23:12:00,
2013-02-03 18:13:00,28.6,16.5,28.73,ENE,64,0.0,2.7,60,0.00,,---,0.04,VWS V14.01,2013-02-03 23:13:00,
2013-02-03 18:14:00,28.4,16.3,28.73,ENE,63,0.0,0.0,60,0.00,,---,0.04,VWS V14.01,2013-02-03 23:14:00,
2013-02-03 18:15:00,20.5,11.3,28.97,WNW,283,7.8,11.6,67,0.00,,---,0.00,VWS V14.01,2013-02-03 23:15:00,
2013-02-03 18:16:00,28.2,16.5,28.73,ENE,63,0.0,0.0,61,0.00,,---,0.04,VWS V14.01,2013-02-03 23:16:00,
2013-02-03 18:17:00,28.0,16.3,28.73,ENE,64,0.0,0.0,61,0.00,,---,0.04,VWS V14.01,2013-02-03 23:17:00,
2013-02-03 18:18:00,28.0,16.7,28.73,ENE,64,0.0,0.0,62,0.00,,---,0.04,VWS V14.01,2013-02-03 23:18:00,
2013-02-03 18:19:00,28.0,16.7,28.73,ENE,63,0.0,0.0,62,0.00,,---,0.04,VWS V14.01,2013-02-03 23:19:00,
2013-02-03 18:20:00,20.3,11.4,28.97,WNW,302,8.7,10.1,68,0.00,,---,0.00,VWS V14.01,2013-02-03 23:20:00,
2013-02-03 18:21:00,27.9,16.9,28.73,ENE,64,0.0,0.0,63,0.00,,---,0.04,VWS V14.01,2013-02-03 23:21:00,
2013-02-03 18:22:00,27.9,16.9,28.73,ENE,64,0.0,0.0,63,0.00,,---,0.04,VWS V14.01,2013-02-03 23:22:00,
2013-02-03 18:23:00,27.7,16.7,28.73,ENE,64,0.0,0.0,63,0.00,,---,0.04,VWS V14.01,2013-02-03 23:23:00,
2013-02-03 18:24:00,27.7,17.1,28.73,ENE,63,4.5,4.5,64,0.00,,---,0.04,VWS V14.01,2013-02-03 23:24:00,
2013-02-03 18:25:00,20.1,10.9,28.97,WSW,246,6.3,10.1,67,0.00,,---,0.00,VWS V14.01,2013-02-03 23:25:00,
2013-02-03 18:26:00,27.5,17.3,28.73,ENE,63,3.6,4.0,65,0.00,,---,0.04,VWS V14.01,2013-02-03 23:26:00,
2013-02-03 18:27:00,27.5,17.6,28.73,ENE,63,4.0,4.5,66,0.00,,---,0.04,VWS V14.01,2013-02-03 23:27:00,
2013-02-03 18:28:00,27.3,17.8,28.73,ENE,63,4.5,4.5,67,0.00,,---,0.04,VWS V14.01,2013-02-03 23:28:00,
2013-02-03 18:29:00,27.3,17.8,28.73,ENE,64,4.5,4.5,67,0.00,,---,0.04,VWS V14.01,2013-02-03 23:29:00,
2013-02-03 18:30:00,20.1,10.6,28.97,WNW,295,4.5,7.4,66,0.00,,---,0.00,VWS V14.01,2013-02-03 23:30:00,
2013-02-03 18:31:00,27.3,18.5,28.73,ENE,64,4.0,4.5,69,0.00,,---,0.04,VWS V14.01,2013-02-03 23:31:00,
2013-02-03 18:32:00,27.3,18.5,28.73,ENE,64,4.5,4.9,69,0.00,,---,0.04,VWS V14.01,2013-02-03 23:32:00,
2013-02-03 18:33:00,27.3,18.8,28.73,ENE,64,3.6,4.5,70,0.00,,---,0.04,VWS V14.01,2013-02-03 23:33:00,
2013-02-03 18:34:00,27.3,18.8,28.73,ENE,64,3.1,4.0,70,0.00,,---,0.04,VWS V14.01,2013-02-03 23:34:00,
2013-02-03 18:35:00,19.9,10.4,28.97,NW,311,6.9,6.9,66,0.00,,---,0.00,VWS V14.01,2013-02-03 23:35:00,
2013-02-03 18:36:00,27.1,19.0,28.73,ENE,64,0.0,3.1,71,0.00,,---,0.04,VWS V14.01,2013-02-03 23:36:00,
2013-02-03 18:37:00,27.1,19.0,28.73,ENE,64,3.1,3.6,71,0.00,,---,0.04,VWS V14.01,2013-02-03 23:37:00,
2013-02-03 18:38:00,27.1,19.3,28.73,ENE,64,3.6,4.0,72,0.00,,---,0.04,VWS V14.01,2013-02-03 23:38:00,
2013-02-03 18:39:00,27.0,19.1,28.73,ENE,64,3.1,4.5,72,0.00,,---,0.04,VWS V14.01,2013-02-03 23:39:00,
2013-02-03 18:40:00,27.0,19.1,28.73,ENE,64,4.0,4.0,72,0.00,,---,0.04,VWS V14.01,2013-02-03 23:40:00,
2013-02-03 18:41:00,19.9,10.1,28.97,NNW,340,6.9,11.6,65,0.00,,---,0.00,VWS V14.01,2013-02-03 23:41:00,
2013-02-03 18:42:00,26.8,19.3,28.73,ENE,64,3.6,3.6,73,0.00,,---,0.04,VWS V14.01,2013-02-03 23:42:00,
2013-02-03 18:43:00,26.8,19.3,28.73,ENE,64,3.1,4.0,73,0.00,,---,0.04,VWS V14.01,2013-02-03 23:43:00,
2013-02-03 18:44:00,26.6,19.1,28.73,ENE,64,2.7,4.0,73,0.00,,---,0.04,VWS V14.01,2013-02-03 23:44:00,
2013-02-03 18:45:00,26.6,19.1,28.73,ENE,64,0.0,3.6,73,0.00,,---,0.04,VWS V14.01,2013-02-03 23:45:00,
2013-02-03 18:46:00,26.6,19.1,28.73,ENE,64,0.0,3.1,73,0.00,,---,0.04,VWS V14.01,2013-02-03 23:46:00,
2013-02-03 18:47:00,26.4,19.3,28.73,ENE,64,0.0,0.0,74,0.00,,---,0.04,VWS V14.01,2013-02-03 23:47:00,
2013-02-03 18:48:00,19.9,10.1,28.97,WNW,294,4.0,9.2,65,0.00,,---,0.00,VWS V14.01,2013-02-03 23:48:00,
2013-02-03 18:49:00,26.4,19.3,28.73,ENE,64,0.0,0.0,74,0.00,,---,0.04,VWS V14.01,2013-02-03 23:49:00,
2013-02-03 18:50:00,26.4,19.3,28.73,ENE,64,0.0,0.0,74,0.00,,---,0.04,VWS V14.01,2013-02-03 23:50:00,
2013-02-03 18:51:00,26.2,19.1,28.76,ENE,64,3.1,3.1,74,0.00,,---,0.04,VWS V14.01,2013-02-03 23:51:00,
2013-02-03 18:52:00,26.2,19.4,28.76,ENE,64,0.0,3.6,75,0.00,,---,0.04,VWS V14.01,2013-02-03 23:52:00,
2013-02-03 18:53:00,26.2,19.4,28.76,ENE,64,0.0,2.7,75,0.00,,---,0.04,VWS V14.01,2013-02-03 23:53:00,
2013-02-03 18:54:00,26.2,19.4,28.76,ENE,64,0.0,0.0,75,0.00,,---,0.04,VWS V14.01,2013-02-03 23:54:00,
2013-02-03 18:55:00,19.9,10.1,28.97,WNW,289,4.5,8.3,65,0.00,,---,0.00,VWS V14.01,2013-02-03 23:55:00,
2013-02-03 18:56:00,26.2,19.4,28.76,ENE,64,0.0,0.0,75,0.00,,---,0.04,VWS V14.01,2013-02-03 23:56:00,
2013-02-03 18:57:00,26.1,19.5,28.76,ENE,64,0.0,0.0,76,0.00,,---,0.04,VWS V14.01,2013-02-03 23:57:00,
2013-02-03 18:58:00,26.1,19.5,28.76,ENE,64,0.0,0.0,76,0.00,,---,0.04,VWS V14.01,2013-02-03 23:58:00,
2013-02-03 18:59:00,26.1,19.5,28.76,ENE,64,0.0,0.0,76,0.00,,---,0.04,VWS V14.01,2013-02-03 23:59:00,
2013-02-03 19:00:00,19.6,9.7,28.97,WNW,284,7.8,7.8,65,0.00,,---,0.00,VWS V14.01,2013-02-04 00:00:00,
2013-02-03 19:01:00,26.1,19.5,28.76,ENE,64,0.0,0.0,76,0.00,,---,0.04,VWS V14.01,2013-02-04 00:01:00,
2013-02-03 19:02:00,25.9,19.4,28.76,ENE,64,0.0,0.0,76,0.00,,---,0.04,VWS V14.01,2013-02-04 00:02:00,
2013-02-03 19:03:00,25.9,19.7,28.76,ENE,64,0.0,0.0,77,0.00,,---,0.04,VWS V14.01,2013-02-04 00:03:00,
2013-02-03 19:04:00,25.9,19.7,28.76,ENE,64,0.0,0.0,77,0.00,,---,0.04,VWS V14.01,2013-02-04 00:04:00,
2013-02-03 19:05:00,25.9,19.7,28.76,ENE,64,0.0,0.0,77,0.00,,---,0.04,VWS V14.01,2013-02-04 00:05:00,
2013-02-03 19:06:00,25.9,19.7,28.76,ENE,64,0.0,0.0,77,0.00,,---,0.04,VWS V14.01,2013-02-04 00:06:00,
2013-02-03 19:07:00,19.6,9.7,28.97,WSW,254,4.9,5.8,65,0.00,,---,0.00,VWS V14.01,2013-02-04 00:07:00,
2013-02-03 19:08:00,25.7,19.5,28.76,ENE,64,0.0,0.0,77,0.00,,---,0.04,VWS V14.01,2013-02-04 00:08:00,
2013-02-03 19:09:00,25.7,19.5,28.76,ENE,64,0.0,0.0,77,0.00,,---,0.04,VWS V14.01,2013-02-04 00:09:00,
2013-02-03 19:10:00,25.7,19.5,28.76,ENE,64,0.0,0.0,77,0.00,,---,0.04,VWS V14.01,2013-02-04 00:10:00,
2013-02-03 19:11:00,25.5,19.6,28.76,ENE,64,0.0,0.0,78,0.00,,---,0.04,VWS V14.01,2013-02-04 00:11:00,
2013-02-03 19:12:00,19.2,9.4,28.97,West,267,4.9,8.7,65,0.00,,---,0.00,VWS V14.01,2013-02-04 00:12:00,
2013-02-03 19:13:00,25.5,19.3,28.76,ENE,64,0.0,0.0,77,0.00,,---,0.04,VWS V14.01,2013-02-04 00:13:00,
2013-02-03 19:14:00,25.5,19.3,28.76,ENE,64,0.0,0.0,77,0.00,,---,0.04,VWS V14.01,2013-02-04 00:14:00,
2013-02-03 19:15:00,25.3,19.1,28.76,ENE,64,0.0,0.0,77,0.00,,---,0.04,VWS V14.01,2013-02-04 00:15:00,
2013-02-03 19:16:00,25.3,19.1,28.76,ENE,64,0.0,0.0,77,0.00,,---,0.04,VWS V14.01,2013-02-04 00:16:00,
2013-02-03 19:17:00,19.0,9.2,28.97,West,269,6.7,8.3,65,0.00,,---,0.00,VWS V14.01,2013-02-04 00:17:00,
2013-02-03 19:18:00,25.3,19.5,28.76,ENE,64,0.0,0.0,78,0.00,,---,0.04,VWS V14.01,2013-02-04 00:18:00,
2013-02-03 19:19:00,25.3,19.5,28.76,ENE,64,0.0,0.0,78,0.00,,---,0.04,VWS V14.01,2013-02-04 00:19:00,
2013-02-03 19:20:00,25.2,19.3,28.76,ENE,64,0.0,0.0,78,0.00,,---,0.04,VWS V14.01,2013-02-04 00:20:00,
2013-02-03 19:21:00,25.2,19.3,28.79,ENE,64,0.0,0.0,78,0.00,,---,0.04,VWS V14.01,2013-02-04 00:21:00,
2013-02-03 19:22:00,19.0,8.9,28.97,WSW,255,5.4,8.3,64,0.00,,---,0.00,VWS V14.01,2013-02-04 00:22:00,
2013-02-03 19:23:00,25.2,19.3,28.79,ENE,64,0.0,0.0,78,0.00,,---,0.04,VWS V14.01,2013-02-04 00:23:00,
2013-02-03 19:24:00,25.0,19.1,28.79,ENE,64,0.0,0.0,78,0.00,,---,0.04,VWS V14.01,2013-02-04 00:24:00,
2013-02-03 19:25:00,25.0,19.1,28.79,ENE,64,0.0,0.0,78,0.00,,---,0.04,VWS V14.01,2013-02-04 00:25:00,
2013-02-03 19:26:00,25.2,19.6,28.79,ENE,64,0.0,0.0,79,0.00,,---,0.04,VWS V14.01,2013-02-04 00:26:00,
2013-02-03 19:27:00,18.7,8.5,28.97,WNW,294,4.5,6.9,64,0.00,,---,0.00,VWS V14.01,2013-02-04 00:27:00,
2013-02-03 19:28:00,25.3,19.8,28.79,ENE,64,0.0,3.6,79,0.00,,---,0.04,VWS V14.01,2013-02-04 00:28:00,
2013-02-03 19:29:00,25.3,19.8,28.79,ENE,64,0.0,0.0,79,0.00,,---,0.04,VWS V14.01,2013-02-04 00:29:00,
2013-02-03 19:30:00,25.5,19.9,28.79,ENE,64,0.0,0.0,79,0.00,,---,0.04,VWS V14.01,2013-02-04 00:30:00,
2013-02-03 19:31:00,25.5,19.9,28.79,ENE,64,0.0,0.0,79,0.00,,---,0.04,VWS V14.01,2013-02-04 00:31:00,
2013-02-03 19:32:00,18.3,8.5,28.97,WNW,284,4.5,7.4,65,0.00,,---,0.00,VWS V14.01,2013-02-04 00:32:00,
2013-02-03 19:33:00,25.7,20.1,28.79,ENE,64,0.0,0.0,79,0.00,,---,0.04,VWS V14.01,2013-02-04 00:33:00,
2013-02-03 19:34:00,25.9,20.3,28.79,ENE,64,0.0,0.0,79,0.00,,---,0.04,VWS V14.01,2013-02-04 00:34:00,
2013-02-03 19:35:00,25.9,20.6,28.79,ENE,64,0.0,0.0,80,0.00,,---,0.04,VWS V14.01,2013-02-04 00:35:00,
2013-02-03 19:36:00,26.1,20.8,28.79,ENE,64,0.0,0.0,80,0.00,,---,0.04,VWS V14.01,2013-02-04 00:36:00,
2013-02-03 19:37:00,18.1,8.4,28.97,West,269,4.0,4.9,65,0.00,,---,0.00,VWS V14.01,2013-02-04 00:37:00,
2013-02-03 19:38:00,26.2,20.9,28.79,ENE,64,0.0,0.0,80,0.00,,---,0.04,VWS V14.01,2013-02-04 00:38:00,
2013-02-03 19:39:00,26.2,20.9,28.79,ENE,64,0.0,0.0,80,0.00,,---,0.04,VWS V14.01,2013-02-04 00:39:00,
2013-02-03 19:40:00,26.2,20.9,28.79,ENE,64,0.0,0.0,80,0.00,,---,0.04,VWS V14.01,2013-02-04 00:40:00,
2013-02-03 19:41:00,26.2,20.9,28.79,ENE,64,0.0,3.1,80,0.00,,---,0.04,VWS V14.01,2013-02-04 00:41:00,
2013-02-03 19:42:00,18.0,8.2,29.00,West,275,6.7,6.9,65,0.00,,---,0.00,VWS V14.01,2013-02-04 00:42:00,
2013-02-03 19:43:00,26.4,21.1,28.79,ENE,64,2.7,3.1,80,0.00,,---,0.04,VWS V14.01,2013-02-04 00:43:00,
2013-02-03 19:44:00,26.4,21.1,28.79,ENE,64,2.7,3.1,80,0.00,,---,0.04,VWS V14.01,2013-02-04 00:44:00,
2013-02-03 19:45:00,26.6,21.3,28.79,ENE,64,2.7,3.6,80,0.00,,---,0.04,VWS V14.01,2013-02-04 00:45:00,
2013-02-03 19:46:00,26.6,21.6,28.79,ENE,64,0.0,3.1,81,0.00,,---,0.04,VWS V14.01,2013-02-04 00:46:00,
2013-02-03 19:47:00,17.6,7.8,29.00,WSW,252,4.9,4.9,65,0.00,,---,0.00,VWS V14.01,2013-02-04 00:47:00,
2013-02-03 19:48:00,26.8,21.7,28.79,ENE,64,0.0,0.0,81,0.00,,---,0.04,VWS V14.01,2013-02-04 00:48:00,
2013-02-03 19:49:00,26.8,21.7,28.79,ENE,64,0.0,3.6,81,0.00,,---,0.04,VWS V14.01,2013-02-04 00:49:00,
2013-02-03 19:50:00,27.0,21.9,28.79,ENE,64,0.0,0.0,81,0.00,,---,0.04,VWS V14.01,2013-02-04 00:50:00,
2013-02-03 19:51:00,27.0,21.9,28.79,ENE,64,3.6,3.6,81,0.00,,---,0.04,VWS V14.01,2013-02-04 00:51:00,
2013-02-03 19:52:00,17.2,7.5,29.00,WSW,246,3.1,5.8,65,0.00,,---,0.00,VWS V14.01,2013-02-04 00:52:00,
2013-02-03 19:53:00,27.0,21.9,28.79,ENE,64,0.0,3.1,81,0.00,,---,0.04,VWS V14.01,2013-02-04 00:53:00,
2013-02-03 19:54:00,27.1,22.1,28.79,ENE,64,0.0,3.6,81,0.00,,---,0.04,VWS V14.01,2013-02-04 00:54:00,
2013-02-03 19:55:00,27.1,22.1,28.79,ENE,64,0.0,3.6,81,0.00,,---,0.04,VWS V14.01,2013-02-04 00:55:00,
2013-02-03 19:56:00,27.1,22.1,28.79,ENE,64,0.0,3.6,81,0.00,,---,0.04,VWS V14.01,2013-02-04 00:56:00,
2013-02-03 19:57:00,17.1,7.3,28.97,West,263,3.6,4.5,65,0.00,,---,0.00,VWS V14.01,2013-02-04 00:57:00,
2013-02-03 19:58:00,27.1,22.4,28.79,ENE,64,0.0,0.0,82,0.00,,---,0.04,VWS V14.01,2013-02-04 00:58:00,
2013-02-03 19:59:00,27.1,22.4,28.79,ENE,64,0.0,0.0,82,0.00,,---,0.04,VWS V14.01,2013-02-04 00:59:00,
2013-02-03 20:00:00,26.1,19.5,28.76,ENE,64,0.0,0.0,76,0.00,,---,0.04,VWS V14.01,2013-02-04 01:00:00,
2013-02-03 20:01:00,27.3,22.6,28.79,ENE,64,0.0,0.0,82,0.00,,---,0.04,VWS V14.01,2013-02-04 01:01:00,
2013-02-03 20:02:00,16.9,7.5,28.97,West,262,3.1,4.9,66,0.00,,---,0.00,VWS V14.01,2013-02-04 01:02:00,
2013-02-03 20:03:00,25.9,19.7,28.76,ENE,64,0.0,0.0,77,0.00,,---,0.04,VWS V14.01,2013-02-04 01:03:00,
2013-02-03 20:04:00,27.3,22.6,28.79,ENE,64,3.1,3.6,82,0.00,,---,0.04,VWS V14.01,2013-02-04 01:04:00,
2013-02-03 20:05:00,27.3,22.9,28.79,ENE,64,0.0,3.6,83,0.00,,---,0.04,VWS V14.01,2013-02-04 01:05:00,
2013-02-03 20:06:00,25.9,19.7,28.76,ENE,64,0.0,0.0,77,0.00,,---,0.04,VWS V14.01,2013-02-04 01:06:00,
2013-02-03 20:07:00,16.7,7.7,28.97,WSW,255,2.7,3.6,67,0.00,,---,0.00,VWS V14.01,2013-02-04 01:07:00,
2013-02-03 20:08:00,25.7,19.5,28.76,ENE,64,0.0,0.0,77,0.00,,---,0.04,VWS V14.01,2013-02-04 01:08:00,
2013-02-03 20:09:00,25.7,19.5,28.76,ENE,64,0.0,0.0,77,0.00,,---,0.04,VWS V14.01,2013-02-04 01:09:00,
2013-02-03 20:10:00,27.5,23.0,28.79,ENE,64,0.0,0.0,83,0.00,,---,0.04,VWS V14.01,2013-02-04 01:10:00,
2013-02-03 20:11:00,25.5,19.6,28.76,ENE,64,0.0,0.0,78,0.00,,---,0.04,VWS V14.01,2013-02-04 01:11:00,
2013-02-03 20:12:00,16.5,7.8,28.97,WSW,255,4.0,4.0,68,0.00,,---,0.00,VWS V14.01,2013-02-04 01:12:00,
2013-02-03 20:13:00,27.5,23.0,28.79,ENE,64,0.0,3.1,83,0.00,,---,0.04,VWS V14.01,2013-02-04 01:13:00,
2013-02-03 20:14:00,25.5,19.3,28.76,ENE,64,0.0,0.0,77,0.00,,---,0.04,VWS V14.01,2013-02-04 01:14:00,
2013-02-03 20:15:00,25.3,19.1,28.76,ENE,64,0.0,0.0,77,0.00,,---,0.04,VWS V14.01,2013-02-04 01:15:00,
2013-02-03 20:16:00,27.5,23.0,28.79,ENE,64,0.0,0.0,83,0.00,,---,0.04,VWS V14.01,2013-02-04 01:16:00,
2013-02-03 20:17:00,16.3,8.0,28.97,WSW,255,3.6,4.9,69,0.00,,---,0.00,VWS V14.01,2013-02-04 01:17:00,
2013-02-03 20:18:00,27.7,23.2,28.79,ENE,64,3.1,3.1,83,0.00,,---,0.04,VWS V14.01,2013-02-04 01:18:00,
2013-02-03 20:19:00,27.7,23.5,28.79,ENE,64,0.0,3.6,84,0.00,,---,0.04,VWS V14.01,2013-02-04 01:19:00,
2013-02-03 20:20:00,25.2,19.3,28.76,ENE,64,0.0,0.0,78,0.00,,---,0.04,VWS V14.01,2013-02-04 01:20:00,
2013-02-03 20:21:00,27.7,23.5,28.79,ENE,64,0.0,0.0,84,0.00,,---,0.04,VWS V14.01,2013-02-04 01:21:00,
2013-02-03 20:22:00,16.2,7.8,28.97,WSW,255,0.0,3.1,69,0.00,,---,0.00,VWS V14.01,2013-02-04 01:22:00,
2013-02-03 20:23:00,27.7,23.5,28.79,ENE,64,0.0,2.7,84,0.00,,---,0.04,VWS V14.01,2013-02-04 01:23:00,
2013-02-03 20:24:00,27.7,23.5,28.79,ENE,64,3.1,3.6,84,0.00,,---,0.04,VWS V14.01,2013-02-04 01:24:00,
2013-02-03 20:25:00,27.7,23.5,28.79,ENE,64,0.0,3.6,84,0.00,,---,0.04,VWS V14.01,2013-02-04 01:25:00,
2013-02-03 20:26:00,25.2,19.6,28.79,ENE,64,0.0,0.0,79,0.00,,---,0.04,VWS V14.01,2013-02-04 01:26:00,
2013-02-03 20:27:00,16.0,7.6,28.97,WSW,255,0.0,0.0,69,0.00,,---,0.00,VWS V14.01,2013-02-04 01:27:00,
2013-02-03 20:28:00,25.3,19.8,28.79,ENE,64,0.0,3.6,79,0.00,,---,0.04,VWS V14.01,2013-02-04 01:28:00,
2013-02-03 20:29:00,25.3,19.8,28.79,ENE,64,0.0,0.0,79,0.00,,---,0.04,VWS V14.01,2013-02-04 01:29:00,
2013-02-03 20:30:00,25.5,19.9,28.79,ENE,64,0.0,0.0,79,0.00,,---,0.04,VWS V14.01,2013-02-04 01:30:00,
2013-02-03 20:31:00,25.5,19.9,28.79,ENE,64,0.0,0.0,79,0.00,,---,0.04,VWS V14.01,2013-02-04 01:31:00,
2013-02-03 20:32:00,15.8,7.8,28.97,SW,221,0.0,4.0,70,0.00,,---,0.00,VWS V14.01,2013-02-04 01:32:00,
2013-02-03 20:33:00,25.7,20.1,28.79,ENE,64,0.0,0.0,79,0.00,,---,0.04,VWS V14.01,2013-02-04 01:33:00,
2013-02-03 20:34:00,27.7,23.5,28.79,ENE,64,0.0,0.0,84,0.00,,---,0.04,VWS V14.01,2013-02-04 01:34:00,
2013-02-03 20:36:00,27.7,23.8,28.79,ENE,64,0.0,0.0,85,0.00,,---,0.04,VWS V14.01,2013-02-04 01:36:00,
2013-02-03 20:37:00,27.7,23.8,28.79,ENE,64,0.0,0.0,85,0.00,,---,0.04,VWS V14.01,2013-02-04 01:37:00,
2013-02-03 20:38:00,15.6,7.6,28.97,SW,221,0.0,3.6,70,0.00,,---,0.00,VWS V14.01,2013-02-04 01:38:00,
2013-02-03 20:39:00,27.7,23.8,28.79,ENE,64,0.0,0.0,85,0.00,,---,0.04,VWS V14.01,2013-02-04 01:39:00,
2013-02-03 20:40:00,27.7,23.8,28.79,ENE,64,0.0,0.0,85,0.00,,---,0.04,VWS V14.01,2013-02-04 01:40:00,
2013-02-03 20:42:00,27.7,23.8,28.79,ENE,64,0.0,0.0,85,0.00,,---,0.04,VWS V14.01,2013-02-04 01:42:00,
2013-02-03 20:43:00,15.4,7.4,28.97,SW,221,0.0,3.6,70,0.00,,---,0.00,VWS V14.01,2013-02-04 01:43:00,
2013-02-03 20:45:00,27.7,23.8,28.79,ENE,64,0.0,0.0,85,0.00,,---,0.04,VWS V14.01,2013-02-04 01:45:00,
2013-02-03 20:46:00,27.7,23.8,28.79,ENE,64,0.0,0.0,85,0.00,,---,0.04,VWS V14.01,2013-02-04 01:46:00,
2013-02-03 20:47:00,27.7,23.8,28.79,ENE,64,0.0,0.0,85,0.00,,---,0.04,VWS V14.01,2013-02-04 01:47:00,
2013-02-03 20:48:00,15.3,7.6,28.97,SW,221,0.0,4.0,71,0.00,,---,0.00,VWS V14.01,2013-02-04 01:48:00,
2013-02-03 20:49:00,27.7,23.8,28.79,ENE,64,2.7,2.7,85,0.00,,---,0.04,VWS V14.01,2013-02-04 01:49:00,
2013-02-03 20:50:00,27.7,23.8,28.79,ENE,64,3.6,4.0,85,0.00,,---,0.04,VWS V14.01,2013-02-04 01:50:00,
2013-02-03 20:51:00,27.7,23.8,28.82,ENE,64,0.0,3.6,85,0.00,,---,0.04,VWS V14.01,2013-02-04 01:51:00,
2013-02-03 20:52:00,27.7,23.8,28.82,ENE,64,0.0,0.0,85,0.00,,---,0.04,VWS V14.01,2013-02-04 01:52:00,
2013-02-03 20:53:00,15.1,7.4,28.97,SW,221,0.0,0.0,71,0.00,,---,0.00,VWS V14.01,2013-02-04 01:53:00,
2013-02-03 20:54:00,27.7,23.8,28.82,ENE,64,3.6,4.0,85,0.00,,---,0.04,VWS V14.01,2013-02-04 01:54:00,
2013-02-03 20:55:00,27.7,23.8,28.82,ENE,64,2.7,4.0,85,0.00,,---,0.04,VWS V14.01,2013-02-04 01:55:00,
2013-02-03 20:56:00,27.5,23.6,28.82,ENE,64,2.7,3.1,85,0.00,,---,0.04,VWS V14.01,2013-02-04 01:56:00,
2013-02-03 20:57:00,27.5,23.6,28.82,ENE,64,4.0,4.0,85,0.00,,---,0.04,VWS V14.01,2013-02-04 01:57:00,
2013-02-03 20:58:00,15.1,7.7,28.97,SW,221,0.0,3.6,72,0.00,,---,0.00,VWS V14.01,2013-02-04 01:58:00,
2013-02-03 20:59:00,27.5,23.6,28.82,ENE,64,0.0,2.7,85,0.00,,---,0.04,VWS V14.01,2013-02-04 01:59:00,
2013-02-03 21:00:00,27.5,23.6,28.82,ENE,64,0.0,0.0,85,0.00,,---,0.04,VWS V14.01,2013-02-04 02:00:00,
2013-02-03 21:01:00,27.5,23.6,28.82,ENE,64,3.6,3.6,85,0.00,,---,0.04,VWS V14.01,2013-02-04 02:01:00,
2013-02-03 21:02:00,27.5,23.6,28.82,ENE,64,0.0,3.6,85,0.00,,---,0.04,VWS V14.01,2013-02-04 02:02:00,
2013-02-03 21:03:00,15.1,8.0,28.97,SW,221,0.0,0.0,73,0.00,,---,0.00,VWS V14.01,2013-02-04 02:03:00,
2013-02-03 21:04:00,27.5,23.6,28.82,ENE,64,0.0,0.0,85,0.00,,---,0.04,VWS V14.01,2013-02-04 02:04:00,
2013-02-03 21:05:00,27.5,23.6,28.82,ENE,64,3.6,3.6,85,0.00,,---,0.04,VWS V14.01,2013-02-04 02:05:00,
2013-02-03 21:06:00,27.5,23.6,28.82,ENE,64,0.0,4.0,85,0.00,,---,0.04,VWS V14.01,2013-02-04 02:06:00,
2013-02-03 21:07:00,27.5,23.6,28.82,ENE,64,0.0,0.0,85,0.00,,---,0.04,VWS V14.01,2013-02-04 02:07:00,
2013-02-03 21:08:00,14.9,7.8,28.97,SW,221,0.0,0.0,73,0.00,,---,0.00,VWS V14.01,2013-02-04 02:08:00,
2013-02-03 21:09:00,27.5,23.6,28.82,ENE,64,0.0,3.1,85,0.00,,---,0.04,VWS V14.01,2013-02-04 02:09:00,
2013-02-03 21:10:00,27.5,23.6,28.82,ENE,64,0.0,3.6,85,0.00,,---,0.04,VWS V14.01,2013-02-04 02:10:00,
2013-02-03 21:11:00,27.5,23.6,28.82,ENE,61,3.6,4.5,85,0.00,,---,0.04,VWS V14.01,2013-02-04 02:11:00,
2013-02-03 21:12:00,27.5,23.9,28.82,ENE,60,4.5,5.4,86,0.00,,---,0.04,VWS V14.01,2013-02-04 02:12:00,
2013-02-03 21:13:00,14.7,7.9,28.97,SW,221,0.0,0.0,74,0.00,,---,0.00,VWS V14.01,2013-02-04 02:13:00,
2013-02-03 21:14:00,27.3,23.7,28.82,ENE,60,3.1,3.1,86,0.00,,---,0.04,VWS V14.01,2013-02-04 02:14:00,
2013-02-03 21:15:00,27.3,23.7,28.82,ENE,60,0.0,3.1,86,0.00,,---,0.04,VWS V14.01,2013-02-04 02:15:00,
2013-02-03 21:16:00,27.3,23.7,28.82,ENE,60,0.0,2.7,86,0.00,,---,0.04,VWS V14.01,2013-02-04 02:16:00,
2013-02-03 21:17:00,27.3,23.7,28.82,ENE,60,0.0,0.0,86,0.00,,---,0.04,VWS V14.01,2013-02-04 02:17:00,
2013-02-03 21:18:00,14.7,7.9,28.97,SW,221,0.0,0.0,74,0.00,,---,0.00,VWS V14.01,2013-02-04 02:18:00,
2013-02-03 21:19:00,27.3,23.7,28.82,ENE,60,0.0,3.1,86,0.00,,---,0.04,VWS V14.01,2013-02-04 02:19:00,
2013-02-03 21:20:00,27.3,23.7,28.82,ENE,60,2.7,4.0,86,0.00,,---,0.04,VWS V14.01,2013-02-04 02:20:00,
2013-02-03 21:21:00,27.3,23.7,28.82,ENE,60,0.0,2.7,86,0.00,,---,0.04,VWS V14.01,2013-02-04 02:21:00,
2013-02-03 21:22:00,27.3,23.7,28.82,ENE,60,0.0,0.0,86,0.00,,---,0.04,VWS V14.01,2013-02-04 02:22:00,
2013-02-03 21:23:00,14.4,7.6,28.97,SW,221,0.0,0.0,74,0.00,,---,0.00,VWS V14.01,2013-02-04 02:23:00,
2013-02-03 21:24:00,27.3,23.7,28.82,ENE,60,2.7,4.0,86,0.00,,---,0.04,VWS V14.01,2013-02-04 02:24:00,
2013-02-03 21:25:00,27.3,23.7,28.82,ENE,60,0.0,2.7,86,0.00,,---,0.04,VWS V14.01,2013-02-04 02:25:00,
2013-02-03 21:26:00,27.3,23.7,28.82,ENE,60,0.0,3.6,86,0.00,,---,0.04,VWS V14.01,2013-02-04 02:26:00,
2013-02-03 21:27:00,27.7,23.5,28.79,ENE,64,0.0,0.0,84,0.00,,---,0.04,VWS V14.01,2013-02-04 02:27:00,
2013-02-03 21:28:00,27.7,23.5,28.79,ENE,64,0.0,0.0,84,0.00,,---,0.04,VWS V14.01,2013-02-04 02:28:00,
2013-02-03 21:29:00,14.4,7.6,29.00,SW,221,0.0,0.0,74,0.00,,---,0.00,VWS V14.01,2013-02-04 02:29:00,
2013-02-03 21:30:00,27.7,23.5,28.79,ENE,64,0.0,0.0,84,0.00,,---,0.04,VWS V14.01,2013-02-04 02:30:00,
2013-02-03 21:31:00,27.7,23.5,28.79,ENE,64,0.0,0.0,84,0.00,,---,0.04,VWS V14.01,2013-02-04 02:31:00,
2013-02-03 21:32:00,27.7,23.5,28.79,ENE,64,0.0,0.0,84,0.00,,---,0.04,VWS V14.01,2013-02-04 02:32:00,
2013-02-03 21:33:00,27.7,23.5,28.79,ENE,64,0.0,0.0,84,0.00,,---,0.04,VWS V14.01,2013-02-04 02:33:00,
2013-02-03 21:34:00,14.4,7.9,29.00,SW,221,0.0,0.0,75,0.00,,---,0.00,VWS V14.01,2013-02-04 02:34:00,
2013-02-03 21:35:00,27.1,23.5,28.82,NNE,23,0.0,0.0,86,0.00,,---,0.04,VWS V14.01,2013-02-04 02:35:00,
2013-02-03 21:36:00,27.7,23.8,28.79,ENE,64,0.0,0.0,85,0.00,,---,0.04,VWS V14.01,2013-02-04 02:36:00,
2013-02-03 21:37:00,27.7,23.8,28.79,ENE,64,0.0,0.0,85,0.00,,---,0.04,VWS V14.01,2013-02-04 02:37:00,
2013-02-03 21:38:00,27.7,23.8,28.79,ENE,64,0.0,0.0,85,0.00,,---,0.04,VWS V14.01,2013-02-04 02:38:00,
2013-02-03 21:39:00,14.4,7.9,29.00,SW,221,0.0,0.0,75,0.00,,---,0.00,VWS V14.01,2013-02-04 02:39:00,
2013-02-03 21:40:00,27.7,23.8,28.79,ENE,64,0.0,0.0,85,0.00,,---,0.04,VWS V14.01,2013-02-04 02:40:00,
2013-02-03 21:41:00,27.1,23.5,28.82,NNE,18,3.6,4.0,86,0.00,,---,0.04,VWS V14.01,2013-02-04 02:41:00,
2013-02-03 21:42:00,27.7,23.8,28.79,ENE,64,0.0,0.0,85,0.00,,---,0.04,VWS V14.01,2013-02-04 02:42:00,
2013-02-03 21:43:00,27.7,23.8,28.79,ENE,64,0.0,0.0,85,0.00,,---,0.04,VWS V14.01,2013-02-04 02:43:00,
2013-02-03 21:44:00,14.2,7.7,29.00,SW,221,0.0,0.0,75,0.00,,---,0.00,VWS V14.01,2013-02-04 02:44:00,
2013-02-03 21:45:00,27.7,23.8,28.79,ENE,64,0.0,0.0,85,0.00,,---,0.04,VWS V14.01,2013-02-04 02:45:00,
2013-02-03 21:46:00,27.7,23.8,28.79,ENE,64,0.0,0.0,85,0.00,,---,0.04,VWS V14.01,2013-02-04 02:46:00,
2013-02-03 21:47:00,27.7,23.8,28.79,ENE,64,0.0,0.0,85,0.00,,---,0.04,VWS V14.01,2013-02-04 02:47:00,
2013-02-03 21:48:00,27.7,23.8,28.79,ENE,64,0.0,0.0,85,0.00,,---,0.04,VWS V14.01,2013-02-04 02:48:00,
2013-02-03 21:49:00,14.2,8.0,29.00,SW,221,0.0,0.0,76,0.00,,---,0.00,VWS V14.01,2013-02-04 02:49:00,
2013-02-03 21:50:00,27.7,23.8,28.79,ENE,64,3.6,4.0,85,0.00,,---,0.04,VWS V14.01,2013-02-04 02:50:00,
2013-02-03 21:51:00,27.7,23.8,28.82,ENE,64,0.0,3.6,85,0.00,,---,0.04,VWS V14.01,2013-02-04 02:51:00,
2013-02-03 21:52:00,27.7,23.8,28.82,ENE,64,0.0,0.0,85,0.00,,---,0.04,VWS V14.01,2013-02-04 02:52:00,
2013-02-03 21:53:00,27.7,23.8,28.82,ENE,64,3.6,3.6,85,0.00,,---,0.04,VWS V14.01,2013-02-04 02:53:00,
2013-02-03 21:54:00,14.2,8.0,29.00,SW,221,3.6,4.0,76,0.00,,---,0.00,VWS V14.01,2013-02-04 02:54:00,
2013-02-03 21:55:00,27.7,23.8,28.82,ENE,64,2.7,4.0,85,0.00,,---,0.04,VWS V14.01,2013-02-04 02:55:00,
2013-02-03 21:56:00,27.5,23.6,28.82,ENE,64,2.7,3.1,85,0.00,,---,0.04,VWS V14.01,2013-02-04 02:56:00,
2013-02-03 21:57:00,27.5,23.6,28.82,ENE,64,4.0,4.0,85,0.00,,---,0.04,VWS V14.01,2013-02-04 02:57:00,
2013-02-03 21:58:00,27.5,23.6,28.82,ENE,64,2.7,4.0,85,0.00,,---,0.04,VWS V14.01,2013-02-04 02:58:00,
2013-02-03 21:59:00,14.2,8.0,29.00,SW,221,0.0,3.6,76,0.00,,---,0.00,VWS V14.01,2013-02-04 02:59:00,
2013-02-03 22:00:00,27.5,23.6,28.82,ENE,64,0.0,0.0,85,0.00,,---,0.04,VWS V14.01,2013-02-04 03:00:00,
2013-02-03 22:01:00,27.5,23.6,28.82,ENE,64,3.6,3.6,85,0.00,,---,0.04,VWS V14.01,2013-02-04 03:01:00,
2013-02-03 22:02:00,27.5,23.6,28.82,ENE,64,0.0,3.6,85,0.00,,---,0.04,VWS V14.01,2013-02-04 03:02:00,
2013-02-03 22:03:00,27.5,23.6,28.82,ENE,64,0.0,0.0,85,0.00,,---,0.04,VWS V14.01,2013-02-04 03:03:00,
2013-02-03 22:04:00,14.2,8.3,29.00,SW,221,0.0,2.7,77,0.00,,---,0.00,VWS V14.01,2013-02-04 03:04:00,
2013-02-03 22:05:00,27.5,23.6,28.82,ENE,64,3.6,3.6,85,0.00,,---,0.04,VWS V14.01,2013-02-04 03:05:00,
2013-02-03 22:06:00,27.5,23.6,28.82,ENE,64,0.0,4.0,85,0.00,,---,0.04,VWS V14.01,2013-02-04 03:06:00,
2013-02-03 22:07:00,27.5,23.6,28.82,ENE,64,0.0,0.0,85,0.00,,---,0.04,VWS V14.01,2013-02-04 03:07:00,
2013-02-03 22:08:00,27.5,23.6,28.82,ENE,64,0.0,4.0,85,0.00,,---,0.04,VWS V14.01,2013-02-04 03:08:00,
2013-02-03 22:09:00,14.4,8.5,29.00,SW,221,3.1,4.0,77,0.00,,---,0.00,VWS V14.01,2013-02-04 03:09:00,
2013-02-03 22:10:00,27.5,23.6,28.82,ENE,64,0.0,3.6,85,0.00,,---,0.04,VWS V14.01,2013-02-04 03:10:00,
2013-02-03 22:11:00,27.5,23.6,28.82,ENE,61,3.6,4.5,85,0.00,,---,0.04,VWS V14.01,2013-02-04 03:11:00,
2013-02-03 22:12:00,27.5,23.9,28.82,ENE,60,4.5,5.4,86,0.00,,---,0.04,VWS V14.01,2013-02-04 03:12:00,
2013-02-03 22:13:00,27.5,23.9,28.82,ENE,60,0.0,4.5,86,0.00,,---,0.04,VWS V14.01,2013-02-04 03:13:00,
2013-02-03 22:14:00,14.5,8.9,29.00,SW,221,3.1,4.5,78,0.00,,---,0.00,VWS V14.01,2013-02-04 03:14:00,
2013-02-03 22:15:00,27.3,23.7,28.82,ENE,60,0.0,3.1,86,0.00,,---,0.04,VWS V14.01,2013-02-04 03:15:00,
2013-02-03 22:16:00,26.2,22.4,28.82,NNE,24,2.7,4.0,85,0.00,,---,0.04,VWS V14.01,2013-02-04 03:16:00,
2013-02-03 22:17:00,26.2,22.4,28.82,NNE,24,0.0,3.6,85,0.00,,---,0.04,VWS V14.01,2013-02-04 03:17:00,
2013-02-03 22:18:00,27.3,23.7,28.82,ENE,60,0.0,2.7,86,0.00,,---,0.04,VWS V14.01,2013-02-04 03:18:00,
2013-02-03 22:19:00,26.1,22.2,28.82,NE,36,4.0,4.5,85,0.00,,---,0.04,VWS V14.01,2013-02-04 03:19:00,
2013-02-03 22:20:00,14.7,9.4,29.00,SW,221,0.0,2.7,79,0.00,,---,0.00,VWS V14.01,2013-02-04 03:20:00,
2013-02-03 22:21:00,26.1,22.2,28.82,NE,36,2.7,3.1,85,0.00,,---,0.04,VWS V14.01,2013-02-04 03:21:00,
2013-02-03 22:22:00,27.3,23.7,28.82,ENE,60,0.0,0.0,86,0.00,,---,0.04,VWS V14.01,2013-02-04 03:22:00,
2013-02-03 22:23:00,26.1,22.2,28.82,NE,36,0.0,3.6,85,0.00,,---,0.04,VWS V14.01,2013-02-04 03:23:00,
2013-02-03 22:24:00,26.1,22.2,28.82,NE,36,0.0,0.0,85,0.00,,---,0.04,VWS V14.01,2013-02-04 03:24:00,
2013-02-03 22:25:00,14.9,9.6,29.00,SW,225,2.7,4.0,79,0.00,,---,0.00,VWS V14.01,2013-02-04 03:25:00,
2013-02-03 22:26:00,25.9,22.0,28.82,NE,36,0.0,0.0,85,0.00,,---,0.04,VWS V14.01,2013-02-04 03:26:00,
2013-02-03 22:27:00,27.3,23.7,28.82,ENE,60,0.0,4.5,86,0.00,,---,0.04,VWS V14.01,2013-02-04 03:27:00,
2013-02-03 22:28:00,27.3,23.7,28.82,NNE,21,3.6,5.8,86,0.00,,---,0.04,VWS V14.01,2013-02-04 03:28:00,
2013-02-03 22:29:00,25.9,22.0,28.82,NE,36,0.0,3.1,85,0.00,,---,0.04,VWS V14.01,2013-02-04 03:29:00,
2013-02-03 22:30:00,15.3,9.9,29.00,SW,225,3.6,3.6,79,0.00,,---,0.00,VWS V14.01,2013-02-04 03:30:00,
2013-02-03 22:31:00,27.1,23.5,28.82,NNE,21,4.0,4.0,86,0.00,,---,0.04,VWS V14.01,2013-02-04 03:31:00,
2013-02-03 22:32:00,27.1,23.5,28.82,NNE,22,4.0,4.0,86,0.00,,---,0.04,VWS V14.01,2013-02-04 03:32:00,
2013-02-03 22:33:00,27.1,23.5,28.82,NNE,23,2.7,4.9,86,0.00,,---,0.04,VWS V14.01,2013-02-04 03:33:00,
2013-02-03 22:34:00,27.1,23.5,28.82,NNE,23,0.0,4.0,86,0.00,,---,0.04,VWS V14.01,2013-02-04 03:34:00,
2013-02-03 22:35:00,15.6,10.6,29.00,SW,225,0.0,0.0,80,0.00,,---,0.00,VWS V14.01,2013-02-04 03:35:00,
2013-02-03 22:36:00,27.1,23.5,28.82,NNE,23,3.6,4.0,86,0.00,,---,0.04,VWS V14.01,2013-02-04 03:36:00,
2013-02-03 22:37:00,27.1,23.5,28.82,NNE,23,2.7,4.0,86,0.00,,---,0.04,VWS V14.01,2013-02-04 03:37:00,
2013-02-03 22:38:00,27.1,23.5,28.82,NNE,18,4.0,4.9,86,0.00,,---,0.04,VWS V14.01,2013-02-04 03:38:00,
2013-02-03 22:39:00,27.1,23.5,28.82,NNE,18,0.0,4.0,86,0.00,,---,0.04,VWS V14.01,2013-02-04 03:39:00,
2013-02-03 22:40:00,15.8,10.7,29.00,SW,225,0.0,0.0,80,0.00,,---,0.00,VWS V14.01,2013-02-04 03:40:00,
2013-02-03 22:41:00,27.1,23.5,28.82,NNE,18,3.6,4.0,86,0.00,,---,0.04,VWS V14.01,2013-02-04 03:41:00,
2013-02-03 22:42:00,27.1,23.5,28.82,NNE,18,0.0,4.5,86,0.00,,---,0.04,VWS V14.01,2013-02-04 03:42:00,
2013-02-03 22:43:00,27.0,23.3,28.82,NNE,18,0.0,3.1,86,0.00,,---,0.04,VWS V14.01,2013-02-04 03:43:00,
2013-02-03 22:44:00,27.0,23.3,28.82,NNE,18,0.0,0.0,86,0.00,,---,0.04,VWS V14.01,2013-02-04 03:44:00,
2013-02-03 22:45:00,16.0,10.9,29.00,SW,236,0.0,4.0,80,0.00,,---,0.00,VWS V14.01,2013-02-04 03:45:00,
2013-02-03 22:46:00,27.0,23.3,28.82,NNE,18,0.0,0.0,86,0.00,,---,0.04,VWS V14.01,2013-02-04 03:46:00,
2013-02-03 22:47:00,27.0,23.3,28.82,NNE,18,0.0,3.1,86,0.00,,---,0.04,VWS V14.01,2013-02-04 03:47:00,
2013-02-03 22:48:00,27.0,23.3,28.82,NNE,17,0.0,0.0,86,0.00,,---,0.04,VWS V14.01,2013-02-04 03:48:00,
2013-02-03 22:49:00,27.0,23.3,28.82,NNE,18,3.1,3.1,86,0.00,,---,0.04,VWS V14.01,2013-02-04 03:49:00,
2013-02-03 22:50:00,16.0,11.2,29.00,SW,236,0.0,3.1,81,0.00,,---,0.00,VWS V14.01,2013-02-04 03:50:00,
2013-02-03 22:51:00,27.0,23.3,28.82,NNE,17,0.0,2.7,86,0.00,,---,0.04,VWS V14.01,2013-02-04 03:51:00,
2013-02-03 22:52:00,27.0,23.3,28.82,NNE,18,4.9,5.4,86,0.00,,---,0.04,VWS V14.01,2013-02-04 03:52:00,
2013-02-03 22:53:00,27.0,23.3,28.82,NNE,18,4.5,4.9,86,0.00,,---,0.04,VWS V14.01,2013-02-04 03:53:00,
2013-02-03 22:54:00,27.0,23.3,28.82,NNE,18,0.0,4.9,86,0.00,,---,0.04,VWS V14.01,2013-02-04 03:54:00,
2013-02-03 22:55:00,16.0,10.9,29.00,SW,236,0.0,4.0,80,0.00,,---,0.00,VWS V14.01,2013-02-04 03:55:00,
2013-02-03 22:56:00,26.8,23.2,28.82,NNE,18,3.6,4.0,86,0.00,,---,0.04,VWS V14.01,2013-02-04 03:56:00,
2013-02-03 22:57:00,26.8,23.2,28.82,NNE,17,3.1,5.8,86,0.00,,---,0.04,VWS V14.01,2013-02-04 03:57:00,
2013-02-03 22:58:00,25.7,21.8,28.82,NE,35,4.5,4.5,85,0.00,,---,0.04,VWS V14.01,2013-02-04 03:58:00,
2013-02-03 22:59:00,26.8,23.2,28.82,NNE,18,3.6,4.9,86,0.00,,---,0.04,VWS V14.01,2013-02-04 03:59:00,
2013-02-03 23:00:00,16.3,11.3,29.00,WSW,256,3.6,4.0,80,0.00,,---,0.00,VWS V14.01,2013-02-04 04:00:00,
2013-02-03 23:01:00,25.7,22.1,28.82,NE,35,0.0,4.0,86,0.00,,---,0.00,VWS V14.01,2013-02-04 04:01:00,
2013-02-03 23:02:00,26.6,23.0,28.82,NNE,18,0.0,0.0,86,0.00,,---,0.04,VWS V14.01,2013-02-04 04:02:00,
2013-02-03 23:03:00,25.7,22.1,28.82,NE,35,0.0,0.0,86,0.00,,---,0.00,VWS V14.01,2013-02-04 04:03:00,
2013-02-03 23:04:00,26.6,23.0,28.82,NNE,18,0.0,4.0,86,0.00,,---,0.04,VWS V14.01,2013-02-04 04:04:00,
2013-02-03 23:05:00,25.7,22.1,28.82,NE,35,0.0,4.5,86,0.00,,---,0.00,VWS V14.01,2013-02-04 04:05:00,
2013-02-03 23:06:00,16.5,11.4,29.00,WSW,245,3.1,3.1,80,0.00,,---,0.00,VWS V14.01,2013-02-04 04:06:00,
2013-02-03 23:07:00,26.4,22.8,28.82,NNE,21,3.6,4.5,86,0.00,,---,0.04,VWS V14.01,2013-02-04 04:07:00,
2013-02-03 23:08:00,26.4,22.5,28.82,NNE,21,2.7,3.6,85,0.00,,---,0.04,VWS V14.01,2013-02-04 04:08:00,
2013-02-03 23:09:00,25.7,22.1,28.82,NE,35,0.0,0.0,86,0.00,,---,0.00,VWS V14.01,2013-02-04 04:09:00,
2013-02-03 23:10:00,25.7,22.1,28.82,NE,35,0.0,0.0,86,0.00,,---,0.00,VWS V14.01,2013-02-04 04:10:00,
2013-02-03 23:11:00,16.5,11.4,29.00,WSW,251,3.1,4.9,80,0.00,,---,0.00,VWS V14.01,2013-02-04 04:11:00,
2013-02-03 23:12:00,25.7,22.1,28.82,NE,35,0.0,0.0,86,0.00,,---,0.00,VWS V14.01,2013-02-04 04:12:00,
2013-02-03 23:13:00,25.7,22.1,28.82,NE,35,0.0,0.0,86,0.00,,---,0.00,VWS V14.01,2013-02-04 04:13:00,
2013-02-03 23:14:00,26.2,22.4,28.82,NNE,24,0.0,3.6,85,0.00,,---,0.04,VWS V14.01,2013-02-04 04:14:00,
2013-02-03 23:15:00,25.5,21.9,28.82,NE,35,0.0,3.1,86,0.00,,---,0.00,VWS V14.01,2013-02-04 04:15:00,
2013-02-03 23:16:00,16.5,11.2,29.00,WSW,240,4.0,4.0,79,0.00,,---,0.00,VWS V14.01,2013-02-04 04:16:00,
2013-02-03 23:17:00,25.5,21.9,28.82,NE,35,0.0,4.9,86,0.00,,---,0.00,VWS V14.01,2013-02-04 04:17:00,
2013-02-03 23:18:00,25.5,21.9,28.82,NE,35,2.7,2.7,86,0.00,,---,0.00,VWS V14.01,2013-02-04 04:18:00,
2013-02-03 23:19:00,26.1,22.2,28.82,NE,36,4.0,4.5,85,0.00,,---,0.04,VWS V14.01,2013-02-04 04:19:00,
2013-02-03 23:20:00,26.1,22.2,28.82,NE,36,3.1,4.0,85,0.00,,---,0.04,VWS V14.01,2013-02-04 04:20:00,
2013-02-03 23:21:00,16.5,11.2,29.00,WSW,247,2.7,5.4,79,0.00,,---,0.00,VWS V14.01,2013-02-04 04:21:00,
2013-02-03 23:22:00,25.5,21.9,28.82,NE,35,0.0,3.1,86,0.00,,---,0.00,VWS V14.01,2013-02-04 04:22:00,
2013-02-03 23:23:00,25.5,21.9,28.82,NE,35,4.9,4.9,86,0.00,,---,0.00,VWS V14.01,2013-02-04 04:23:00,
2013-02-03 23:24:00,26.1,22.2,28.82,NE,36,0.0,0.0,85,0.00,,---,0.04,VWS V14.01,2013-02-04 04:24:00,
2013-02-03 23:25:00,25.5,21.9,28.82,NNE,33,0.0,5.8,86,0.00,,---,0.00,VWS V14.01,2013-02-04 04:25:00,
2013-02-03 23:26:00,16.7,11.1,29.00,WSW,245,0.0,4.9,78,0.00,,---,0.00,VWS V14.01,2013-02-04 04:26:00,
2013-02-03 23:27:00,25.5,21.9,28.82,NNE,26,2.7,5.4,86,0.00,,---,0.00,VWS V14.01,2013-02-04 04:27:00,
2013-02-03 23:28:00,25.9,22.0,28.82,NE,36,3.1,3.1,85,0.00,,---,0.04,VWS V14.01,2013-02-04 04:28:00,
2013-02-03 23:29:00,25.5,21.9,28.82,NNE,26,0.0,3.1,86,0.00,,---,0.00,VWS V14.01,2013-02-04 04:29:00,
2013-02-03 23:30:00,25.5,21.9,28.82,North,351,5.8,5.8,86,0.00,,---,0.00,VWS V14.01,2013-02-04 04:30:00,
2013-02-03 23:31:00,16.9,11.2,29.00,SW,234,2.7,4.5,78,0.00,,---,0.00,VWS V14.01,2013-02-04 04:31:00,
2013-02-03 23:32:00,25.3,21.8,28.82,NNE,24,0.0,3.6,86,0.00,,---,0.00,VWS V14.01,2013-02-04 04:32:00,
2013-02-03 23:33:00,25.9,22.0,28.82,NE,35,4.0,5.4,85,0.00,,---,0.04,VWS V14.01,2013-02-04 04:33:00,
2013-02-03 23:34:00,25.9,22.0,28.82,NE,35,0.0,4.0,85,0.00,,---,0.04,VWS V14.01,2013-02-04 04:34:00,
2013-02-03 23:35:00,25.9,22.0,28.82,NE,35,2.7,2.7,85,0.00,,---,0.04,VWS V14.01,2013-02-04 04:35:00,
2013-02-03 23:36:00,17.1,11.1,29.00,WSW,251,0.0,4.0,77,0.00,,---,0.00,VWS V14.01,2013-02-04 04:36:00,
2013-02-03 23:37:00,25.2,21.6,28.82,NNW,331,3.6,5.8,86,0.00,,---,0.00,VWS V14.01,2013-02-04 04:37:00,
2013-02-03 23:38:00,25.2,21.6,28.82,NNW,343,0.0,4.9,86,0.00,,---,0.00,VWS V14.01,2013-02-04 04:38:00,
2013-02-03 23:39:00,25.2,21.6,28.82,NNE,26,4.0,4.0,86,0.00,,---,0.00,VWS V14.01,2013-02-04 04:39:00,
2013-02-03 23:40:00,25.2,21.6,28.82,NNE,16,2.7,4.0,86,0.00,,---,0.00,VWS V14.01,2013-02-04 04:40:00,
2013-02-03 23:41:00,17.2,11.3,29.00,WSW,251,3.1,5.4,77,0.00,,---,0.00,VWS V14.01,2013-02-04 04:41:00,
2013-02-03 23:42:00,25.0,21.4,28.82,NNW,337,2.7,4.9,86,0.00,,---,0.00,VWS V14.01,2013-02-04 04:42:00,
2013-02-03 23:43:00,25.0,21.4,28.82,NNW,337,3.1,3.6,86,0.00,,---,0.00,VWS V14.01,2013-02-04 04:43:00,
2013-02-03 23:44:00,25.0,21.4,28.82,NNW,337,3.6,4.5,86,0.00,,---,0.00,VWS V14.01,2013-02-04 04:44:00,
2013-02-03 23:45:00,25.0,21.4,28.82,NNW,337,0.0,3.6,86,0.00,,---,0.00,VWS V14.01,2013-02-04 04:45:00,
2013-02-03 23:46:00,17.1,10.8,29.00,WSW,257,4.0,4.0,76,0.00,,---,0.00,VWS V14.01,2013-02-04 04:46:00,
2013-02-03 23:47:00,25.0,21.7,28.82,NNW,334,6.9,6.9,87,0.00,,---,0.00,VWS V14.01,2013-02-04 04:47:00,
2013-02-03 23:48:00,25.0,21.7,28.82,North,8,2.7,6.9,87,0.00,,---,0.00,VWS V14.01,2013-02-04 04:48:00,
2013-02-03 23:49:00,25.0,21.7,28.82,NNW,343,3.1,5.4,87,0.00,,---,0.00,VWS V14.01,2013-02-04 04:49:00,
2013-02-03 23:50:00,25.0,21.7,28.82,NNE,20,0.0,4.5,87,0.00,,---,0.00,VWS V14.01,2013-02-04 04:50:00,
2013-02-03 23:51:00,16.7,10.5,29.00,WSW,257,0.0,3.6,76,0.00,,---,0.00,VWS V14.01,2013-02-04 04:51:00,
2013-02-03 23:52:00,25.0,21.7,28.82,NNE,20,0.0,0.0,87,0.00,,---,0.00,VWS V14.01,2013-02-04 04:52:00,
2013-02-03 23:53:00,25.0,21.7,28.82,NNE,20,0.0,0.0,87,0.00,,---,0.00,VWS V14.01,2013-02-04 04:53:00,
2013-02-03 23:54:00,25.0,21.7,28.82,NNE,23,3.1,5.4,87,0.00,,---,0.00,VWS V14.01,2013-02-04 04:54:00,
2013-02-03 23:55:00,25.2,21.8,28.82,NNE,23,0.0,4.5,87,0.00,,---,0.00,VWS V14.01,2013-02-04 04:55:00,
2013-02-03 23:56:00,16.5,10.3,29.00,WSW,239,3.1,5.8,76,0.00,,---,0.00,VWS V14.01,2013-02-04 04:56:00,
2013-02-03 23:57:00,25.2,22.1,28.82,NNE,22,3.6,3.6,88,0.00,,---,0.00,VWS V14.01,2013-02-04 04:57:00,
2013-02-03 23:58:00,25.2,22.1,28.82,NNE,19,0.0,4.0,88,0.00,,---,0.00,VWS V14.01,2013-02-04 04:58:00,
2013-02-03 23:59:00,25.2,22.1,28.82,NNE,13,3.6,3.6,88,0.00,,---,0.00,VWS V14.01,2013-02-04 04:59:00,